[[{"header":{"parameterUnit":"m.s-1","parameterCategory":1,"la1":30.6,"la2":29.2853,"lo1":-89.7004,"lo2":-87.6739,"dy":0.0162,"dx":0.0183,"nx":112,"ny":82,"refTime":"2024-04-17T06:00:00:Z","depth":0,"parameterNumber":2,"parameterNumberName":"U-component_of_WINDS"},"data":[0.0,0.0,0.0,0.0,0.0,0.0,0.0,0.0,0.0,0.0,0.0,0.0,0.0,0.0,0.0,0.0,0.0,0.0,0.0,0.0,0.0,0.0,0.0,0.0,0.0,0.0,0.0,0.0,0.0,0.0,0.0,0.0,0.0,0.0,0.0,0.0,0.0,0.0,0.0,0.0,0.0,0.0,0.0,0.0,0.0,0.0,0.0,0.0,0.0,0.0,0.0,0.0,0.0,0.0,0.0,0.0,0.0,0.0,0.0,0.0,0.0,0.0,0.0,0.0,0.0,0.0,0.0,0.0,0.0,0.0,0.0,0.0,0.0,0.0,0.0,0.0,0.0,0.0,0.0,0.0,0.0,0.0,0.0,0.0,0.0,0.0,0.0,0.0,0.0,0.0,0.0,2.9907,2.9988,3.0049,3.0079,2.9988,3.0094,3.0364,0.0,0.0,0.0,0.0,0.0,0.0,0.0,0.0,0.0,0.0,0.0,0.0,0.0,0.0,0.0,0.0,0.0,0.0,0.0,0.0,0.0,0.0,0.0,0.0,0.0,0.0,0.0,0.0,0.0,0.0,0.0,0.0,0.0,0.0,0.0,0.0,0.0,0.0,0.0,0.0,0.0,0.0,0.0,0.0,0.0,0.0,0.0,0.0,0.0,0.0,0.0,0.0,0.0,0.0,0.0,0.0,0.0,0.0,0.0,0.0,0.0,0.0,0.0,0.0,0.0,0.0,0.0,0.0,0.0,0.0,0.0,0.0,0.0,0.0,0.0,0.0,0.0,0.0,0.0,0.0,0.0,0.0,0.0,0.0,0.0,0.0,0.0,0.0,0.0,0.0,0.0,0.0,0.0,0.0,0.0,0.0,0.0,0.0,0.0,0.0,0.0,0.0,0.0,0.0,2.9531,2.957,2.9682,2.9808,2.9905,2.9825,2.9907,3.0304,0.0,0.0,0.0,0.0,0.0,0.0,0.0,0.0,0.0,0.0,0.0,0.0,0.0,0.0,0.0,0.0,0.0,0.0,0.0,0.0,0.0,0.0,0.0,0.0,0.0,0.0,0.0,0.0,0.0,0.0,0.0,0.0,0.0,0.0,0.0,0.0,0.0,0.0,0.0,0.0,0.0,0.0,0.0,0.0,0.0,0.0,0.0,0.0,0.0,0.0,0.0,0.0,0.0,0.0,0.0,0.0,0.0,0.0,0.0,0.0,0.0,0.0,0.0,0.0,0.0,0.0,0.0,0.0,0.0,0.0,0.0,0.0,0.0,0.0,0.0,0.0,0.0,0.0,0.0,0.0,0.0,0.0,0.0,0.0,0.0,0.0,0.0,0.0,0.0,0.0,0.0,0.0,0.0,0.0,0.0,0.0,0.0,0.0,0.0,0.0,0.0,0.0,0.0,2.9589,2.9531,2.9645,2.9806,2.9972,3.0099,2.9996,3.0056,3.0383,3.0203,0.0,0.0,0.0,0.0,0.0,0.0,0.0,0.0,0.0,0.0,0.0,0.0,0.0,0.0,0.0,0.0,0.0,0.0,0.0,0.0,0.0,0.0,0.0,0.0,0.0,0.0,0.0,0.0,0.0,0.0,0.0,0.0,0.0,0.0,0.0,0.0,0.0,0.0,0.0,0.0,0.0,0.0,0.0,0.0,0.0,0.0,0.0,0.0,0.0,0.0,0.0,0.0,0.0,0.0,0.0,0.0,0.0,0.0,0.0,0.0,0.0,0.0,0.0,0.0,0.0,0.0,0.0,0.0,0.0,0.0,0.0,0.0,0.0,0.0,0.0,0.0,0.0,0.0,0.0,0.0,0.0,0.0,0.0,0.0,0.0,0.0,0.0,0.0,0.0,0.0,0.0,0.0,0.0,0.0,0.0,0.0,0.0,0.0,0.0,0.0,0.0,0.0,2.9454,2.9512,2.9719,2.9874,3.0026,3.0209,3.0114,3.0155,3.0425,3.0209,0.0,0.0,0.0,0.0,0.0,0.0,0.0,0.0,0.0,0.0,0.0,0.0,0.0,0.0,0.0,0.0,0.0,0.0,0.0,0.0,0.0,0.0,0.0,0.0,0.0,0.0,0.0,0.0,0.0,0.0,0.0,0.0,0.0,0.0,0.0,0.0,0.0,0.0,0.0,0.0,0.0,0.0,0.0,0.0,0.0,0.0,0.0,0.0,0.0,0.0,0.0,0.0,0.0,0.0,0.0,0.0,0.0,0.0,0.0,0.0,0.0,0.0,0.0,0.0,0.0,0.0,0.0,0.0,0.0,0.0,0.0,0.0,0.0,0.0,0.0,0.0,0.0,0.0,0.0,0.0,0.0,0.0,0.0,0.0,0.0,0.0,0.0,0.0,0.0,0.0,0.0,0.0,0.0,0.0,0.0,0.0,0.0,0.0,0.0,0.0,0.0,0.0,2.9222,2.9307,2.9492,2.9531,2.9662,2.9992,2.9905,2.9956,3.0292,3.0114,0.0,0.0,0.0,0.0,0.0,0.0,0.0,0.0,0.0,0.0,0.0,0.0,0.0,0.0,0.0,0.0,0.0,0.0,0.0,0.0,0.0,0.0,0.0,0.0,0.0,0.0,0.0,0.0,0.0,0.0,0.0,0.0,0.0,0.0,0.0,0.0,0.0,0.0,0.0,0.0,0.0,0.0,0.0,0.0,0.0,0.0,0.0,0.0,0.0,0.0,0.0,0.0,0.0,0.0,0.0,0.0,0.0,0.0,0.0,0.0,0.0,0.0,0.0,0.0,0.0,0.0,0.0,0.0,0.0,0.0,0.0,0.0,0.0,0.0,0.0,0.0,0.0,0.0,0.0,0.0,0.0,0.0,0.0,0.0,0.0,0.0,0.0,0.0,0.0,0.0,0.0,0.0,0.0,0.0,0.0,0.0,0.0,0.0,0.0,0.0,0.0,0.0,2.9762,3.0141,0.0,3.096,3.1233,3.091,3.083,3.0639,3.0251,0.0,0.0,0.0,0.0,0.0,0.0,0.0,0.0,0.0,0.0,0.0,0.0,0.0,0.0,0.0,0.0,0.0,0.0,0.0,0.0,0.0,0.0,0.0,0.0,0.0,0.0,0.0,0.0,0.0,0.0,0.0,0.0,0.0,0.0,0.0,0.0,0.0,0.0,0.0,0.0,0.0,0.0,0.0,0.0,0.0,0.0,0.0,0.0,0.0,0.0,0.0,0.0,0.0,0.0,0.0,0.0,0.0,0.0,0.0,0.0,0.0,0.0,0.0,0.0,0.0,0.0,0.0,0.0,0.0,0.0,0.0,0.0,0.0,0.0,0.0,0.0,0.0,0.0,0.0,0.0,0.0,0.0,0.0,0.0,0.0,0.0,0.0,0.0,0.0,0.0,0.0,0.0,0.0,0.0,0.0,0.0,0.0,0.0,0.0,0.0,0.0,0.0,2.9978,3.0454,3.0894,0.0,3.1864,3.2179,3.1806,3.1771,3.1543,3.1001,0.0,0.0,0.0,0.0,0.0,0.0,0.0,0.0,0.0,0.0,0.0,0.0,0.0,0.0,0.0,0.0,0.0,0.0,0.0,0.0,0.0,0.0,0.0,0.0,0.0,0.0,0.0,0.0,0.0,0.0,0.0,0.0,0.0,0.0,0.0,0.0,0.0,0.0,0.0,0.0,0.0,0.0,0.0,0.0,0.0,0.0,0.0,0.0,0.0,0.0,0.0,0.0,0.0,0.0,0.0,0.0,0.0,0.0,0.0,0.0,0.0,0.0,0.0,0.0,0.0,0.0,0.0,0.0,0.0,0.0,0.0,0.0,0.0,0.0,0.0,0.0,0.0,0.0,0.0,0.0,0.0,0.0,0.0,0.0,0.0,0.0,0.0,0.0,0.0,0.0,0.0,0.0,0.0,0.0,0.0,0.0,0.0,0.0,0.0,0.0,0.0,0.0,3.1249,3.125,3.1403,3.1856,3.1939,3.2123,3.2568,3.2621,3.2602,0.0,0.0,0.0,0.0,0.0,0.0,0.0,0.0,0.0,0.0,0.0,0.0,0.0,0.0,0.0,0.0,0.0,0.0,0.0,0.0,0.0,0.0,0.0,0.0,0.0,0.0,0.0,0.0,0.0,0.0,0.0,0.0,0.0,0.0,0.0,0.0,0.0,0.0,0.0,0.0,0.0,0.0,0.0,0.0,0.0,0.0,0.0,0.0,0.0,0.0,0.0,0.0,0.0,0.0,0.0,0.0,0.0,0.0,0.0,0.0,0.0,0.0,0.0,0.0,0.0,0.0,0.0,0.0,0.0,0.0,0.0,0.0,0.0,0.0,0.0,0.0,0.0,0.0,0.0,0.0,0.0,0.0,0.0,0.0,0.0,0.0,0.0,0.0,0.0,0.0,0.0,0.0,0.0,0.0,0.0,0.0,0.0,0.0,0.0,0.0,0.0,0.0,0.0,3.1494,3.207,3.2539,3.2732,3.3475,3.3751,3.328,3.3147,3.2844,3.2279,0.0,0.0,0.0,0.0,0.0,0.0,0.0,0.0,0.0,0.0,0.0,0.0,0.0,0.0,0.0,0.0,0.0,0.0,0.0,0.0,0.0,0.0,0.0,0.0,0.0,0.0,0.0,0.0,0.0,0.0,0.0,0.0,0.0,0.0,0.0,0.0,0.0,0.0,0.0,0.0,0.0,0.0,0.0,0.0,0.0,0.0,0.0,0.0,0.0,0.0,0.0,0.0,0.0,0.0,0.0,0.0,0.0,0.0,0.0,0.0,0.0,0.0,0.0,0.0,0.0,0.0,0.0,0.0,0.0,0.0,0.0,0.0,0.0,0.0,0.0,0.0,0.0,0.0,0.0,0.0,0.0,0.0,0.0,0.0,0.0,0.0,0.0,0.0,0.0,0.0,0.0,0.0,0.0,0.0,0.0,0.0,0.0,0.0,0.0,0.0,0.0,0.0,3.2276,3.2827,3.3247,3.3401,3.4091,3.44,3.3953,3.3853,3.3564,3.3095,0.0,0.0,0.0,0.0,0.0,0.0,0.0,0.0,0.0,0.0,0.0,0.0,0.0,0.0,0.0,0.0,0.0,0.0,0.0,0.0,0.0,0.0,0.0,0.0,0.0,0.0,0.0,0.0,0.0,0.0,0.0,0.0,0.0,0.0,0.0,0.0,0.0,0.0,0.0,0.0,0.0,0.0,0.0,0.0,0.0,0.0,0.0,0.0,0.0,0.0,0.0,0.0,0.0,0.0,0.0,0.0,0.0,0.0,0.0,0.0,0.0,0.0,0.0,0.0,0.0,0.0,0.0,0.0,0.0,0.0,0.0,0.0,0.0,0.0,0.0,0.0,0.0,0.0,0.0,0.0,0.0,0.0,0.0,0.0,0.0,0.0,0.0,0.0,0.0,0.0,0.0,0.0,0.0,0.0,0.0,0.0,0.0,0.0,0.0,0.0,0.0,0.0,3.3372,3.3462,3.3633,3.3868,3.4099,3.434,3.4602,3.4561,3.4517,3.4517,0.0,0.0,0.0,0.0,0.0,0.0,0.0,0.0,0.0,0.0,0.0,0.0,0.0,0.0,0.0,0.0,0.0,0.0,0.0,0.0,0.0,0.0,0.0,0.0,0.0,0.0,0.0,0.0,0.0,0.0,0.0,0.0,0.0,0.0,0.0,0.0,0.0,0.0,0.0,0.0,0.0,0.0,0.0,0.0,0.0,0.0,0.0,0.0,0.0,0.0,0.0,0.0,0.0,0.0,0.0,0.0,0.0,0.0,0.0,0.0,3.0267,0.0,0.0,0.0,0.0,0.0,0.0,0.0,0.0,0.0,0.0,0.0,0.0,0.0,0.0,0.0,0.0,0.0,0.0,0.0,0.0,0.0,0.0,0.0,0.0,0.0,0.0,0.0,0.0,0.0,0.0,0.0,0.0,0.0,0.0,0.0,0.0,0.0,0.0,0.0,0.0,0.0,3.3476,3.368,3.386,3.3895,3.4316,3.4623,3.4666,3.467,3.4651,3.4651,3.4267,0.0,0.0,0.0,0.0,0.0,0.0,0.0,0.0,0.0,0.0,0.0,0.0,0.0,0.0,0.0,0.0,0.0,0.0,0.0,0.0,0.0,0.0,0.0,0.0,0.0,0.0,0.0,0.0,0.0,0.0,0.0,0.0,0.0,0.0,0.0,0.0,0.0,0.0,0.0,0.0,0.0,0.0,0.0,0.0,0.0,0.0,0.0,0.0,0.0,0.0,0.0,0.0,0.0,0.0,0.0,0.0,0.0,0.0,0.0,0.0,3.0166,0.0,0.0,0.0,0.0,0.0,0.0,0.0,0.0,0.0,0.0,0.0,0.0,0.0,0.0,0.0,0.0,0.0,0.0,0.0,0.0,0.0,0.0,0.0,0.0,0.0,0.0,0.0,0.0,0.0,0.0,0.0,0.0,0.0,0.0,0.0,0.0,0.0,0.0,0.0,0.0,3.3262,3.3512,3.3698,3.3698,3.4099,3.4363,3.4363,3.4344,3.4302,3.4279,3.4105,0.0,0.0,0.0,0.0,0.0,0.0,0.0,0.0,0.0,0.0,0.0,0.0,0.0,0.0,0.0,0.0,0.0,0.0,0.0,0.0,0.0,0.0,0.0,0.0,0.0,0.0,0.0,0.0,0.0,0.0,0.0,0.0,0.0,0.0,0.0,0.0,0.0,0.0,0.0,0.0,0.0,0.0,0.0,0.0,0.0,0.0,0.0,0.0,0.0,0.0,0.0,0.0,0.0,3.0006,3.0279,3.0279,3.0253,3.024,3.0226,3.0003,2.9891,2.9893,0.0,0.0,0.0,0.0,0.0,0.0,0.0,0.0,0.0,0.0,0.0,0.0,0.0,0.0,0.0,0.0,0.0,0.0,0.0,0.0,0.0,0.0,0.0,0.0,0.0,2.4055,2.4112,0.0,0.0,0.0,0.0,0.0,0.0,0.0,0.0,0.0,0.0,0.0,0.0,3.2898,3.3147,3.3386,3.3433,3.3762,3.3998,3.4049,3.4005,3.3954,3.3902,3.3788,3.368,0.0,0.0,0.0,0.0,0.0,0.0,0.0,0.0,0.0,0.0,0.0,0.0,0.0,0.0,0.0,0.0,0.0,0.0,0.0,0.0,0.0,0.0,0.0,0.0,0.0,0.0,0.0,0.0,0.0,0.0,0.0,0.0,0.651,0.58,0.0,0.0,0.0,0.0,0.0,0.0,0.0,0.0,0.0,0.0,0.0,0.0,0.0,1.8593,1.9647,2.6797,2.8701,2.541,2.8664,3.0221,3.0207,3.003,2.9953,2.9937,2.9626,0.0,2.9956,2.9645,0.0,0.0,0.0,0.0,0.0,0.0,0.0,0.0,0.0,0.0,0.0,0.0,0.0,0.0,0.0,0.0,0.0,0.0,0.0,0.0,0.0,0.0,2.2889,2.2859,2.3233,2.3638,0.0,2.5133,2.6357,2.697,2.8508,0.0,0.0,0.0,0.0,0.0,0.0,0.0,3.242,3.2636,3.2925,3.3232,3.3579,3.3943,3.4245,3.4302,3.4334,3.4311,3.3981,3.3768,3.3768,3.3449,0.0,0.0,0.0,0.0,0.0,0.0,0.0,0.0,0.0,0.0,0.0,0.0,0.0,0.0,0.0,0.0,0.0,0.0,0.0,0.0,0.0,0.0,0.0,0.0,0.0,0.0,0.0,0.0,0.0,0.5866,0.5206,0.5213,0.508,0.5017,0.0,0.0,0.0,0.0,0.0,0.0,0.0,0.0,0.0,1.1109,1.5702,1.9252,2.1686,2.7401,2.9438,2.7761,2.9404,3.0213,3.0199,3.0109,3.0064,3.0049,2.9698,2.9681,2.9857,2.9531,2.9328,2.9203,0.0,0.0,0.0,0.0,2.7507,2.6833,2.6639,2.6353,0.0,2.5644,0.0,0.0,0.0,0.0,0.0,0.0,0.0,0.0,0.0,0.0,2.2395,2.2586,2.2963,2.339,2.3759,2.4905,2.6047,0.0,2.8183,2.9571,3.0412,0.0,0.0,0.0,0.0,3.2197,3.2283,3.2669,3.2957,3.3081,3.3476,3.3797,3.3895,3.3928,3.3935,3.3884,3.3743,3.3606,3.3597,3.3462,3.323,0.0,0.0,0.0,0.0,0.0,0.0,0.0,0.0,0.0,0.0,0.0,0.0,0.0,0.0,0.0,0.0,0.0,0.0,0.0,0.0,0.0,0.0,0.0,0.0,0.0,0.0,0.0,0.0,0.4712,0.4177,0.4642,0.4258,0.4177,0.0,0.0,0.0,0.0,0.0,0.0,0.4657,0.5135,0.7239,1.1318,1.4853,1.9273,2.4696,2.7674,2.9708,3.0844,3.0619,3.051,3.0491,3.0238,3.0113,3.0034,2.9753,2.9626,2.9626,2.9328,2.9134,2.8998,2.8815,2.843,2.7964,2.7754,2.7014,2.6075,2.5911,2.554,2.5075,2.4599,0.0,2.5044,2.4592,0.0,0.0,0.0,0.0,2.2952,2.2735,2.2419,2.2263,2.2729,2.3078,2.3451,2.3872,2.4822,2.5827,0.0,2.7764,2.8947,2.9723,0.0,0.0,0.0,0.0,3.1821,3.2073,3.2519,3.2844,3.288,3.328,3.3559,3.3605,3.3577,3.3549,3.3491,3.3481,3.3452,3.3393,3.3393,3.3393,3.3393,0.0,0.0,0.0,0.0,0.0,0.0,0.0,0.0,0.0,0.0,0.0,0.0,0.0,0.0,0.0,0.0,0.0,0.0,0.0,0.0,0.0,0.0,0.0,0.0,0.0,0.0,0.0,0.0,0.0,0.3528,0.3259,0.0,0.0,0.0,0.0,0.549,0.5281,0.5066,0.4928,0.5212,0.7152,1.0987,1.2402,1.6959,2.5095,2.5936,2.8417,3.2558,3.1752,3.135,3.1298,3.0345,2.9822,2.9626,2.9474,2.9351,2.9222,2.9071,2.8934,2.8791,2.8594,2.8183,2.7683,2.7426,2.6623,2.5623,2.5705,2.5208,2.4564,2.4599,2.4527,2.4307,2.3507,2.3606,0.0,0.0,2.226,2.237,2.2024,2.2099,2.2414,2.3038,2.3621,2.4028,2.381,2.4792,2.5802,0.0,2.73,2.8403,2.9275,0.0,3.0402,3.115,3.1218,3.1329,3.1617,3.1877,3.2214,3.2588,3.293,3.3268,3.3559,3.3549,3.3491,3.3509,3.3452,3.3393,3.3393,3.3393,3.3393,3.3393,3.3393,0.0,0.0,0.0,0.0,0.0,0.0,0.0,0.0,0.0,0.0,0.0,0.0,0.0,0.0,0.0,0.0,0.0,0.0,0.0,0.0,0.0,0.0,0.0,0.0,0.0,0.0,0.0,0.0,0.3123,0.2652,0.0,0.3195,0.3676,0.417,0.4718,0.4939,0.5017,0.4948,0.5234,0.6003,0.7367,1.0546,1.385,1.7191,1.9888,2.3554,2.8123,2.7856,2.9137,3.1714,3.1393,3.1204,3.1125,3.0958,3.0828,3.0734,3.0399,2.9696,2.8749,2.8326,2.7858,2.7289,2.6707,2.5966,2.5253,2.5036,2.4791,2.4498,2.4328,2.3937,2.3421,2.2558,2.2676,2.288,2.174,2.1716,2.2061,2.2048,2.2114,2.2365,2.3054,2.3524,2.3956,2.4487,2.4829,2.5232,2.593,2.6792,2.765,2.8227,2.8732,2.93,3.0074,3.0418,3.0723,3.1044,3.164,3.2109,3.2437,3.2816,3.3147,3.3452,3.3452,3.3422,3.3422,3.3393,3.3393,3.3393,3.3393,3.3393,3.3393,3.3147,3.2939,0.0,0.0,0.0,0.0,0.0,0.0,0.0,0.0,0.0,0.0,0.0,0.0,0.0,0.0,0.0,0.0,0.0,0.0,0.0,0.0,0.0,0.0,0.0,0.0,0.0,0.0,0.3222,0.2908,0.2283,0.2129,0.2759,0.3038,0.3401,0.3871,0.4474,0.4776,0.4625,0.4998,0.5294,0.5294,0.8143,1.147,1.5227,1.7848,2.2399,2.8847,2.8511,2.9803,3.2463,3.2139,3.1904,3.1715,3.1685,3.1542,3.1297,3.0903,3.0134,2.9232,2.8838,2.8237,2.7478,2.6703,2.5831,2.5013,2.4451,2.4372,2.4502,2.4172,2.3777,2.3216,2.2547,2.2442,2.2398,2.16,2.1613,2.2001,2.2347,2.2275,2.236,2.3096,2.3282,2.3488,2.391,2.4092,2.4253,2.4724,2.5809,2.6797,2.7225,2.7879,2.8543,2.9102,2.9657,3.0149,3.0608,3.1249,3.1844,3.2317,3.2702,3.3068,3.3364,3.3382,3.3382,3.3393,3.3334,3.3334,3.3411,3.3382,3.3382,3.3393,3.2894,3.255,3.2382,0.0,0.0,0.0,0.0,0.0,0.0,0.0,0.0,0.0,0.0,0.0,0.0,0.0,0.0,0.0,0.0,0.0,0.0,0.0,0.0,0.0,0.0,0.0,0.4244,0.3554,0.2825,0.2809,0.2108,0.1936,0.2728,0.2608,0.2674,0.3049,0.3837,0.4224,0.3752,0.4462,0.4937,0.4937,0.5157,0.9926,1.9589,2.0036,2.5102,3.4749,3.387,3.3486,3.3563,3.2539,3.1768,3.1279,3.1531,3.1345,3.0826,3.0451,3.0264,3.0251,3.005,2.9338,2.8302,2.7437,2.6265,2.4997,2.3997,2.4103,2.4566,2.4246,2.4009,2.3817,2.3485,2.299,2.2441,2.203,2.1933,2.2074,2.2837,2.2681,2.2472,2.3204,2.2932,2.2482,2.2211,2.2616,2.2955,2.2652,2.4315,2.5863,2.639,2.7312,2.8094,2.8323,2.8965,0.0,3.0269,3.0704,3.1274,3.2162,3.2535,3.2908,3.3334,3.3292,3.3292,3.3364,3.3196,3.3165,3.3364,3.3322,3.3292,3.3316,3.2636,3.2022,3.1556,0.0,0.0,0.0,0.0,0.0,0.0,0.0,0.0,0.0,0.0,0.0,0.0,0.0,0.0,0.0,0.0,0.0,0.0,0.0,0.0,0.0,0.0,0.2034,0.3103,0.2389,0.193,0.2507,0.1862,0.1625,0.2117,0.2493,0.2644,0.2429,0.3054,0.3365,0.3051,0.3129,0.3443,0.4146,0.4611,0.6687,1.0522,1.4212,1.9133,2.5295,2.8278,3.1061,3.358,3.3352,3.2983,3.2575,3.2651,3.2611,3.2439,3.2026,3.1833,3.1545,2.9868,2.8827,2.8226,2.7452,2.645,2.5409,2.5213,2.5027,2.4875,2.478,2.4367,2.3817,2.3382,2.3125,2.2821,2.2312,2.2488,2.2841,2.3183,2.284,2.2444,2.2761,2.2359,2.199,2.2359,2.2237,2.2286,2.3062,2.3408,2.3865,2.5134,2.624,2.7056,2.7399,2.8273,0.0,2.9164,2.9536,3.0152,3.1043,3.1219,3.1573,3.2334,3.2351,3.2369,3.2385,3.2621,3.2784,3.288,3.288,3.2484,3.1683,3.1756,3.1408,0.0,0.0,0.0,0.0,0.0,0.0,0.0,0.0,0.0,0.0,0.0,0.0,0.0,0.0,0.0,0.0,0.0,0.0,0.0,0.0,0.0,0.0,0.0942,0.0863,0.1646,0.1411,0.1333,0.1962,0.1571,0.1415,0.1729,0.2119,0.2117,0.1726,0.2352,0.2585,0.2349,0.2504,0.2817,0.3205,0.4062,0.5935,0.9091,1.2439,1.7503,2.4132,2.6663,2.9821,3.3431,3.3364,3.3148,0.0,3.2781,3.2716,3.2586,3.2109,3.1878,0.0,0.0,0.0,0.0,0.0,2.6213,2.5553,2.5334,2.5286,2.5241,2.4912,2.4559,2.4161,2.3716,2.3163,2.2682,2.2648,2.2635,2.275,2.2944,2.2506,2.2051,2.1916,2.1416,2.1112,2.1479,2.1227,2.1227,2.2077,2.2163,0.0,2.3454,2.484,2.5932,2.6308,2.7115,2.7803,2.8209,2.8529,2.922,3.0549,3.0727,3.1043,3.1914,3.195,0.0,0.0,0.0,3.23,3.2385,3.2316,0.0,0.0,0.0,3.0597,2.9636,0.0,0.0,0.0,2.9291,2.8802,0.0,0.0,0.0,0.0,0.0,0.0,0.0,0.0,0.0,0.0,0.0,0.0,0.0,0.0,0.0,0.0,0.0,-0.0079,0.0236,0.0628,0.0943,0.1257,0.1335,0.1414,0.165,0.165,0.1415,0.0943,0.1569,0.1725,0.1411,0.0,0.0,0.0,0.0,0.6752,1.2132,1.3903,1.9105,2.7759,2.8058,2.9953,3.3194,3.2916,3.2716,3.2555,3.2335,3.2179,3.2003,3.1376,3.0988,3.0828,3.0427,2.9832,2.8968,2.6914,2.5997,2.5682,2.5038,0.0,0.0,2.481,2.4627,2.4624,2.4176,2.3207,2.2298,2.2811,2.2555,2.2163,2.2298,2.1928,2.1428,2.1049,2.0473,2.0107,2.0042,2.0042,2.0172,2.0506,2.1008,2.1451,2.1815,2.3513,2.4854,2.5217,2.5755,2.6424,2.7274,2.756,2.8388,3.0145,0.0,0.0,3.1588,3.1571,3.1551,3.1679,3.1568,3.1568,3.1752,3.1591,3.1257,3.079,3.0328,2.9636,2.8606,2.8432,2.8012,2.7335,2.8762,2.8823,0.0,0.0,0.0,0.0,0.0,0.0,0.0,0.0,0.0,0.0,0.0,0.0,0.0,0.0,0.0,0.0471,0.0236,0.0236,0.0314,0.0393,0.0707,0.149,0.1568,0.1647,0.204,0.1963,0.165,0.1257,0.055,0.0078,-0.0157,-0.0157,0.0078,0.0704,0.3041,0.6888,1.2132,1.7637,2.3017,2.8138,0.0,0.0,3.3194,3.288,3.2583,3.2352,3.202,3.202,3.2162,3.1414,3.0444,2.9512,2.9483,2.9207,2.8668,2.7692,2.7071,2.6754,2.6292,2.6079,2.5926,2.5287,2.4925,2.4567,2.4047,2.3399,0.0,2.2421,2.2175,2.2101,2.2175,2.1678,2.1187,2.106,2.0549,2.0042,1.9736,1.9671,1.9868,2.0506,2.07,2.1019,2.1753,2.2917,2.391,2.4355,2.4939,2.5549,2.6079,2.6573,2.7232,2.8051,2.8513,2.8995,2.9597,2.9657,2.9641,2.9641,3.0067,3.0344,3.0385,3.0492,3.0219,2.948,2.9041,2.8607,2.8137,2.763,2.7174,2.6841,2.7384,2.747,0.0,0.0,0.0,0.0,0.0,0.0,0.0,0.0,0.0,0.0,0.0,0.2036,0.1645,0.0,0.0863,0.0236,0.0079,0.0079,0.0236,0.0236,0.0549,0.1489,0.1568,0.1647,0.1727,0.1412,0.102,0.0392,-0.0392,-0.0863,-0.1098,-0.0864,-0.0628,-0.0314,0.2029,0.4535,0.6995,1.4082,1.9513,2.3302,2.8457,3.1636,3.2991,3.2663,3.2401,3.2179,3.1691,3.1542,3.1565,3.0771,2.9908,2.909,2.8951,2.8622,2.8189,2.7675,2.7306,2.6967,2.6616,2.6312,2.5839,2.5021,2.4624,2.4337,2.3471,2.2871,2.2445,2.2113,2.1803,2.1553,2.1175,2.1123,2.0933,2.0226,2.0096,1.9977,1.9462,1.9473,1.9736,2.0237,2.0506,2.0828,2.1463,2.1854,2.2445,2.3636,2.4034,2.454,2.5314,2.5906,2.6573,2.7419,2.7981,2.8543,2.9028,2.9074,2.9074,2.9074,2.948,2.9713,2.9713,2.9504,2.9207,2.8826,2.8255,2.7745,2.7372,2.7034,2.6721,2.6365,2.619,2.6068,0.0,0.0,0.0,0.0,0.0,0.0,0.0,0.0,0.4144,0.3283,0.2581,0.1879,0.1176,0.0549,0.0157,0.0157,-0.0079,-0.0079,0.0471,0.0236,0.0392,0.1333,0.1412,0.1333,0.1178,0.0706,0.0157,-0.047,-0.1253,-0.1801,-0.1958,-0.1489,-0.1256,-0.1256,0.0859,0.2526,0.3681,0.9987,1.5112,1.9011,2.4733,2.8936,3.1691,3.2224,3.2368,3.2109,3.1449,3.1078,3.0861,3.0011,2.9438,2.9028,2.8574,2.8155,2.779,2.7539,2.7152,2.673,2.6428,2.6082,2.555,2.458,2.4292,2.4118,2.3138,2.2457,2.2075,2.1939,2.1502,2.1008,2.042,2.0613,2.0677,1.9715,1.9781,1.9966,1.9396,1.9407,1.9605,2.0042,2.0302,2.0635,2.1094,2.0903,2.1262,2.2896,2.3138,2.3497,2.4549,2.5258,2.5986,2.6909,2.747,2.7981,2.8417,2.8465,2.8465,2.8465,2.8701,2.8826,2.8826,2.8449,2.8225,2.8225,2.7479,2.6893,2.6496,2.6336,2.6082,2.5715,2.4978,2.4765,0.0818,-0.14,-0.1092,-0.2968,-0.1952,-0.0468,0.0,0.0,0.2194,0.2116,0.1255,0.0549,0.0393,0.0079,0.0,0.0705,0.0157,0.0078,0.1254,0.0785,0.0393,0.0707,0.0707,0.0707,0.0707,0.0157,-0.0235,-0.0313,-0.2111,-0.3203,-0.3203,-0.3519,-0.3365,-0.2584,-0.0234,0.3932,0.9916,1.2117,1.59,2.1281,2.5601,2.7668,2.7775,3.1417,3.2787,3.2231,3.1452,3.0902,3.0468,2.9572,2.9166,2.9028,2.8204,2.784,2.779,2.7625,2.7056,2.6197,2.5849,2.5453,2.4991,2.4266,2.415,2.4176,2.3446,2.3053,2.2653,2.2075,2.1502,2.106,2.0996,2.0613,2.0291,2.0741,2.0484,2.0096,1.9977,1.9528,1.933,1.9977,2.0096,2.0366,2.1094,2.1158,2.1348,2.1939,2.2187,2.2555,2.345,2.4478,2.516,2.5258,2.5728,2.6094,2.6147,2.6201,2.6201,2.6201,2.6573,2.6797,2.6797,2.7108,2.7261,2.7261,2.64,2.5957,2.5903,2.4993,2.458,2.4465,2.3682,2.393,-0.2328,-0.3428,0.0,0.0,-0.2109,-0.0624,-0.0313,0.1253,0.2353,0.1334,0.1177,0.102,0.0236,0.0628,0.0941,0.0,0.0471,0.0392,0.0785,0.0157,-0.0314,0.0,-0.0549,-0.0941,-0.0705,-0.1096,-0.1799,-0.2812,-0.3906,-0.438,-0.4146,-0.4146,-0.3754,-0.2974,-0.1719,0.0449,0.3639,0.8681,1.2445,1.5118,2.1211,2.5062,2.6822,2.8313,2.9862,3.1338,3.0902,3.0276,2.952,2.8841,2.8227,2.7575,2.6975,2.6953,2.7342,2.776,2.7159,2.6051,2.5983,2.5301,2.4323,2.3669,2.3505,2.3386,2.2347,2.2384,2.2543,2.1428,2.1428,2.1491,2.0741,2.0613,2.0549,2.0031,2.0291,2.0484,1.9715,1.977,2.0031,2.0096,2.0237,2.056,2.1094,2.1031,2.1019,2.14,2.2002,2.2616,2.333,2.4319,2.5118,2.5425,2.5687,2.5783,2.5783,2.596,2.6068,2.6068,2.6481,2.6587,2.6201,2.624,2.6065,2.5741,2.5259,2.4993,2.4937,2.4553,2.4408,2.4292,2.3446,2.3386,-0.4277,0.0,0.0,-0.3597,-0.2186,-0.0624,0.0078,0.1489,0.2277,0.1099,0.1412,0.1412,0.0236,0.0785,0.1255,0.0785,0.0471,0.0392,0.0392,-0.0314,-0.0785,-0.0785,-0.1648,-0.2272,-0.2422,-0.2657,-0.3513,-0.5212,-0.5915,-0.6297,-0.6513,-0.5748,-0.498,-0.4278,-0.3279,-0.219,-0.0939,0.4558,0.7761,0.8733,1.5411,2.0701,2.47,2.6794,2.9007,3.1116,3.0601,2.9995,2.9265,2.8825,2.8036,2.6975,2.6605,2.6544,2.673,2.7429,2.6938,2.5957,2.5821,2.4995,2.3904,2.3327,2.3088,2.2895,2.1928,2.1951,2.2161,2.1302,2.1416,2.153,2.0794,2.0741,2.0613,1.9846,2.0096,2.0355,1.9781,1.9901,2.0215,2.0355,2.0431,2.0635,2.1094,2.0967,2.0828,2.1158,2.1877,2.2555,2.2957,2.3897,2.4708,2.5077,2.5119,2.5063,2.4924,2.5204,2.5384,2.5384,2.5755,2.5795,2.5356,2.5301,2.5022,2.4526,2.4381,2.4221,2.4047,2.3989,2.3813,2.3505,2.2847,2.247,-0.3659,0.0,-0.32,-0.46,-0.3124,-0.1018,-0.0157,0.0706,0.1414,0.1568,0.1568,0.1254,0.0236,0.0157,0.0471,0.0862,0.0235,-0.0078,0.0549,-0.0078,-0.1021,-0.2038,-0.2195,-0.282,0.0,-0.4457,-0.5063,-0.6779,-0.7929,-0.929,-1.0985,-0.9275,-0.7921,-0.7303,-0.4743,-0.2031,0.0779,0.1084,0.2313,0.4617,0.8943,1.4038,1.9908,2.8354,3.2272,3.2287,3.096,3.0359,3.0316,2.9941,2.9148,2.8132,2.7709,2.6916,2.6065,2.6172,2.6119,2.5903,2.5022,2.4412,2.3904,2.3327,2.3088,2.3088,2.3027,2.2298,2.1577,2.2161,2.1616,2.1014,2.1678,2.0996,2.0291,2.0869,2.0107,1.9528,2.0741,2.0031,1.9518,2.0805,2.0549,2.0366,2.1094,2.1158,2.1158,2.1221,2.1577,2.1939,2.1939,2.2836,2.3463,2.345,2.345,2.3258,2.2713,2.2871,2.3017,2.3017,2.3471,2.3682,2.3695,2.4105,2.4221,2.4021,2.3917,2.3669,2.3314,2.2957,2.2285,2.1514,2.125,2.0805,-0.5226,0.0,-0.5148,-0.5315,-0.4064,-0.2501,-0.1642,-0.047,0.0392,0.0314,0.0785,0.1099,0.0863,0.1098,0.1412,0.1568,0.0941,0.0157,-0.0705,-0.0706,-0.1177,-0.2821,-0.3742,0.0,0.0,0.0,0.0,-0.817,-0.9739,-1.0775,-1.1058,-1.0683,-1.0228,-0.9537,-0.8791,-0.7785,-0.6368,-0.3349,-0.1296,0.0,0.6764,1.2984,1.8706,2.4247,2.8903,3.254,3.1636,3.0857,3.0128,2.9496,2.8576,2.7534,2.6688,2.6352,2.6289,2.5412,2.5273,2.5481,2.467,2.3833,2.3078,2.2653,2.2469,2.2408,2.1939,2.1628,2.1325,2.1049,2.0899,2.076,2.0537,2.0613,2.0613,1.9911,2.0096,2.0302,1.9846,1.9781,1.9846,2.0053,2.0107,2.0237,2.07,2.1031,2.1285,2.1639,2.1827,2.2002,2.2298,2.2677,2.2859,2.2859,2.2859,2.2871,2.2823,2.3053,2.322,2.3352,2.3695,2.3682,2.3267,2.3505,2.3446,2.2932,2.2677,2.2482,2.2359,2.1678,2.1175,2.0858,2.0549,2.0291,0.0,-0.6454,-0.6083,-0.5702,-0.4375,-0.2971,-0.219,-0.1096,-0.0235,-0.0392,0.0628,0.1412,0.1254,0.1646,0.196,0.1882,0.1254,0.0314,-0.0863,-0.133,-0.2184,-0.3744,-0.5493,-0.7007,0.0,0.0,0.0,-1.0638,-1.1678,-1.2804,-1.3924,-1.2834,-1.2387,-1.2707,-1.1557,-1.0625,-0.9985,-0.7232,-0.4902,-0.3095,0.5304,1.1163,1.4728,1.9082,2.4292,2.9833,2.9136,2.9485,3.0586,3.0103,2.9118,2.7799,2.7089,2.6622,2.6193,2.526,2.4937,2.4851,2.4182,2.3564,2.2896,2.2371,2.2197,2.2061,2.1325,2.0996,2.0869,2.0473,2.0322,2.0322,2.0226,2.0613,2.0805,1.9715,2.0107,2.0484,1.9649,1.9584,1.9781,1.9911,2.0042,2.0237,2.0571,2.0903,2.1285,2.1577,2.1639,2.1877,2.2543,2.2482,2.2359,2.2359,2.2433,2.2445,2.2347,2.2616,2.2859,2.298,2.322,2.322,2.2859,2.2774,2.2543,2.2149,2.1765,2.1565,2.1514,2.0996,2.0537,2.0204,1.9966,1.9639,-0.7639,-0.6889,-0.6224,-0.5761,-0.4292,-0.2738,-0.1881,-0.1175,-0.0705,-0.0627,0.1017,0.219,0.0,0.0,0.2117,0.196,0.102,0.0236,0.0,-0.2022,-0.3789,0.0,0.0,0.0,0.0,0.0,0.0,-1.4253,0.0,-1.5696,-1.9263,-1.5825,-1.4727,-1.6817,-1.3371,-1.1161,-1.0548,-1.0469,-0.8606,-0.4947,0.3882,0.8066,0.8159,1.3295,1.8821,2.4362,2.3556,2.6038,3.0703,3.1179,3.0285,2.8618,2.8928,2.7758,2.5997,2.5889,2.5203,2.4249,2.3903,2.3734,2.3458,2.2543,2.2247,2.2111,2.1388,2.0677,2.0161,2.0302,1.9966,1.9759,2.056,2.088,2.0869,2.0226,2.0107,2.0107,2.0042,1.9584,1.9386,2.0398,2.0344,2.0302,2.0571,2.0967,2.1221,2.1221,2.1221,2.1526,2.2421,2.2113,2.1877,2.1877,2.2037,2.1987,2.1463,2.1726,2.1937,2.1961,2.2171,2.2296,2.2505,2.2023,2.1698,2.1698,2.1319,2.1088,2.0907,2.0907,2.0444,1.9637,1.9438,1.8859,-0.8746,-0.8447,-0.7851,-0.6853,-0.6079,-0.5148,-0.36,-0.2978,-0.2271,-0.0705,0.0313,0.1328,0.0,0.0,0.0,0.2663,0.1254,0.0,-0.0392,-0.2256,0.0,-0.549,0.0,-1.1144,-1.3847,-1.5892,0.0,0.0,-1.995,-2.0169,-2.1113,-2.0375,-2.0194,-2.0754,-1.9802,-1.871,-1.7549,-1.4297,-1.1153,-0.806,-0.3379,0.0965,0.4967,0.8693,1.3545,1.8932,1.8138,1.8374,1.97,2.3998,2.5314,2.4967,2.8993,3.019,2.9627,2.8824,2.779,2.6726,2.6394,2.5279,2.3826,2.31,2.2859,2.275,2.2099,2.1083,2.0096,2.0161,1.9518,1.8798,1.9065,1.9715,2.0161,1.9518,1.9715,1.9977,1.9462,1.9407,1.966,2.0268,2.073,2.1071,2.1031,2.1094,2.1221,2.1221,2.1221,2.1285,2.1526,2.1463,2.1411,2.1411,2.1526,2.16,2.1624,2.1812,2.2154,2.2687,2.2775,2.3019,2.3587,2.36,2.3393,2.2977,2.2425,2.1902,2.1325,2.0717,2.017,1.9818,1.9586,1.9302,-0.4867,-0.5191,-0.5122,-0.6992,-0.7076,-0.6227,-0.399,-0.3134,-0.2271,-0.0235,0.0626,0.0,0.3283,0.0,0.0,0.0,0.0,0.0,-0.2869,-0.4783,-0.6817,0.0,-1.1722,0.0,-1.6987,-1.9243,-2.1234,0.0,-2.2042,-2.2328,-2.4012,-2.3153,-2.3197,-2.4517,-2.3876,-2.2604,-2.0715,-1.6917,-1.3684,-1.1002,-0.7838,-0.4189,-0.0125,0.1719,0.6379,1.2979,0.0,1.3506,1.5896,2.1736,2.4081,2.4479,2.9685,3.1718,3.1583,3.0563,2.9493,2.8378,2.7625,2.6583,2.5396,2.3819,2.3391,2.328,2.2097,2.1198,2.0613,2.0409,1.9704,1.9065,1.9198,1.9649,1.9911,1.9264,1.9584,1.9977,1.9396,1.9473,1.9726,2.0291,2.0752,2.1083,2.1158,2.1221,2.1221,2.1221,2.1221,2.1221,2.1273,2.1273,2.1273,2.1273,2.1474,2.1663,2.1749,2.2151,2.2528,2.2955,2.3195,2.3591,2.4144,2.3616,2.3258,2.3021,2.2127,2.1457,2.0998,2.0512,2.0237,2.0031,1.9805,1.965,0.1117,-0.0067,-0.0891,-0.5551,-0.6794,-0.6063,-0.3517,-0.2507,-0.1488,0.0547,0.0,0.2193,0.3283,0.1163,-0.0771,-0.0847,0.0,-0.5609,-0.6115,-0.816,-1.0437,-1.26,-1.5941,-1.8516,-1.9469,-2.2514,-2.4211,-2.373,-2.2639,-2.3459,-2.6804,-2.4861,-2.4847,-2.7503,-2.6012,-2.4188,-2.1996,-1.8967,-1.6373,-1.4112,-1.0846,-0.8222,-0.6235,-0.5862,-0.1379,0.6156,0.6129,0.0,1.3898,1.9879,2.3047,2.4596,2.9571,3.2107,3.2906,3.1929,3.0888,2.9803,2.8708,2.8096,2.7357,2.4692,2.3967,2.3804,2.2084,2.1574,2.1458,2.105,2.0478,2.0029,2.0227,2.0227,1.9952,1.9368,1.9613,1.9987,1.9615,1.9671,1.9922,2.0571,2.0764,2.0892,2.1158,2.1221,2.1221,2.1221,2.1221,2.1285,2.14,2.1388,2.1388,2.1463,2.1726,2.1961,2.2032,2.2651,2.3039,2.3042,2.355,2.4026,2.4365,2.3131,2.257,2.28,2.1431,2.0679,2.0607,2.0607,2.0545,2.0349,2.0204,1.9985,0.3813,0.1547,-0.036,0.0221,-0.2425,-0.4518,-0.2347,-0.1643,0.0,0.0,0.1563,0.2345,0.3752,0.2575,0.0933,-0.0463,0.0,0.0,0.0,0.0,-1.2586,0.0,0.0,0.0,0.0,0.0,0.0,0.0,0.0,-2.5994,-2.6931,-2.668,-2.6769,-2.7425,-2.5969,-2.497,-2.4556,-2.139,-1.9586,-1.908,-1.4714,-1.255,-1.2199,-0.9891,-0.673,-0.3116,-0.3254,0.0,0.1607,0.762,1.3545,1.9399,2.4422,3.0161,3.5532,3.4597,3.3499,3.2431,3.2189,3.0696,2.8429,2.6166,2.5001,2.4543,2.4213,2.3346,2.2509,2.2576,2.1777,2.0893,2.1058,2.0722,2.0229,1.9796,1.9781,1.9735,1.9281,1.9966,2.0741,2.1031,2.1388,2.1577,2.1221,2.1221,2.1221,2.1336,2.14,2.1411,2.1624,2.1474,2.1463,2.1624,2.1812,2.2103,2.2531,2.2855,2.3078,2.3306,2.3997,2.4441,2.4649,2.4378,2.4153,2.3856,2.3021,2.2232,2.1569,2.1569,2.1494,2.1277,2.1277,2.105,0.7527,0.5139,0.2974,0.1259,-0.1522,-0.3181,-0.039,0.0,0.0,0.0,0.2345,0.2113,0.3365,0.1168,0.0,0.0,0.0,0.0,0.0,0.0,0.0,0.0,0.0,0.0,0.0,0.0,0.0,0.0,0.0,-2.7773,-2.8181,-2.842,-2.8592,-2.8654,-2.8013,-2.7016,-2.5653,-2.416,-2.2303,-2.0092,-1.7903,-1.5687,-1.361,-1.2257,-1.0132,-0.7505,-0.617,0.0,-0.3163,0.4228,0.9596,1.3656,1.8411,2.4885,3.1429,3.0232,3.1602,3.3921,3.3077,3.1347,2.9247,2.8016,2.6704,2.5382,2.4455,2.403,2.3886,2.3592,2.2977,2.2286,2.1931,2.1457,2.0854,2.0222,2.025,2.0407,2.0392,2.0986,2.1525,2.156,2.1776,2.1765,2.14,2.1273,2.1336,2.1549,2.1549,2.1612,2.1749,2.1737,2.1726,2.1812,2.2186,2.2575,2.2827,2.3406,2.372,2.3584,2.4143,2.4614,2.485,2.407,2.3768,2.4108,2.2979,2.2176,2.1807,2.1807,2.1731,2.1655,2.1578,2.1645,1.0801,0.8351,0.6143,0.2239,-0.0535,-0.1704,0.0857,0.0781,0.0,0.2965,0.2267,0.1567,0.2348,0.0,-0.2644,0.0,-0.7281,0.0,0.0,0.0,0.0,0.0,0.0,0.0,0.0,0.0,0.0,0.0,0.0,0.0,-2.8973,-2.9122,-2.9211,-2.9211,-2.9343,-2.8419,-2.6258,-2.606,-2.4091,-2.0389,-2.0081,-1.7952,-1.4371,-1.4433,-1.302,-1.0294,-0.8161,0.0,0.0,0.1854,0.6449,0.9469,1.2711,1.9397,2.7031,2.5734,2.9339,3.4706,3.3454,3.1566,2.9703,2.9421,2.7981,2.6047,2.4651,2.4793,2.5239,2.4541,2.4073,2.3576,2.3029,2.2335,2.162,2.0873,2.086,2.1161,2.1581,2.1959,2.2143,2.2154,2.2145,2.2009,2.1713,2.1626,2.1666,2.171,2.1761,2.1824,2.1937,2.1937,2.1937,2.1937,2.2603,2.3027,2.3135,2.4001,2.436,2.391,2.4294,2.4576,2.4719,2.3559,2.3338,2.412,2.2745,2.2035,2.2035,2.1873,2.1883,2.2025,2.1883,2.2241,1.2303,0.9542,0.676,0.6455,0.321,0.0,-0.0078,0.0,-0.0157,-0.0625,-0.0156,0.047,0.0548,0.0235,-0.0469,-0.1937,0.0,-0.8403,0.0,0.0,0.0,0.0,0.0,0.0,0.0,0.0,0.0,0.0,0.0,0.0,-2.803,-2.753,-2.7255,-2.7255,-2.7393,-2.7327,-2.7108,-2.5762,-2.4089,-2.2092,-2.0734,-1.902,-1.7148,-1.7413,-1.5939,-1.317,-1.3219,0.0,0.0,-0.4813,0.0856,0.931,0.8396,1.5915,2.707,2.609,2.9627,3.4899,3.4723,3.2444,2.954,2.9508,2.7937,2.6177,2.6561,2.6468,2.6127,2.5599,2.4956,2.4447,2.472,2.3643,2.2455,2.1732,2.1296,2.121,2.1998,2.2183,2.2355,2.2819,2.2919,2.2799,2.2474,2.2392,2.2303,2.1945,2.1874,2.1937,2.2135,2.2185,2.2185,2.2185,2.2666,2.3183,2.3664,2.4353,2.4654,2.4316,2.4541,2.442,2.3963,2.3841,2.3913,2.4108,2.3276,2.2927,2.2927,2.2176,2.2176,2.2927,2.2852,2.3191,0.7701,0.6118,0.4607,0.5609,0.3172,0.0703,0.1409,0.0,-0.0156,-0.0156,-0.0078,-0.0313,-0.1246,-0.1719,-0.2267,-0.3341,-0.6428,0.0,-1.207,0.0,0.0,0.0,0.0,0.0,0.0,0.0,0.0,0.0,0.0,0.0,-2.8181,-2.7232,-2.6774,-2.7012,-2.6692,-2.6563,-2.6669,-2.6172,-2.5011,-2.3341,-2.3114,-2.1396,-1.8422,-1.9017,-1.8081,-1.5939,-1.4566,0.0,0.0,-0.699,-0.3217,0.0514,0.1281,0.7077,1.5389,1.8668,2.3758,2.9572,3.3558,3.2498,2.9554,2.9911,2.8157,2.5824,2.5134,2.5639,2.6139,2.4992,2.4945,2.5028,2.4311,2.3139,2.2134,2.2094,2.1977,2.2058,2.2867,2.3128,2.3248,2.3398,2.3494,2.349,2.3155,2.3119,2.3007,2.2611,2.2528,2.2483,2.2234,2.2197,2.2197,2.2197,2.2955,2.361,2.3869,2.4735,2.5153,2.4767,2.442,2.4131,2.3963,2.3106,2.2905,2.3423,2.2692,2.2252,2.2252,2.2478,2.2703,2.3001,2.3497,2.4059,0.3262,0.2806,0.2343,0.3117,0.1715,0.0312,0.0,0.0,-0.1249,-0.1243,-0.1325,-0.1797,-0.2953,-0.3352,-0.3595,-0.4051,-0.712,-0.968,-1.0501,0.0,0.0,0.0,0.0,0.0,0.0,0.0,0.0,0.0,0.0,0.0,0.0,-2.6695,-2.6293,-2.7208,-2.6558,-2.6176,-2.6068,-2.6457,-2.559,-2.358,-2.4186,-2.2561,-1.8859,-1.9435,-1.893,-1.7491,-1.5713,0.0,0.0,-0.9443,-0.7441,-0.6563,-0.4064,0.052,0.6566,1.3595,2.0077,2.623,3.2696,3.2498,2.9554,3.0044,2.8093,2.5217,2.3801,2.4564,2.5755,2.4469,2.4707,2.5028,2.3813,2.2927,2.2402,2.2703,2.2777,2.2927,2.3604,2.389,2.3979,2.3921,2.4127,2.4114,2.3811,2.3776,2.3676,2.3292,2.322,2.3087,2.2702,2.2718,2.2718,2.2718,2.3591,2.4129,2.4025,2.5066,2.5676,2.5382,2.4731,2.436,2.442,2.3401,2.2979,2.335,2.2756,2.2392,2.2176,2.2478,2.2777,2.3001,2.3768,2.4636,0.031,0.0467,0.0468,-0.0312,-0.0703,-0.1328,0.0,0.0,-0.3756,-0.5231,-0.4766,-0.4219,-0.4598,-0.413,-0.3663,-0.3428,-0.5354,-0.761,-0.9783,0.0,0.0,0.0,0.0,0.0,0.0,0.0,0.0,0.0,0.0,0.0,0.0,-2.5616,-2.5522,-2.7635,-2.6901,-2.6229,-2.5618,-2.6539,-2.5522,-2.2506,-2.328,-2.1836,-1.8526,-1.867,-1.8152,0.0,0.0,0.0,0.0,-1.3331,-1.2017,-0.9617,-0.6446,-0.1857,0.4079,1.3287,2.0547,2.6677,3.2764,3.2498,2.954,2.9734,2.7563,2.4574,2.315,2.3902,2.5087,2.4325,2.4409,2.4492,2.3582,2.3446,2.3593,2.3604,2.3604,2.3666,2.4116,2.4189,2.4261,2.4478,2.4634,2.4684,2.435,2.4381,2.4338,2.3833,2.3761,2.3761,2.3749,2.3869,2.4001,2.4001,2.4621,2.4811,2.4062,2.5364,2.6213,2.6213,2.5606,2.5312,2.5312,2.5241,2.4862,2.4108,2.4108,2.3694,2.3001,2.2187,2.2252,2.3001,2.3768,2.4992,-0.2714,-0.2752,-0.2787,-0.2865,-0.3335,-0.3736,-0.4053,-0.4905,-0.5906,-0.6678,-0.5915,-0.5532,-0.7,-0.623,-0.569,-0.6461,-0.7234,-0.8214,0.0,0.0,0.0,0.0,0.0,0.0,0.0,0.0,0.0,0.0,0.0,0.0,0.0,-2.5574,-2.5479,-2.5895,-2.4898,-2.4341,-2.4368,-2.4654,-2.4469,-2.3715,-2.3502,-2.2455,-2.0703,-1.9609,-1.8787,0.0,0.0,0.0,0.0,-1.4279,-1.3276,-1.2389,-0.7177,-0.4634,-0.2142,1.1744,1.7812,2.0599,3.1133,3.2106,2.8778,2.9391,2.7039,2.3852,2.3446,2.4009,2.4707,2.4564,2.448,2.442,2.4131,2.3644,2.3224,2.3519,2.3593,2.3677,2.4116,2.4418,2.4766,2.53,2.5652,2.5894,2.5778,2.5753,2.5431,2.443,2.4425,2.4359,2.3996,2.4091,2.4222,2.4222,2.4834,2.5215,2.4975,2.571,2.627,2.6396,2.5746,2.5312,2.5312,2.4779,2.4337,2.4108,2.4108,2.3975,2.3768,2.407,2.4576,2.5382,2.5652,2.6013,-0.5491,-0.5613,-0.5564,-0.518,-0.5579,-0.5906,-0.5449,0.0,-0.7218,-0.7681,-0.7145,-0.7073,-0.8394,-0.8003,-0.7621,-0.8097,-0.8632,0.0,0.0,0.0,0.0,0.0,0.0,0.0,0.0,0.0,0.0,0.0,0.0,0.0,0.0,-2.4673,-2.4547,-2.4349,-2.391,-2.3539,-2.3433,-2.3774,-2.3846,-2.359,-2.3462,-2.277,-2.1495,-2.052,-1.9435,0.0,0.0,0.0,0.0,-1.5627,-1.5292,-1.5319,-1.0444,-0.8404,-0.6331,0.9249,1.553,1.8027,3.0402,3.2557,2.9739,2.9765,2.7013,2.3683,2.3508,2.3875,2.4288,2.3902,2.4192,2.4492,2.436,2.3875,2.353,2.3751,2.3897,2.397,2.4273,2.4754,2.5312,2.5685,2.6308,2.6799,2.6799,2.6676,2.6289,2.5531,2.5494,2.5382,2.4792,2.5078,2.529,2.5036,2.5468,2.5802,2.5802,2.6127,2.6396,2.6465,2.6025,2.5734,2.5734,2.5288,2.485,2.4564,2.4564,2.4409,2.4108,2.4636,2.5288,2.6025,2.6025,2.6245,0.0,-0.8101,-0.7947,-0.7214,-0.7532,-0.7842,-0.7318,-0.7468,0.0,-0.8546,-0.8618,-0.8685,-0.9074,-0.9372,-0.9296,-0.8475,-0.9533,0.0,0.0,0.0,0.0,0.0,0.0,0.0,0.0,0.0,0.0,0.0,0.0,0.0,0.0,-2.3017,-2.2763,-2.2871,-2.3467,-2.3454,-2.2701,-2.3487,-2.3335,-2.2223,-2.2907,-2.2445,-2.1014,-2.0917,-1.9814,0.0,0.0,0.0,0.0,-1.7107,-1.7558,-1.7862,-1.4997,-1.2361,-0.8421,0.618,1.3739,1.8357,3.0011,3.3225,3.1827,3.0295,2.7249,2.4047,2.3434,2.3706,2.3891,2.2798,2.3599,2.4719,2.4406,2.4261,2.4261,2.42,2.4345,2.449,2.4502,2.5158,2.5824,2.5881,2.6761,2.7432,2.7498,2.7245,2.6934,2.6921,2.6867,2.6676,2.6037,2.6701,2.6905,2.6339,2.6396,2.6533,2.6533,2.6533,2.6533,2.6533,2.6533,2.6533,2.6533,2.6533,2.6164,2.5382,2.5382,2.5004,2.4264,2.4264,2.4636,2.5382,2.5382,2.5816,-0.926,0.0,-0.899,-0.9697,-0.99,-0.9825,0.0,-1.0201,0.0,0.0,0.0,-0.9895,-1.0282,-0.9458,-0.8546,-0.8237,0.0,0.0,0.0,0.0,0.0,0.0,0.0,0.0,0.0,0.0,0.0,0.0,0.0,0.0,0.0,-2.1756,-2.0946,-2.0756,-2.0072,-2.0339,-2.1518,-2.0905,-2.0534,-2.0386,-1.9629,-1.9684,-2.0417,-1.7958,-1.7239,0.0,0.0,0.0,-1.6114,-1.689,-1.6501,-1.5161,-1.1564,-0.9286,-0.6468,0.4881,1.2227,1.7606,2.5144,2.9211,3.0678,2.7823,2.5921,2.4576,2.3434,2.379,2.442,2.3672,2.4624,2.5721,2.517,2.4957,2.4743,2.449,2.449,2.4562,2.4718,2.5111,2.5767,2.6828,2.7511,2.8038,2.8542,2.8103,2.7524,2.6989,2.6564,2.6508,2.6837,2.6782,2.6782,2.7162,2.6782,2.6533,2.6533,2.6533,2.6533,2.6533,2.6533,2.6533,2.6533,2.6533,2.6383,2.6245,2.6245,2.6094,2.5943,2.5943,2.6013,2.6245,2.6245,2.6314,-0.9513,-1.0078,-1.0333,-1.0822,-1.0962,-1.0962,-1.0663,-1.1111,0.0,0.0,0.0,-1.0726,-1.1111,-1.0726,0.0,0.0,0.0,0.0,0.0,0.0,0.0,0.0,0.0,0.0,0.0,0.0,0.0,0.0,0.0,0.0,0.0,-2.1729,-2.0905,-2.0094,-1.9062,-1.8874,-1.9619,-1.9323,-1.9201,-1.9465,-1.8803,-1.9058,-1.9836,-1.7813,-1.7151,0.0,0.0,0.0,-1.57,-1.6193,-1.5434,-1.3689,-1.2182,-0.9365,-0.5328,0.2167,0.8039,1.3533,2.2262,2.7334,2.9695,2.8339,2.6413,2.442,2.3434,2.4227,2.5217,2.4181,2.5052,2.6151,2.5594,2.5465,2.5312,2.5016,2.5158,2.537,2.5535,2.6057,2.6773,2.7511,2.8182,2.8839,2.947,2.9156,2.8519,2.7855,2.7564,2.7443,2.7443,2.7242,2.7255,2.763,2.6985,2.6658,2.6739,2.6739,2.6671,2.6533,2.6533,2.6533,2.6533,2.6533,2.6533,2.6533,2.6533,2.6533,2.6533,2.6533,2.6533,2.6533,2.6533,2.6533,-0.9278,-1.0719,-1.1579,-1.1341,-1.1484,-1.1632,-1.1186,-1.1335,0.0,0.0,0.0,0.0,-1.1922,-1.2211,0.0,0.0,0.0,0.0,0.0,0.0,0.0,0.0,0.0,0.0,0.0,0.0,0.0,0.0,0.0,0.0,0.0,-2.1577,-2.0812,-1.9609,-1.8588,-1.7746,-1.721,-1.791,-1.8325,-1.8449,-1.8649,-1.8849,-1.8992,-1.8255,-1.7513,-1.6757,0.0,0.0,-1.5204,-1.5497,-1.453,-1.3057,-1.3587,-1.0434,-0.5004,-0.079,0.3504,0.8941,2.0935,2.7111,2.971,3.0105,2.7715,2.4565,2.3779,2.4802,2.6,2.4826,2.5475,2.6427,2.5816,2.5828,2.5886,2.5545,2.5951,2.6445,2.6471,2.7271,2.8051,2.8182,2.8839,2.956,3.0251,2.9931,2.9484,2.9044,2.8789,2.8532,2.8026,2.7894,2.7894,2.796,2.743,2.7108,2.7134,2.7134,2.7011,2.6602,2.6602,2.6533,2.6521,2.6521,2.6521,2.6533,2.6533,2.6533,2.6533,2.6533,2.6533,2.6533,2.6533,2.6533,-0.9339,-1.0725,-1.1866,-1.1857,-1.2003,-1.215,-1.2077,-1.2231,-1.2452,0.0,0.0,0.0,0.0,-1.2358,0.0,0.0,0.0,0.0,0.0,0.0,0.0,0.0,0.0,0.0,0.0,0.0,0.0,0.0,0.0,0.0,-2.0193,-1.8716,-1.7474,-1.6615,-1.5553,-1.4744,-1.4186,-1.5534,-1.6097,-1.5816,-1.6167,-1.6507,-1.6775,-1.5367,-1.495,-1.5171,0.0,-1.4034,-1.3897,-1.533,-1.4696,-1.268,-1.1077,-0.8993,-0.6317,-0.2364,0.2432,0.8783,2.1565,2.913,3.2784,3.0739,2.8836,2.6945,2.5063,2.5358,2.6346,2.6227,2.6663,2.6998,2.6107,2.6037,2.6013,2.5441,2.5906,2.6514,2.6786,2.7524,2.8376,2.8967,2.9373,2.9808,3.0568,3.019,2.9794,2.9827,2.8826,2.8312,2.8762,2.8312,2.8182,2.8762,2.8684,2.8427,2.7868,2.7868,2.755,2.6943,2.6943,2.6875,2.6658,2.6658,2.6589,2.6533,2.6533,2.6533,2.6533,2.6533,2.6533,2.6533,2.6533,2.6533,-0.9898,-1.0943,-1.1651,-1.1784,-1.2224,-1.2673,-1.2753,-1.3039,-1.3178,0.0,0.0,0.0,0.0,0.0,0.0,0.0,0.0,0.0,0.0,0.0,0.0,0.0,0.0,0.0,0.0,0.0,0.0,0.0,0.0,0.0,-1.8429,-1.79,-1.6858,-1.5379,-1.5138,-1.4386,-1.3046,-1.3905,-1.4482,-1.4697,-1.5046,-1.5321,-1.5534,-1.4178,-1.3897,-1.4258,0.0,-1.2952,-1.3528,-1.4322,-1.3541,-1.1653,-1.029,-0.8152,-0.5624,-0.328,0.3504,1.2504,1.9003,2.6593,3.3362,3.2707,3.0803,2.856,2.7092,2.7524,2.8302,2.718,2.6934,2.6985,2.6892,2.6564,2.622,2.6471,2.6909,2.7445,2.7604,2.8312,2.903,2.9435,2.9623,2.9931,3.0702,3.0642,3.0433,3.0176,2.9656,2.9219,2.9156,2.8903,2.8839,2.9156,2.9156,2.9079,2.8812,2.8812,2.8325,2.7079,2.7024,2.6943,2.6875,2.6863,2.6794,2.6589,2.6589,2.6589,2.6589,2.6589,2.6589,2.6589,2.6739,2.6671,-1.0408,-1.1179,-1.1512,-1.1656,-1.2157,-1.2673,-1.29,-1.3258,0.0,0.0,0.0,0.0,0.0,0.0,0.0,0.0,0.0,0.0,0.0,0.0,0.0,0.0,0.0,0.0,0.0,0.0,0.0,0.0,0.0,0.0,-1.6798,-1.6927,-1.6157,-1.4324,-1.4633,-1.4004,-1.2305,-1.2599,-1.3185,-1.3977,-1.4186,-1.4394,-1.4617,-1.3455,-1.3171,-1.3462,-1.2218,-1.2144,-1.2945,-1.3237,-1.2684,-1.1451,-1.0118,-0.7581,-0.4605,-0.3894,0.4819,1.6337,1.6825,2.4744,3.4623,3.4657,3.299,3.0703,2.9579,2.9854,3.0236,2.874,2.7969,2.7538,2.7591,2.7015,2.6688,2.7338,2.7855,2.8376,2.8661,2.9359,2.9931,2.9931,3.0007,3.0251,3.0821,3.1058,3.1014,3.0628,3.0433,3.0176,2.9732,2.967,2.967,2.967,2.9794,2.9842,2.9766,2.9518,2.8839,2.7603,2.7281,2.7079,2.7079,2.7079,2.7011,2.6794,2.6794,2.6794,2.6794,2.6794,2.6794,2.6794,2.6943,2.6875,-1.0474,-1.1319,-1.1903,-1.1774,-1.1706,-1.1855,-1.2003,-1.2526,0.0,-1.3615,0.0,0.0,0.0,0.0,0.0,0.0,0.0,0.0,0.0,0.0,0.0,0.0,0.0,0.0,0.0,0.0,0.0,0.0,0.0,0.0,-1.5376,-1.4649,-1.3795,-1.2813,-1.2439,-1.1922,-1.1186,-1.1409,-1.2003,-1.2973,-1.3193,-1.3477,-1.3833,-1.2659,-1.2291,-1.2645,-1.1996,-1.1558,-1.1329,-1.2505,-1.3084,-1.2997,-1.0124,-0.6983,-0.4223,-0.4412,0.515,1.8149,1.7308,2.6728,3.8669,3.5865,3.4857,3.4355,3.2556,3.1489,3.1039,3.1796,3.1117,2.9665,2.7749,2.7284,2.7404,2.7378,2.7973,2.8748,2.9704,3.0478,3.1014,3.1014,3.1014,3.1073,3.1219,3.1292,3.1278,3.1409,3.0896,3.0524,3.0644,3.0718,3.0718,3.0718,3.1219,3.1292,3.0524,2.9623,2.9099,2.8972,2.7987,2.7403,2.7268,2.7268,2.7201,2.6943,2.6943,2.6943,2.6943,2.6943,2.6943,2.6943,2.7011,2.7024,-1.0498,-1.1351,-1.1706,-1.1409,-1.1484,0.0,0.0,-1.2886,-1.3542,-1.3477,-1.4122,0.0,0.0,0.0,0.0,0.0,0.0,0.0,0.0,0.0,0.0,0.0,0.0,0.0,0.0,0.0,0.0,0.0,0.0,0.0,0.0,-1.2997,-1.2418,-1.1335,-1.1545,-1.1397,-1.0887,-1.0738,-1.0887,-1.1409,-1.215,-1.2218,-1.1749,-1.1013,-1.0634,-1.0542,-0.9884,-0.9739,-0.989,-1.0944,-1.1075,-1.0444,-0.8562,-0.6698,-0.5197,-0.4824,0.4674,1.7355,1.7571,2.7214,3.9289,3.8156,3.7524,3.688,3.5404,3.484,3.4454,3.3386,3.3203,3.2728,3.0321,2.9316,2.8948,2.8911,2.9192,2.9566,2.995,3.0613,3.1132,3.119,3.1278,3.1394,3.1509,3.1936,3.2201,3.2176,3.2018,3.1762,3.1332,3.1465,3.1379,3.0999,3.1495,3.1769,3.1437,3.0703,3.0269,3.0269,2.8803,2.7868,2.7815,2.7536,2.7335,2.7214,2.7214,2.7214,2.7214,2.7214,2.7214,2.7214,2.7268,2.7214,-1.0182,-1.0893,-1.126,-1.0962,0.0,0.0,-1.1781,-1.2659,-1.3462,-1.3477,-1.4049,0.0,0.0,0.0,0.0,0.0,0.0,0.0,0.0,0.0,0.0,0.0,0.0,0.0,0.0,0.0,0.0,0.0,0.0,0.0,0.0,-1.1613,-1.1242,-1.0056,-1.0346,-1.0421,-1.0137,-0.9911,-0.976,-0.9755,-1.0415,-1.0479,-1.011,-0.9583,-0.92,-0.8893,-0.8376,-0.83,-0.8599,-0.9291,-0.8898,-0.7723,-0.5639,-0.4306,-0.3301,-0.1117,0.785,1.9,1.9754,2.8522,3.9422,3.9349,3.903,3.8515,3.7711,3.7398,3.6969,3.5425,3.5266,3.5186,3.323,3.1717,3.0717,3.0719,3.0734,3.0764,3.1071,3.1377,3.1667,3.1781,3.1724,3.1682,3.1796,3.2367,3.2803,3.2695,3.2895,3.281,3.2109,3.217,3.2064,3.1465,3.1739,3.1996,3.1996,3.148,3.116,3.116,2.9718,2.8753,2.8509,2.8235,2.7973,2.7736,2.7789,2.7855,2.7855,2.7973,2.8012,2.8026,2.7842,2.7842,-0.9531,-1.0056,-1.0513,-1.0513,0.0,0.0,-1.0738,-1.1558,-1.2592,-1.3753,0.0,-1.3833,-1.3833,0.0,0.0,0.0,0.0,0.0,0.0,0.0,0.0,0.0,0.0,0.0,0.0,0.0,0.0,0.0,0.0,0.0,0.0,-1.0576,-0.9986,-0.9003,-0.8775,-0.8699,-0.8699,-0.8851,-0.8694,-0.808,-0.7825,-0.8273,-0.9271,-0.8438,-0.8058,-0.8062,-0.7613,-0.7464,-0.7464,-0.7464,-0.6846,-0.5428,-0.1553,0.0658,0.214,0.7371,1.541,2.3826,2.4191,3.0956,3.9416,3.9104,3.9091,3.9231,3.9374,3.8701,3.7961,3.8155,3.748,3.6629,3.6247,3.4359,3.2583,3.2771,3.2444,3.2408,3.3395,3.3198,3.2788,3.2788,3.2398,3.2053,3.2053,3.2437,3.2841,3.2841,3.3287,3.3495,3.3093,3.2986,3.2788,3.2287,3.2094,3.1996,3.1996,3.1667,3.148,3.148,3.0881,3.0147,2.9373,2.931,2.9071,2.8587,2.8908,2.9099,2.9099,2.9345,2.9504,2.9504,2.8776,2.8839,-0.8713,-0.9523,0.0,-0.99,0.0,0.0,0.0,-1.1484,0.0,0.0,-1.4394,-1.425,0.0,0.0,0.0,0.0,0.0,0.0,0.0,0.0,0.0,0.0,0.0,0.0,0.0,0.0,0.0,0.0,0.0,0.0,0.0,-0.914,-0.8542,-0.794,-0.7863,-0.8016,-0.8313,-0.746,-0.6935,-0.6746,-0.5382,-0.5351,-0.644,-0.5979,-0.5446,-0.5063,-0.5226,-0.5229,-0.4993,-0.3969,-0.3181,-0.2396,-0.0689,0.1649,0.4189,0.6321,1.3631,2.2743,2.4319,3.025,3.7406,3.8877,3.936,3.9441,4.0008,3.9879,3.9431,3.8956,3.879,3.8563,3.7784,3.7041,3.6151,3.4745,3.4055,3.3777,3.404,3.3806,3.3479,3.3479,3.3443,3.3443,3.3531,3.4087,3.4431,3.4219,3.4496,3.4528,3.4037,3.3582,3.3303,3.3319,3.2904,3.2624,3.2624,3.2554,3.2358,3.216,3.1936,3.116,2.9685,2.9435,2.9071,2.8587,2.8716,2.8651,2.8406,2.8958,2.9121,2.8967,2.8661,2.8661,-0.8362,-0.9226,0.0,-0.9755,-1.0137,-1.0663,-1.0663,0.0,0.0,0.0,0.0,0.0,0.0,0.0,0.0,0.0,0.0,0.0,0.0,0.0,0.0,0.0,0.0,0.0,0.0,0.0,0.0,0.0,0.0,0.0,0.0,-0.8389,-0.7706,-0.7176,-0.7176,-0.7092,-0.7,-0.615,-0.546,-0.4806,-0.3537,-0.3016,-0.3253,-0.3673,-0.3478,-0.2809,-0.2731,-0.2574,-0.2262,-0.1402,-0.0855,-0.0309,0.2963,0.5436,0.7686,1.1618,1.7795,2.4393,2.6246,3.0616,3.5705,3.7588,3.8359,3.8808,4.0077,4.0357,4.0163,3.9837,3.9718,3.961,3.9096,3.8794,3.8236,3.6591,3.5838,3.546,3.5389,3.4944,3.4558,3.4495,3.4317,3.4186,3.4284,3.4783,3.5144,3.5005,3.5098,3.5111,3.4861,3.4219,3.3802,3.3783,3.3455,3.3187,3.3043,3.3058,3.2989,3.2796,3.2633,3.2048,3.0748,3.045,3.004,2.956,2.9685,2.967,2.9421,2.9993,3.0176,3.0086,2.947,2.9407,-0.8174,-0.9008,0.0,-0.9841,-0.9841,0.0,-1.0443,-1.1335,-1.215,-1.2305,0.0,0.0,0.0,0.0,0.0,0.0,0.0,0.0,0.0,0.0,0.0,0.0,0.0,0.0,0.0,0.0,0.0,0.0,0.0,0.0,0.0,-0.7936,-0.7249,-0.6563,-0.6405,-0.6012,-0.5226,-0.4825,-0.3995,-0.2631,-0.2099,-0.1257,-0.0145,-0.1564,-0.1755,-0.0935,-0.0156,0.0311,0.0623,0.0623,0.0778,0.1548,0.7901,1.0622,1.2038,2.0161,2.4846,2.7422,2.9083,3.1533,3.4217,3.5662,3.663,3.7634,3.9593,4.0241,4.032,4.059,4.0301,3.9964,4.0087,3.9773,3.9183,3.829,3.7647,3.7197,3.7117,3.6516,3.5917,3.5691,3.5107,3.4655,3.4655,3.5048,3.5357,3.5357,3.5386,3.5431,3.5593,3.5031,3.4463,3.407,3.3969,3.3783,3.3487,3.345,3.3398,3.3346,3.3096,3.2757,3.2296,3.1936,3.1495,3.1029,3.1306,3.148,3.1422,3.1796,3.1981,3.1925,3.0881,3.0763,-0.7173,-0.8089,0.0,0.0,-0.9685,-1.0218,-1.0443,-1.0663,-1.1186,0.0,0.0,0.0,0.0,0.0,0.0,0.0,0.0,0.0,0.0,0.0,0.0,0.0,0.0,0.0,0.0,0.0,0.0,0.0,0.0,0.0,-0.7322,-0.6479,-0.6022,-0.5792,-0.5234,-0.4683,-0.4368,-0.2991,-0.2102,0.0,-0.0143,0.0708,0.0988,0.0444,0.0534,0.1247,0.1402,0.2024,0.2953,0.2953,0.4115,0.6123,0.7912,1.0906,1.4759,1.791,2.2092,2.6511,2.9101,3.0991,3.2672,3.4907,3.6268,3.7203,3.8328,3.9238,3.9962,4.0291,4.0292,4.0235,4.0393,4.0281,4.0063,3.9643,3.8868,3.8145,3.7905,3.7542,3.7159,3.7029,3.6777,3.6614,3.6614,3.6603,3.6615,3.6615,3.6684,3.6746,3.6696,3.6271,3.5925,3.5856,3.5363,3.4905,3.4496,3.4399,3.4169,3.3901,3.3435,3.3277,3.3407,3.2501,3.1694,3.1029,3.1276,3.1203,3.0703,3.1507,3.1834,3.1664,3.1347,3.1289,-0.7403,0.0,0.0,-0.9306,0.0,-1.0143,-1.0293,-1.0368,-1.0588,0.0,0.0,0.0,0.0,0.0,0.0,0.0,0.0,0.0,0.0,0.0,0.0,0.0,0.0,0.0,0.0,0.0,0.0,0.0,0.0,-0.6321,-0.6703,-0.5857,-0.5162,-0.4771,-0.4219,-0.3515,-0.2578,-0.1604,-0.0745,0.0218,0.1061,0.1954,0.2793,0.2578,0.2748,0.3276,0.374,0.4361,0.5137,0.5588,0.659,0.7986,0.975,1.2374,1.5506,1.8024,2.1735,2.5853,2.783,2.9783,3.1728,3.3632,3.4965,3.6077,3.7289,3.8425,3.9371,3.9816,4.0124,4.0394,4.0589,4.0614,4.0537,4.0289,3.9658,3.9055,3.8868,3.8479,3.8159,3.7965,3.7698,3.7506,3.7434,3.7283,3.7223,3.7299,3.7206,3.7167,3.7299,3.7058,3.6812,3.6591,3.6253,3.5874,3.5386,3.5065,3.4878,3.4925,3.4366,3.4119,3.4431,3.3754,3.3008,3.2104,3.2256,3.213,3.1849,3.2312,3.2532,3.2407,3.2099,3.1987,-0.7629,0.0,-0.8699,-0.9463,-0.969,0.0,-0.9916,-1.0067,0.0,0.0,0.0,0.0,0.0,0.0,0.0,0.0,0.0,0.0,0.0,0.0,0.0,0.0,0.0,0.0,0.0,0.0,0.0,0.0,0.0,-0.5547,-0.616,-0.5389,-0.4535,-0.3677,-0.3361,-0.2419,-0.0856,-0.0532,0.037,0.1805,0.2038,0.3053,0.4743,0.4616,0.4782,0.5123,0.6146,0.6703,0.7015,0.8062,0.8585,0.9105,1.2098,1.408,1.5575,1.8958,2.2237,2.5178,2.6432,2.8598,3.0999,3.2284,3.3598,3.4897,3.6264,3.754,3.8633,3.9233,3.9802,4.0346,4.0723,4.0808,4.0754,4.0615,4.028,3.9929,3.9709,3.9359,3.8999,3.8757,3.8395,3.8085,3.7923,3.7737,3.7685,3.7809,3.7559,3.7468,3.7774,3.7739,3.7542,3.7159,3.7122,3.6855,3.6222,3.5752,3.5698,3.5994,3.5386,3.5094,3.5307,3.5094,3.4592,3.3764,3.3539,3.3398,3.3346,3.3346,3.3361,3.3346,3.2996,3.2819,-0.6314,0.0,-0.7851,0.0,-0.8856,-0.8927,0.0,0.0,0.0,0.0,0.0,0.0,0.0,0.0,0.0,0.0,0.0,0.0,0.0,0.0,0.0,0.0,0.0,0.0,0.0,0.0,0.0,0.0,-0.5093,-0.5012,-0.4932,-0.4776,-0.4229,-0.3209,-0.2506,-0.1551,-0.0455,0.0296,0.1228,0.239,0.375,0.4904,0.5866,0.604,0.6204,0.6439,0.7626,0.8223,0.8528,0.9718,1.0691,1.1662,1.3367,1.5002,1.6573,1.9073,2.1717,2.4322,2.6344,2.8436,3.0332,3.1462,3.304,3.4504,3.4839,3.6249,3.7917,3.8745,3.9321,3.9884,4.0691,4.084,4.0819,4.0908,4.0842,4.0595,4.0065,3.9891,3.9791,3.9584,3.9257,3.8943,3.8704,3.8615,3.8573,3.8486,3.8609,3.8628,3.835,3.8585,3.8688,3.8387,3.8355,3.8074,3.7362,3.7046,3.6751,3.6533,3.6037,3.589,3.6232,3.5933,3.5671,3.5582,3.4382,3.371,3.345,3.3607,3.3658,3.3658,3.3591,3.3539,-0.6619,-0.7234,-0.7693,0.0,-0.8389,-0.808,-0.8152,0.0,0.0,0.0,0.0,0.0,0.0,0.0,0.0,0.0,0.0,0.0,0.0,0.0,0.0,0.0,0.0,0.0,0.0,0.0,0.0,0.0,-0.4545,-0.447,-0.4392,-0.4233,-0.3446,-0.1879,-0.1488,-0.0464,0.1433,0.1766,0.2562,0.3818,0.5113,0.5922,0.6277,0.6756,0.6977,0.7009,0.7702,0.8237,0.8694,1.0329,1.1298,1.1822,1.3636,1.5607,1.7542,1.8665,2.167,2.5242,2.6418,2.833,3.045,3.1204,3.225,3.3332,3.379,3.5211,3.6867,3.7693,3.8572,3.9448,4.0196,4.0442,4.0549,4.0873,4.0884,4.0781,4.0554,4.0451,4.0314,4.0043,3.9716,3.9427,3.9333,3.9144,3.9017,3.8952,3.8905,3.8876,3.8836,3.8998,3.9082,3.8952,3.8952,3.8752,3.8282,3.7884,3.7629,3.756,3.7122,3.6872,3.6956,3.6719,3.6457,3.6308,3.5174,3.4577,3.4431,3.4234,3.4151,3.4151,3.4151,3.4151,0.0,0.0,-0.6765,-0.746,-0.7383,-0.7076,0.0,0.0,0.0,0.0,0.0,0.0,0.0,0.0,0.0,0.0,0.0,0.0,0.0,0.0,0.0,0.0,0.0,0.0,0.0,0.0,0.0,0.0,-0.4231,-0.4155,-0.4079,-0.3763,-0.2741,-0.094,-0.0705,0.054,0.284,0.3182,0.3901,0.4945,0.5947,0.6482,0.6564,0.7207,0.7529,0.753,0.8059,0.8542,0.915,1.1007,1.1896,1.2265,1.4186,1.6201,1.814,1.8675,2.1606,2.5456,2.6262,2.8041,3.0101,3.0925,3.1751,3.261,3.3182,3.4539,3.6067,3.6849,3.7849,3.8854,3.9532,3.9865,4.0156,4.0602,4.0699,4.0719,4.0889,4.0812,4.0625,4.0391,4.0117,3.9906,3.9906,3.9668,3.947,3.9427,3.9223,3.9109,3.9279,3.9324,3.9331,3.9331,3.9331,3.9208,3.8952,3.8601,3.8401,3.8418,3.8023,3.7736,3.7632,3.7411,3.7185,3.6952,3.6105,3.5582,3.5402,3.4927,3.4675,3.4675,3.4546,3.4497,0.0,-0.4053,0.0,-0.4753,-0.5452,0.0,0.0,0.0,0.0,0.0,0.0,0.0,0.0,0.0,0.0,0.0,0.0,0.0,0.0,0.0,0.0,0.0,0.0,0.0,0.0,0.0,0.0,0.0,-0.4384,-0.4309,-0.4079,-0.329,-0.227,-0.094,-0.0157,0.1071,0.2766,0.428,0.5096,0.5276,0.6207,0.6745,0.6894,0.7281,0.7806,0.8397,0.9178,0.9965,1.0783,1.2198,1.3237,1.4122,1.5824,1.7051,1.8103,1.9651,2.1547,2.3646,2.567,2.7238,2.8579,3.0297,3.1807,3.2986,3.3145,3.4382,3.5822,3.6457,3.7274,3.8104,3.8704,3.9222,3.9718,4.0138,4.0279,4.0449,4.0898,4.0842,4.0691,4.0682,4.0559,4.0463,4.0463,4.0345,4.0192,4.0081,3.988,3.9693,3.9599,3.9647,3.967,3.967,3.967,3.958,3.9301,3.9189,3.9045,3.8781,3.8431,3.8259,3.8259,3.7984,3.7864,3.7828,3.7299,3.6678,3.6054,3.5448,3.5174,3.5128,3.4723,3.4497,0.0,0.0,0.0,-0.3898,-0.4215,-0.43,0.0,0.0,0.0,0.0,0.0,0.0,0.0,0.0,0.0,0.0,0.0,0.0,0.0,0.0,0.0,0.0,0.0,0.0,0.0,0.0,0.0,0.0,0.0,-0.337,-0.2896,-0.2349,-0.1095,0.1015,0.1406,0.2516,0.4643,0.5669,0.6127,0.6207,0.6609,0.6942,0.7152,0.8294,0.898,0.9211,1.0414,1.0864,1.095,1.2498,1.3375,1.4019,1.5587,1.717,1.8716,1.9661,2.1732,2.4251,2.5306,2.6937,2.8762,2.9732,3.0822,3.1879,3.2226,3.3435,3.4712,3.5351,3.6423,3.7506,3.8081,3.853,3.9029,3.9814,4.0109,4.0323,4.0661,4.0711,4.0728,4.0811,4.0719,4.0634,4.0629,4.0511,4.0404,4.0354,4.0227,4.0082,4.0062,3.996,3.9892,3.9892,3.9892,3.9851,3.9743,3.9739,3.9604,3.9338,3.9163,3.8952,3.8693,3.8442,3.8234,3.815,3.781,3.7337,3.6719,3.6147,3.583,3.583,3.5419,3.5475,-0.2344,0.0,0.0,0.0,0.0,-0.2898,0.0,0.0,0.0,0.0,0.0,0.0,0.0,0.0,0.0,0.0,0.0,0.0,0.0,0.0,0.0,0.0,0.0,0.0,0.0,0.0,0.0,0.0,0.0,0.0,-0.2189,-0.133,0.0156,0.2344,0.3172,0.4227,0.5581,0.6491,0.6865,0.6872,0.7199,0.7461,0.7731,0.9242,1.0014,1.0251,1.165,1.1909,1.162,1.2858,1.3658,1.4227,1.579,1.7444,1.9058,1.9727,2.1927,2.4718,2.5445,2.7013,2.8917,2.9685,3.0553,3.1394,3.1792,3.2876,3.4072,3.4669,3.5795,3.6921,3.7434,3.7975,3.8596,3.9382,3.9787,4.0116,4.0433,4.0613,4.0756,4.0859,4.0834,4.0803,4.0797,4.0684,4.0604,4.0637,4.05,4.0404,4.0396,4.0247,4.0158,4.01,4.01,4.008,4.0057,4.0017,3.9954,3.9781,3.9647,3.9433,3.9163,3.9135,3.9074,3.8977,3.8922,3.8724,3.8364,3.7413,3.7067,3.7287,3.6887,3.6887,0.0,0.0,0.0,0.0,0.0,0.0,-0.1646,0.0,0.0,0.0,0.0,0.0,0.0,0.0,0.0,0.0,0.0,0.0,0.0,0.0,0.0,0.0,0.0,0.0,0.0,0.0,0.0,0.0,-0.2738,-0.2111,-0.2111,-0.0313,0.1332,0.2746,0.5115,0.6026,0.5437,0.6708,0.7283,0.7218,0.7862,0.8371,0.8776,1.0061,1.0923,1.1505,1.2749,1.3164,1.3011,1.3498,1.4227,1.5046,1.6515,1.7872,1.9135,1.9998,2.2133,2.4718,2.5946,2.7404,2.898,3.0129,3.1073,3.1679,3.1834,3.2779,3.3887,3.4576,3.5459,3.6298,3.6781,3.7667,3.848,3.881,3.9308,3.9794,4.0196,4.0552,4.077,4.0794,4.0912,4.0991,4.0996,4.0892,4.0824,4.089,4.0731,4.061,4.061,4.0552,4.0448,4.0315,4.0317,4.0267,4.0138,4.0118,4.0117,4.0136,3.9908,3.975,3.9698,4.0181,4.043,4.0365,4.0725,4.0936,4.0972,3.9282,3.8784,3.9405,3.9098,3.8712,0.0,0.0,0.0,0.0,0.0,0.0,-0.0706,-0.1176,0.0,0.0,0.0,0.0,0.0,0.0,0.0,0.0,0.0,0.0,0.0,0.0,0.0,0.0,0.0,0.0,0.0,0.0,0.0,0.0,-0.0939,-0.0391,0.0,0.1876,0.3129,0.3522,0.5425,0.6331,0.6033,0.7086,0.7619,0.7633,0.7889,0.8498,0.94,1.0716,1.1737,1.2522,1.3716,1.4338,1.4617,1.4752,1.5117,1.5613,1.6655,1.8007,1.9465,2.0063,2.1885,2.4091,2.4511,2.6246,2.8325,2.8698,2.9842,3.1043,3.1087,3.1962,3.2986,3.3391,3.4543,3.5899,3.6935,3.765,3.8231,3.8637,3.9044,3.9464,3.9895,4.0157,4.0386,4.0727,4.0831,4.0891,4.0988,4.0976,4.0957,4.0975,4.084,4.074,4.074,4.0643,4.0555,4.0514,4.0513,4.0491,4.0468,4.0457,4.0668,4.1147,4.1131,4.1283,4.174,4.1717,4.1682,4.1586,4.1512,4.1731,4.2254,4.0598,3.9853,4.0047,4.0152,3.9964,0.0,0.0,0.0,0.0,0.0,0.0,0.0157,-0.0314,-0.0783,0.0,0.0,0.0,0.0,0.0,0.0,0.0,0.0,0.0,0.0,0.0,0.0,0.0,0.0,0.0,0.0,-0.0705,-0.0627,-0.0627,0.0,0.0784,0.1803,0.3365,0.4377,0.4453,0.6079,0.6855,0.6767,0.7655,0.8075,0.8155,0.8508,0.9262,1.0366,1.1606,1.2603,1.3437,1.4269,1.4856,1.5196,1.5409,1.5833,1.6455,1.7345,1.8546,1.9933,2.0473,2.2168,2.4144,2.4394,2.6181,2.839,2.8583,2.9608,3.0702,3.0762,3.148,3.2296,3.2741,3.4071,3.5593,3.6696,3.7299,3.7756,3.8237,3.8674,3.91,3.9599,3.9807,4.0024,4.0428,4.0532,4.0615,4.0799,4.083,4.0872,4.0971,4.0931,4.0879,4.0871,4.0812,4.0755,4.0687,4.101,4.1189,4.1149,4.1478,4.1853,4.2251,4.222,4.2333,4.2699,4.2854,4.2886,4.2858,4.2881,4.3043,4.333,4.1915,4.1288,4.1449,4.1381,4.1173,0.0,0.0,0.0,0.0,0.0,0.0,0.1178,0.0784,0.0391,0.0,0.0,0.0,0.0,0.0,0.0,0.0,0.0,0.0,0.0,0.0,0.0,0.0,0.0,0.0,-0.0235,-0.0235,-0.0235,-0.0235,0.0627,0.1724,0.3062,0.4304,0.5076,0.5229,0.6703,0.7483,0.7472,0.8139,0.8563,0.8801,0.953,1.0426,1.1565,1.2598,1.3444,1.4188,1.4506,1.4848,1.5267,1.5621,1.6315,1.7217,1.8094,1.9222,2.0409,2.1012,2.2614,2.4601,2.5026,2.6749,2.8789,2.917,2.987,3.0642,3.0762,3.1204,3.1834,3.264,3.3956,3.5307,3.6199,3.6713,3.715,3.772,3.8227,3.8711,3.9245,3.9427,3.9623,3.9939,4.0119,4.0287,4.0559,4.0602,4.0694,4.0947,4.0974,4.1012,4.1119,4.1121,4.1128,4.1112,4.1797,4.2212,4.2104,4.2801,4.3283,4.3338,4.325,4.3192,4.322,4.3771,4.4069,4.4083,4.4459,4.4501,4.4175,4.3188,4.2846,4.316,4.2616,4.236,0.0,0.0,0.0,0.0,0.0,0.0,0.3052,0.3127,0.3049,0.0,0.0,0.0,0.0,0.0,0.0,0.0,0.0,0.0,0.0,0.0,0.0,0.0,0.0,0.0,0.1646,0.1803,0.1882,0.1882,0.2353,0.2826,0.3062,0.4148,0.4766,0.4841,0.6388,0.7226,0.7271,0.8495,0.916,0.919,1.0237,1.124,1.2163,1.2933,1.3776,1.4538,1.4537,1.4991,1.5692,1.5762,1.6315,1.7207,1.7939,1.9069,2.0377,2.1223,2.2573,2.4152,2.5338,2.6818,2.826,2.9044,2.987,3.0568,3.0642,3.1087,3.1849,3.3447,3.4576,3.5436,3.5924,3.6207,3.6586,3.7324,3.7701,3.8092,3.8826,3.9036,3.9101,3.935,3.9903,4.038,4.0491,4.0648,4.0779,4.083,4.084,4.111,4.1864,4.1974,4.2251,4.2988,4.3214,4.3297,4.3279,4.3429,4.3743,4.4279,4.4346,4.4606,4.5119,4.5178,4.5169,4.5093,4.5101,4.4934,4.4657,4.4064,4.3714,4.3579,4.3474,4.3266,0.0,0.0,0.0,0.2202,0.0,0.0,0.0,0.391,0.3988,0.0,0.0,0.0,0.0,0.0,0.0,0.0,0.0,0.0,0.0,0.0,0.0,0.0,0.0,0.0,0.2353,0.2431,0.2589,0.2747,0.3372,0.3917,0.4146,0.4924,0.5619,0.6234,0.7234,0.7927,0.8241,0.9458,1.0143,1.0363,1.1261,1.2138,1.3084,1.3445,1.4103,1.4919,1.4919,1.5346,1.6053,1.6053,1.6603,1.7423,1.7901,1.9023,2.0388,2.1216,2.248,2.3978,2.5012,2.6193,2.7432,2.8441,2.9296,3.0007,3.0447,3.0866,3.1465,3.3045,3.382,3.4447,3.5419,3.582,3.6071,3.6671,3.6967,3.7325,3.8111,3.8291,3.8436,3.896,3.9789,4.0359,4.0213,4.0726,4.1186,4.1274,4.1749,4.2264,4.2733,4.2801,4.2985,4.3459,4.3916,4.4197,4.4202,4.4596,4.498,4.5327,4.5328,4.5457,4.5784,4.5686,4.5607,4.549,4.5418,4.5303,4.509,4.4868,4.4501,4.3992,4.3992,4.3804,0.0,0.0,0.0,0.0,0.0,0.4142,0.0,0.0,0.0,0.0,0.0,0.0,0.0,0.0,0.0,0.0,0.0,0.0,0.0,0.0,0.0,0.0,0.0,0.0,0.0,0.2743,0.2901,0.3295,0.4151,0.4924,0.5461,0.6009,0.6707,0.7783,0.8313,0.877,0.9322,1.0368,1.1111,1.1409,1.2204,1.3011,1.3833,1.3977,1.4482,1.5204,1.5275,1.57,1.6342,1.6412,1.6959,1.7706,1.8124,1.91,2.0399,2.1484,2.2651,2.3923,2.4798,2.5809,2.6828,2.7841,2.8712,2.9498,3.0387,3.0821,3.1204,3.2266,3.281,3.3339,3.4785,3.5283,3.552,3.6002,3.6281,3.6654,3.7434,3.7739,3.811,3.8805,3.9764,4.0364,4.0098,4.0936,4.1704,4.1918,4.2686,4.3324,4.3557,4.3557,4.364,4.3854,4.4569,4.5012,4.5036,4.5679,4.6105,4.6108,4.5993,4.5945,4.5941,4.586,4.5751,4.5642,4.5634,4.5574,4.5438,4.5438,4.5071,4.4402,4.4402,4.4184,0.0,0.0,0.0,0.0,0.5001,0.0,0.0,0.0,0.6553,0.0,0.0,0.0,0.0,0.0,0.0,0.0,0.0,0.0,0.0,0.0,0.0,0.0,0.0,0.0,0.0,0.3675,0.3754,0.399,0.5074,0.5848,0.6086,0.7011,0.7629,0.7783,0.8703,0.9246,0.9322,1.0663,1.1335,1.1409,1.2952,1.3688,1.3833,1.4697,1.5125,1.5204,1.5551,1.5982,1.6342,1.6811,1.7285,1.7842,1.889,1.9738,2.0573,2.2756,2.3646,2.4038,2.579,2.6587,2.6989,2.792,2.8839,2.9747,3.0507,3.1146,3.1694,3.2074,3.2555,3.3214,3.4018,3.4284,3.4545,3.552,3.6002,3.6399,3.7034,3.7927,3.8687,3.8994,3.989,4.0561,4.0609,4.1453,4.2205,4.2488,4.2604,4.3061,4.4071,4.4203,4.4568,4.5505,4.5716,4.5797,4.5859,4.6005,4.6105,4.6098,4.6088,4.6088,4.6072,4.5968,4.5838,4.5783,4.5783,4.5717,4.5571,4.5571,4.5285,4.4726,4.4726,4.4599,0.0,0.0,0.0,0.0,0.0,0.0,0.656,0.0,0.7099,0.0,0.0,0.0,0.0,0.0,0.0,0.0,0.0,0.0,0.0,0.0,0.0,0.0,0.0,0.0,0.0,0.0,0.0,0.0,0.6005,0.6703,0.7088,0.7553,0.8089,0.8627,0.9614,1.0293,1.0513,1.2063,1.2806,1.2799,1.376,1.441,1.4625,1.4982,1.5417,1.585,1.5982,1.6272,1.67,1.689,1.7166,1.7588,1.9303,2.0279,2.0963,2.2576,2.3593,2.4382,2.5591,2.5988,2.6183,2.7644,2.8762,2.9747,3.0447,3.0851,3.119,3.1792,3.217,3.254,3.3371,3.3815,3.4234,3.4673,3.5432,3.626,3.6801,3.7791,3.8708,3.915,4.0119,4.098,4.1314,4.2006,4.2592,4.2687,4.3365,4.4045,4.4534,4.4729,4.4996,4.5447,4.5638,4.5752,4.5761,4.5902,4.5998,4.6036,4.6073,4.6093,4.61,4.6073,4.6019,4.592,4.5938,4.5899,4.5777,4.5777,4.5596,4.5266,4.518,4.4981,0.3758,0.0,0.0,0.0,0.0,0.0,0.0,0.0,0.0,0.0,0.0,0.0,0.0,0.0,0.0,0.0,0.0,0.0,0.0,0.0,0.0,0.0,0.0,0.0,0.0,0.0,0.0,0.0,0.0,0.7706,0.8165,0.8318,0.8703,0.9473,1.0293,1.0887,1.1186,1.2586,1.339,1.3542,1.4201,1.4776,1.5204,1.5417,1.5771,1.6281,1.6412,1.6621,1.6908,1.7116,1.7508,1.8105,1.9902,2.1151,2.1981,2.2832,2.3762,2.4602,2.5272,2.5453,2.5721,2.7324,2.8505,2.9421,3.0129,3.0447,3.0747,3.1392,3.1622,3.1834,3.2879,3.3618,3.4172,3.4543,3.5548,3.6567,3.6928,3.7923,3.8836,3.9216,4.0292,4.1314,4.1636,4.2331,4.2897,4.3036,4.3867,4.4537,4.4662,4.4862,4.5036,4.5185,4.5361,4.549,4.5486,4.5699,4.5848,4.598,4.6047,4.6079,4.6093,4.6156,4.6132,4.6063,4.6105,4.6059,4.592,4.592,4.5839,4.5675,4.5528,4.5302,0.0,0.0,0.0,0.725,0.0,0.0,0.0,0.0,0.7699,0.0,0.0,0.0,0.0,0.0,0.0,0.0,0.0,0.0,0.0,0.0,0.0,0.0,0.0,0.0,0.0,0.0,0.0,0.0,0.0,0.0,0.9246,0.962,0.9841,0.9846,1.0293,1.0513,1.0513,1.1558,1.2378,1.2973,1.384,1.4625,1.5204,1.5912,1.6272,1.6342,1.6691,1.6908,1.6978,1.7666,1.8644,1.9833,2.0951,2.2433,2.392,2.4276,2.4506,2.4602,2.5119,2.5535,2.6037,2.7149,2.7986,2.8684,2.9421,3.0068,3.0642,3.0821,3.0821,3.1146,3.261,3.3543,3.4387,3.5646,3.6785,3.753,3.7595,3.8475,3.9259,3.9307,4.0406,4.1401,4.1383,4.2306,4.3159,4.359,4.3726,4.3912,4.4344,4.4425,4.4625,4.514,4.5222,4.5223,4.5207,4.5472,4.5688,4.5886,4.596,4.6037,4.6096,4.6098,4.6137,4.6186,4.6209,4.6131,4.6003,4.6003,4.5969,4.5889,4.5689,4.5524,0.0,0.0,0.7777,0.7517,0.0,0.0,0.0,0.0,0.0,0.0,0.0,0.0,0.0,0.0,0.0,0.0,0.0,0.0,0.0,0.0,0.0,0.0,0.0,0.0,0.0,0.0,0.0,0.0,0.0,0.0,0.0,0.9846,0.9992,1.0293,1.1174,1.1842,1.2077,1.3178,1.3977,1.441,1.4768,1.5275,1.5921,1.6202,1.6621,1.7226,1.7373,1.7638,1.7998,1.8831,1.9514,2.0181,2.192,2.3017,2.3746,2.4312,2.4735,2.5071,2.5252,2.5535,2.6037,2.6812,2.7723,2.8556,2.8826,2.967,3.0421,2.966,3.01,3.094,3.1552,3.2536,3.3645,3.5013,3.6282,3.7367,3.79,3.8891,3.9715,3.9715,4.0263,4.0896,4.1328,4.1709,4.2198,4.2864,4.3284,4.3609,4.3893,4.426,4.4549,4.4726,4.4862,4.4943,4.4947,4.5185,4.5453,4.5692,4.5733,4.5829,4.6026,4.6083,4.6118,4.6137,4.6191,4.6175,4.613,4.613,4.607,4.5955,4.5903,4.5813,0.7037,0.7592,0.0,0.7865,0.8037,0.0,0.7963,0.0,0.0,0.0,0.0,0.0,0.0,0.0,0.0,0.0,0.0,0.0,0.0,0.0,0.0,0.0,0.0,0.0,0.0,0.0,0.0,0.0,0.0,0.0,0.0,0.0,1.0738,1.1037,1.199,1.2659,1.29,1.3622,1.4274,1.4911,1.5054,1.5488,1.6272,1.6421,1.6821,1.7442,1.7638,1.7998,1.8497,1.9328,2.018,2.1166,2.2551,2.3488,2.4225,2.4656,2.5011,2.5312,2.5382,2.5606,2.5955,2.6744,2.7657,2.8387,2.8515,2.9487,3.0464,2.9947,3.0387,3.126,3.2078,3.2901,3.3846,3.5049,3.6226,3.7238,3.8046,3.8784,3.9382,3.9625,4.0087,4.0546,4.099,4.1283,4.1701,4.2391,4.2788,4.3087,4.332,4.3791,4.417,4.4258,4.4522,4.4739,4.4776,4.4969,4.5165,4.5437,4.547,4.5587,4.5841,4.5902,4.5969,4.6063,4.6118,4.6137,4.6158,4.6158,4.6134,4.6071,4.6071,4.6049]},{"header":{"parameterUnit":"m.s-1","parameterCategory":1,"la1":30.6,"la2":29.2853,"lo1":-89.7004,"lo2":-87.6739,"dy":0.0162,"dx":0.0183,"nx":112,"ny":82,"refTime":"2024-04-17T06:00:00:Z","depth":0,"parameterNumber":3,"parameterNumberName":"V-component_of_WINDS"},"data":[0.0,0.0,0.0,0.0,0.0,0.0,0.0,0.0,0.0,0.0,0.0,0.0,0.0,0.0,0.0,0.0,0.0,0.0,0.0,0.0,0.0,0.0,0.0,0.0,0.0,0.0,0.0,0.0,0.0,0.0,0.0,0.0,0.0,0.0,0.0,0.0,0.0,0.0,0.0,0.0,0.0,0.0,0.0,0.0,0.0,0.0,0.0,0.0,0.0,0.0,0.0,0.0,0.0,0.0,0.0,0.0,0.0,0.0,0.0,0.0,0.0,0.0,0.0,0.0,0.0,0.0,0.0,0.0,0.0,0.0,0.0,0.0,0.0,0.0,0.0,0.0,0.0,0.0,0.0,0.0,0.0,0.0,0.0,0.0,0.0,0.0,0.0,0.0,0.0,0.0,0.0,-0.7526,-0.7199,-0.6937,-0.6806,-0.7199,-0.6741,-0.5286,0.0,0.0,0.0,0.0,0.0,0.0,0.0,0.0,0.0,0.0,0.0,0.0,0.0,0.0,0.0,0.0,0.0,0.0,0.0,0.0,0.0,0.0,0.0,0.0,0.0,0.0,0.0,0.0,0.0,0.0,0.0,0.0,0.0,0.0,0.0,0.0,0.0,0.0,0.0,0.0,0.0,0.0,0.0,0.0,0.0,0.0,0.0,0.0,0.0,0.0,0.0,0.0,0.0,0.0,0.0,0.0,0.0,0.0,0.0,0.0,0.0,0.0,0.0,0.0,0.0,0.0,0.0,0.0,0.0,0.0,0.0,0.0,0.0,0.0,0.0,0.0,0.0,0.0,0.0,0.0,0.0,0.0,0.0,0.0,0.0,0.0,0.0,0.0,0.0,0.0,0.0,0.0,0.0,0.0,0.0,0.0,0.0,0.0,0.0,0.0,0.0,0.0,0.0,0.0,-0.8888,-0.8759,-0.8441,-0.7987,-0.7456,-0.7922,-0.7526,-0.5617,0.0,0.0,0.0,0.0,0.0,0.0,0.0,0.0,0.0,0.0,0.0,0.0,0.0,0.0,0.0,0.0,0.0,0.0,0.0,0.0,0.0,0.0,0.0,0.0,0.0,0.0,0.0,0.0,0.0,0.0,0.0,0.0,0.0,0.0,0.0,0.0,0.0,0.0,0.0,0.0,0.0,0.0,0.0,0.0,0.0,0.0,0.0,0.0,0.0,0.0,0.0,0.0,0.0,0.0,0.0,0.0,0.0,0.0,0.0,0.0,0.0,0.0,0.0,0.0,0.0,0.0,0.0,0.0,0.0,0.0,0.0,0.0,0.0,0.0,0.0,0.0,0.0,0.0,0.0,0.0,0.0,0.0,0.0,0.0,0.0,0.0,0.0,0.0,0.0,0.0,0.0,0.0,0.0,0.0,0.0,0.0,0.0,0.0,0.0,0.0,0.0,0.0,0.0,-0.8624,-0.8888,-0.8501,-0.7917,-0.7265,-0.6535,-0.6994,-0.6732,-0.5289,-0.5939,0.0,0.0,0.0,0.0,0.0,0.0,0.0,0.0,0.0,0.0,0.0,0.0,0.0,0.0,0.0,0.0,0.0,0.0,0.0,0.0,0.0,0.0,0.0,0.0,0.0,0.0,0.0,0.0,0.0,0.0,0.0,0.0,0.0,0.0,0.0,0.0,0.0,0.0,0.0,0.0,0.0,0.0,0.0,0.0,0.0,0.0,0.0,0.0,0.0,0.0,0.0,0.0,0.0,0.0,0.0,0.0,0.0,0.0,0.0,0.0,0.0,0.0,0.0,0.0,0.0,0.0,0.0,0.0,0.0,0.0,0.0,0.0,0.0,0.0,0.0,0.0,0.0,0.0,0.0,0.0,0.0,0.0,0.0,0.0,0.0,0.0,0.0,0.0,0.0,0.0,0.0,0.0,0.0,0.0,0.0,0.0,0.0,0.0,0.0,0.0,0.0,0.0,-0.9075,-0.8952,-0.8312,-0.7657,-0.6863,-0.6009,-0.647,-0.6272,-0.516,-0.6009,0.0,0.0,0.0,0.0,0.0,0.0,0.0,0.0,0.0,0.0,0.0,0.0,0.0,0.0,0.0,0.0,0.0,0.0,0.0,0.0,0.0,0.0,0.0,0.0,0.0,0.0,0.0,0.0,0.0,0.0,0.0,0.0,0.0,0.0,0.0,0.0,0.0,0.0,0.0,0.0,0.0,0.0,0.0,0.0,0.0,0.0,0.0,0.0,0.0,0.0,0.0,0.0,0.0,0.0,0.0,0.0,0.0,0.0,0.0,0.0,0.0,0.0,0.0,0.0,0.0,0.0,0.0,0.0,0.0,0.0,0.0,0.0,0.0,0.0,0.0,0.0,0.0,0.0,0.0,0.0,0.0,0.0,0.0,0.0,0.0,0.0,0.0,0.0,0.0,0.0,0.0,0.0,0.0,0.0,0.0,0.0,0.0,0.0,0.0,0.0,0.0,0.0,-0.9919,-0.9664,-0.9017,-0.8888,-0.8296,-0.6924,-0.7456,-0.733,-0.5888,-0.647,0.0,0.0,0.0,0.0,0.0,0.0,0.0,0.0,0.0,0.0,0.0,0.0,0.0,0.0,0.0,0.0,0.0,0.0,0.0,0.0,0.0,0.0,0.0,0.0,0.0,0.0,0.0,0.0,0.0,0.0,0.0,0.0,0.0,0.0,0.0,0.0,0.0,0.0,0.0,0.0,0.0,0.0,0.0,0.0,0.0,0.0,0.0,0.0,0.0,0.0,0.0,0.0,0.0,0.0,0.0,0.0,0.0,0.0,0.0,0.0,0.0,0.0,0.0,0.0,0.0,0.0,0.0,0.0,0.0,0.0,0.0,0.0,0.0,0.0,0.0,0.0,0.0,0.0,0.0,0.0,0.0,0.0,0.0,0.0,0.0,0.0,0.0,0.0,0.0,0.0,0.0,0.0,0.0,0.0,0.0,0.0,0.0,0.0,0.0,0.0,0.0,0.0,-0.9527,-0.9431,0.0,-0.8441,-0.786,-0.6852,-0.7118,-0.7074,-0.6292,0.0,0.0,0.0,0.0,0.0,0.0,0.0,0.0,0.0,0.0,0.0,0.0,0.0,0.0,0.0,0.0,0.0,0.0,0.0,0.0,0.0,0.0,0.0,0.0,0.0,0.0,0.0,0.0,0.0,0.0,0.0,0.0,0.0,0.0,0.0,0.0,0.0,0.0,0.0,0.0,0.0,0.0,0.0,0.0,0.0,0.0,0.0,0.0,0.0,0.0,0.0,0.0,0.0,0.0,0.0,0.0,0.0,0.0,0.0,0.0,0.0,0.0,0.0,0.0,0.0,0.0,0.0,0.0,0.0,0.0,0.0,0.0,0.0,0.0,0.0,0.0,0.0,0.0,0.0,0.0,0.0,0.0,0.0,0.0,0.0,0.0,0.0,0.0,0.0,0.0,0.0,0.0,0.0,0.0,0.0,0.0,0.0,0.0,0.0,0.0,0.0,0.0,-0.9813,-1.0116,-0.9964,0.0,-0.8613,-0.8023,-0.7051,-0.7116,-0.7065,-0.6802,0.0,0.0,0.0,0.0,0.0,0.0,0.0,0.0,0.0,0.0,0.0,0.0,0.0,0.0,0.0,0.0,0.0,0.0,0.0,0.0,0.0,0.0,0.0,0.0,0.0,0.0,0.0,0.0,0.0,0.0,0.0,0.0,0.0,0.0,0.0,0.0,0.0,0.0,0.0,0.0,0.0,0.0,0.0,0.0,0.0,0.0,0.0,0.0,0.0,0.0,0.0,0.0,0.0,0.0,0.0,0.0,0.0,0.0,0.0,0.0,0.0,0.0,0.0,0.0,0.0,0.0,0.0,0.0,0.0,0.0,0.0,0.0,0.0,0.0,0.0,0.0,0.0,0.0,0.0,0.0,0.0,0.0,0.0,0.0,0.0,0.0,0.0,0.0,0.0,0.0,0.0,0.0,0.0,0.0,0.0,0.0,0.0,0.0,0.0,0.0,0.0,0.0,-1.1451,-1.184,-1.143,-0.9968,-0.9765,-0.9211,-0.7744,-0.7606,-0.7602,0.0,0.0,0.0,0.0,0.0,0.0,0.0,0.0,0.0,0.0,0.0,0.0,0.0,0.0,0.0,0.0,0.0,0.0,0.0,0.0,0.0,0.0,0.0,0.0,0.0,0.0,0.0,0.0,0.0,0.0,0.0,0.0,0.0,0.0,0.0,0.0,0.0,0.0,0.0,0.0,0.0,0.0,0.0,0.0,0.0,0.0,0.0,0.0,0.0,0.0,0.0,0.0,0.0,0.0,0.0,0.0,0.0,0.0,0.0,0.0,0.0,0.0,0.0,0.0,0.0,0.0,0.0,0.0,0.0,0.0,0.0,0.0,0.0,0.0,0.0,0.0,0.0,0.0,0.0,0.0,0.0,0.0,0.0,0.0,0.0,0.0,0.0,0.0,0.0,0.0,0.0,0.0,0.0,0.0,0.0,0.0,0.0,0.0,0.0,0.0,0.0,0.0,0.0,-1.0998,-1.0886,-1.0651,-1.0242,-0.9599,-0.9043,-0.8607,-0.8882,-0.8954,-0.88,0.0,0.0,0.0,0.0,0.0,0.0,0.0,0.0,0.0,0.0,0.0,0.0,0.0,0.0,0.0,0.0,0.0,0.0,0.0,0.0,0.0,0.0,0.0,0.0,0.0,0.0,0.0,0.0,0.0,0.0,0.0,0.0,0.0,0.0,0.0,0.0,0.0,0.0,0.0,0.0,0.0,0.0,0.0,0.0,0.0,0.0,0.0,0.0,0.0,0.0,0.0,0.0,0.0,0.0,0.0,0.0,0.0,0.0,0.0,0.0,0.0,0.0,0.0,0.0,0.0,0.0,0.0,0.0,0.0,0.0,0.0,0.0,0.0,0.0,0.0,0.0,0.0,0.0,0.0,0.0,0.0,0.0,0.0,0.0,0.0,0.0,0.0,0.0,0.0,0.0,0.0,0.0,0.0,0.0,0.0,0.0,0.0,0.0,0.0,0.0,0.0,0.0,-1.1827,-1.1625,-1.1367,-1.1095,-1.0341,-0.9702,-0.9416,-0.9627,-0.9783,-0.9646,0.0,0.0,0.0,0.0,0.0,0.0,0.0,0.0,0.0,0.0,0.0,0.0,0.0,0.0,0.0,0.0,0.0,0.0,0.0,0.0,0.0,0.0,0.0,0.0,0.0,0.0,0.0,0.0,0.0,0.0,0.0,0.0,0.0,0.0,0.0,0.0,0.0,0.0,0.0,0.0,0.0,0.0,0.0,0.0,0.0,0.0,0.0,0.0,0.0,0.0,0.0,0.0,0.0,0.0,0.0,0.0,0.0,0.0,0.0,0.0,0.0,0.0,0.0,0.0,0.0,0.0,0.0,0.0,0.0,0.0,0.0,0.0,0.0,0.0,0.0,0.0,0.0,0.0,0.0,0.0,0.0,0.0,0.0,0.0,0.0,0.0,0.0,0.0,0.0,0.0,0.0,0.0,0.0,0.0,0.0,0.0,0.0,0.0,0.0,0.0,0.0,0.0,-1.323,-1.3266,-1.2826,-1.2077,-1.1409,-1.0663,-0.9922,-0.9992,-1.0143,-1.0143,0.0,0.0,0.0,0.0,0.0,0.0,0.0,0.0,0.0,0.0,0.0,0.0,0.0,0.0,0.0,0.0,0.0,0.0,0.0,0.0,0.0,0.0,0.0,0.0,0.0,0.0,0.0,0.0,0.0,0.0,0.0,0.0,0.0,0.0,0.0,0.0,0.0,0.0,0.0,0.0,0.0,0.0,0.0,0.0,0.0,0.0,0.0,0.0,0.0,0.0,0.0,0.0,0.0,0.0,0.0,0.0,0.0,0.0,0.0,0.0,-0.5269,0.0,0.0,0.0,0.0,0.0,0.0,0.0,0.0,0.0,0.0,0.0,0.0,0.0,0.0,0.0,0.0,0.0,0.0,0.0,0.0,0.0,0.0,0.0,0.0,0.0,0.0,0.0,0.0,0.0,0.0,0.0,0.0,0.0,0.0,0.0,0.0,0.0,0.0,0.0,0.0,0.0,-1.3018,-1.2592,-1.2157,-1.2003,-1.0738,-0.9846,-0.9695,-0.9533,-0.9528,-0.9528,-1.0232,0.0,0.0,0.0,0.0,0.0,0.0,0.0,0.0,0.0,0.0,0.0,0.0,0.0,0.0,0.0,0.0,0.0,0.0,0.0,0.0,0.0,0.0,0.0,0.0,0.0,0.0,0.0,0.0,0.0,0.0,0.0,0.0,0.0,0.0,0.0,0.0,0.0,0.0,0.0,0.0,0.0,0.0,0.0,0.0,0.0,0.0,0.0,0.0,0.0,0.0,0.0,0.0,0.0,0.0,0.0,0.0,0.0,0.0,0.0,0.0,-0.6688,0.0,0.0,0.0,0.0,0.0,0.0,0.0,0.0,0.0,0.0,0.0,0.0,0.0,0.0,0.0,0.0,0.0,0.0,0.0,0.0,0.0,0.0,0.0,0.0,0.0,0.0,0.0,0.0,0.0,0.0,0.0,0.0,0.0,0.0,0.0,0.0,0.0,0.0,0.0,0.0,-1.3608,-1.3032,-1.2599,-1.2599,-1.1409,-1.0588,-1.0588,-1.0582,-1.0651,-1.0726,-1.1329,0.0,0.0,0.0,0.0,0.0,0.0,0.0,0.0,0.0,0.0,0.0,0.0,0.0,0.0,0.0,0.0,0.0,0.0,0.0,0.0,0.0,0.0,0.0,0.0,0.0,0.0,0.0,0.0,0.0,0.0,0.0,0.0,0.0,0.0,0.0,0.0,0.0,0.0,0.0,0.0,0.0,0.0,0.0,0.0,0.0,0.0,0.0,0.0,0.0,0.0,0.0,0.0,0.0,-0.5291,-0.5954,-0.5954,-0.6086,-0.6152,-0.6218,-0.7134,-0.7591,-0.7661,0.0,0.0,0.0,0.0,0.0,0.0,0.0,0.0,0.0,0.0,0.0,0.0,0.0,0.0,0.0,0.0,0.0,0.0,0.0,0.0,0.0,0.0,0.0,0.0,0.0,-1.9393,-1.9352,0.0,0.0,0.0,0.0,0.0,0.0,0.0,0.0,0.0,0.0,0.0,0.0,-1.4561,-1.3985,-1.3404,-1.3339,-1.2372,-1.1706,-1.1558,-1.1626,-1.1774,-1.1922,-1.2298,-1.2592,0.0,0.0,0.0,0.0,0.0,0.0,0.0,0.0,0.0,0.0,0.0,0.0,0.0,0.0,0.0,0.0,0.0,0.0,0.0,0.0,0.0,0.0,0.0,0.0,0.0,0.0,0.0,0.0,0.0,0.0,0.0,0.0,2.9985,3.019,0.0,0.0,0.0,0.0,0.0,0.0,0.0,0.0,0.0,0.0,0.0,0.0,0.0,1.2601,0.9795,-0.0058,-0.27,0.1721,-0.3583,-0.6148,-0.6214,-0.6933,-0.726,-0.7326,-0.8495,0.0,-0.733,-0.8501,0.0,0.0,0.0,0.0,0.0,0.0,0.0,0.0,0.0,0.0,0.0,0.0,0.0,0.0,0.0,0.0,0.0,0.0,0.0,0.0,0.0,0.0,-2.061,-2.0673,-2.1103,-2.1471,0.0,-1.9285,-1.7611,-1.7099,-1.6792,0.0,0.0,0.0,0.0,0.0,0.0,0.0,-1.5551,-1.5046,-1.4402,-1.368,-1.2638,-1.1687,-1.0962,-1.0651,-1.0415,-1.049,-1.1452,-1.2124,-1.2124,-1.2924,0.0,0.0,0.0,0.0,0.0,0.0,0.0,0.0,0.0,0.0,0.0,0.0,0.0,0.0,0.0,0.0,0.0,0.0,0.0,0.0,0.0,0.0,0.0,0.0,0.0,0.0,0.0,0.0,0.0,3.0177,3.0298,3.0337,3.0359,3.0389,0.0,0.0,0.0,0.0,0.0,0.0,0.0,0.0,0.0,2.1455,1.5565,1.0671,0.689,-0.1496,-0.4531,-0.2246,-0.4987,-0.6284,-0.635,-0.6675,-0.6872,-0.6937,-0.8166,-0.8301,-0.7722,-0.8958,-0.96,-0.9913,0.0,0.0,0.0,0.0,-1.364,-1.4721,-1.5148,-1.5678,0.0,-1.6813,0.0,0.0,0.0,0.0,0.0,0.0,0.0,0.0,0.0,0.0,-2.1345,-2.1907,-2.2079,-2.2197,-2.2546,-2.1841,-2.0905,0.0,-1.892,-1.7944,-1.7559,0.0,0.0,0.0,0.0,-1.6053,-1.5833,-1.4974,-1.433,-1.4042,-1.3018,-1.2218,-1.2003,-1.1848,-1.1768,-1.1916,-1.2365,-1.2732,-1.2813,-1.3266,-1.3426,0.0,0.0,0.0,0.0,0.0,0.0,0.0,0.0,0.0,0.0,0.0,0.0,0.0,0.0,0.0,0.0,0.0,0.0,0.0,0.0,0.0,0.0,0.0,0.0,0.0,0.0,0.0,0.0,3.0616,3.0694,3.1061,3.0781,3.0694,0.0,0.0,0.0,0.0,0.0,0.0,3.1158,3.1102,2.8247,2.2094,1.7314,1.1071,0.3197,-0.1511,-0.4705,-0.6415,-0.6439,-0.6485,-0.6481,-0.6634,-0.6745,-0.7003,-0.8042,-0.8495,-0.8565,-0.96,-1.0174,-1.0555,-1.0989,-1.1849,-1.2818,-1.3312,-1.4591,-1.6136,-1.6507,-1.7146,-1.7886,-1.8536,0.0,-1.7863,-1.8447,0.0,0.0,0.0,0.0,-2.0217,-2.0924,-2.1461,-2.2069,-2.2928,-2.3078,-2.3146,-2.3664,-2.3865,-2.3563,0.0,-2.0827,-1.9709,-1.9673,0.0,0.0,0.0,0.0,-1.6742,-1.6254,-1.5251,-1.4537,-1.4553,-1.3615,-1.2966,-1.29,-1.2973,-1.3046,-1.3193,-1.3273,-1.3346,-1.3492,-1.3492,-1.3492,-1.3492,0.0,0.0,0.0,0.0,0.0,0.0,0.0,0.0,0.0,0.0,0.0,0.0,0.0,0.0,0.0,0.0,0.0,0.0,0.0,0.0,0.0,0.0,0.0,0.0,0.0,0.0,0.0,0.0,0.0,3.2878,3.1669,0.0,0.0,0.0,0.0,3.2805,3.2879,3.2913,3.2974,3.291,3.0079,2.3969,2.3202,1.6738,0.3862,0.3357,-0.0248,-0.6995,-0.6749,-0.6664,-0.6724,-0.7215,-0.7782,-0.8425,-0.9011,-0.9466,-0.9919,-1.0295,-1.0674,-1.1052,-1.1553,-1.2474,-1.3502,-1.3974,-1.5293,-1.688,-1.6933,-1.7733,-1.8679,-1.8536,-1.8566,-1.8821,-1.9812,-1.9633,0.0,0.0,-2.1032,-2.1229,-2.2907,-2.3186,-2.321,-2.3856,-2.446,-2.4882,-2.5091,-2.5119,-2.4592,0.0,-2.2305,-2.1794,-2.0403,0.0,-1.909,-1.7804,-1.7842,-1.7725,-1.7166,-1.6594,-1.5886,-1.5196,-1.4489,-1.3695,-1.2966,-1.3046,-1.3193,-1.32,-1.3346,-1.3492,-1.3492,-1.3492,-1.3492,-1.3492,-1.3492,0.0,0.0,0.0,0.0,0.0,0.0,0.0,0.0,0.0,0.0,0.0,0.0,0.0,0.0,0.0,0.0,0.0,0.0,0.0,0.0,0.0,0.0,0.0,0.0,0.0,0.0,0.0,0.0,3.3193,3.2783,0.0,3.3186,3.2901,3.2783,3.3044,3.3051,3.3079,3.3109,3.3045,3.2,2.9826,2.5778,2.1327,1.6528,1.2548,0.6643,-0.1105,-0.0912,-0.3578,-0.8646,-0.8706,-0.8874,-0.9146,-0.9761,-1.0166,-1.0508,-1.1441,-1.1474,-1.1108,-1.2097,-1.3139,-1.4282,-1.5187,-1.6384,-1.76,-1.7941,-1.8344,-1.8798,-1.8922,-1.9384,-2.0003,-2.0944,-2.1332,-2.1713,-2.2909,-2.3493,-2.3865,-2.438,-2.4452,-2.4514,-2.5049,-2.5226,-2.5355,-2.5579,-2.5711,-2.5453,-2.4286,-2.3599,-2.2895,-2.2053,-2.1455,-2.0707,-1.953,-1.91,-1.8643,-1.8104,-1.7001,-1.6097,-1.5471,-1.4697,-1.3985,-1.3346,-1.3346,-1.3419,-1.3419,-1.3492,-1.3492,-1.3492,-1.3492,-1.3492,-1.3492,-1.3985,-1.4322,0.0,0.0,0.0,0.0,0.0,0.0,0.0,0.0,0.0,0.0,0.0,0.0,0.0,0.0,0.0,0.0,0.0,0.0,0.0,0.0,0.0,0.0,0.0,0.0,0.0,0.0,3.3458,3.4095,3.3712,3.3604,3.4107,3.3868,3.3774,3.3979,3.3984,3.3982,3.3984,3.395,3.3905,3.3905,2.9867,2.5316,2.0391,1.6283,0.9107,-0.107,-0.1182,-0.4056,-0.9232,-0.9368,-0.9678,-1.0152,-1.0372,-1.0861,-1.1546,-1.2564,-1.2636,-1.2108,-1.3066,-1.3925,-1.4842,-1.6045,-1.7097,-1.8007,-1.8762,-1.9214,-1.949,-1.9837,-2.0578,-2.1555,-2.2254,-2.2937,-2.3603,-2.4414,-2.4973,-2.5309,-2.537,-2.5511,-2.5722,-2.622,-2.6316,-2.6316,-2.6672,-2.664,-2.6467,-2.6054,-2.4924,-2.3917,-2.3458,-2.2677,-2.1803,-2.0951,-2.0193,-1.9486,-1.8757,-1.759,-1.6489,-1.5675,-1.4903,-1.4122,-1.3564,-1.3572,-1.3572,-1.3492,-1.3637,-1.3637,-1.3499,-1.3572,-1.3572,-1.3492,-1.4474,-1.5092,-1.5359,0.0,0.0,0.0,0.0,0.0,0.0,0.0,0.0,0.0,0.0,0.0,0.0,0.0,0.0,0.0,0.0,0.0,0.0,0.0,0.0,0.0,0.0,0.0,3.4565,3.3818,3.4004,3.569,3.4467,3.4086,3.5657,3.5098,3.4956,3.5749,3.5752,3.5688,3.5702,3.5699,3.5695,3.5695,3.5566,2.8827,1.4896,1.449,0.7198,-0.6912,-0.7664,-0.8271,-0.8524,-0.9177,-1.0245,-1.1539,-1.1011,-1.1642,-1.3005,-1.3717,-1.4032,-1.4107,-1.4575,-1.4868,-1.5207,-1.6567,-1.7467,-1.8162,-1.9433,-2.0225,-2.0797,-2.117,-2.2194,-2.3303,-2.3691,-2.4226,-2.4814,-2.5232,-2.5342,-2.5505,-2.5927,-2.6322,-2.6782,-2.7289,-2.7695,-2.8012,-2.8301,-2.7929,-2.76,-2.7849,-2.6304,-2.4867,-2.4394,-2.3327,-2.2347,-2.193,-2.1141,0.0,-1.9191,-1.8449,-1.7425,-1.5948,-1.5171,-1.4394,-1.3637,-1.379,-1.379,-1.3564,-1.392,-1.3992,-1.3564,-1.3717,-1.379,-1.363,-1.5046,-1.614,-1.6867,0.0,0.0,0.0,0.0,0.0,0.0,0.0,0.0,0.0,0.0,0.0,0.0,0.0,0.0,0.0,0.0,0.0,0.0,0.0,0.0,0.0,0.0,3.5821,3.547,3.5271,3.5357,3.585,3.5537,3.5451,3.5895,3.5655,3.5585,3.5855,3.5807,3.576,3.5768,3.5762,3.5753,3.5697,3.5621,3.3619,2.9508,2.4247,1.6632,0.6719,0.1544,-0.4642,-1.1481,-1.1484,-1.2168,-1.3327,-1.3192,-1.3341,-1.3853,-1.4595,-1.5013,-1.5386,-1.5965,-1.6476,-1.696,-1.8257,-1.9483,-2.0576,-2.0784,-2.1281,-2.1815,-2.1923,-2.2525,-2.3303,-2.3794,-2.469,-2.5681,-2.6124,-2.6564,-2.6981,-2.7024,-2.734,-2.7716,-2.7735,-2.811,-2.84,-2.811,-2.8207,-2.8143,-2.7485,-2.7166,-2.6739,-2.5577,-2.4469,-2.3623,-2.3195,-2.2089,0.0,-2.0899,-2.03,-1.9302,-1.7833,-1.7483,-1.6876,-1.5596,-1.5604,-1.5613,-1.5534,-1.5125,-1.4768,-1.4553,-1.4553,-1.5234,-1.6669,-1.6531,-1.7142,0.0,0.0,0.0,0.0,0.0,0.0,0.0,0.0,0.0,0.0,0.0,0.0,0.0,0.0,0.0,0.0,0.0,0.0,0.0,0.0,0.0,0.0,3.5964,3.5966,3.59,3.591,3.5932,3.5942,3.5981,3.6007,3.5994,3.5934,3.5895,3.5935,3.588,3.5844,3.5841,3.5811,3.5788,3.5735,3.5648,3.4097,3.0938,2.6676,1.8769,0.7378,0.3038,-0.3926,-1.2917,-1.3142,-1.373,0.0,-1.4681,-1.4824,-1.5108,-1.6009,-1.6507,0.0,0.0,0.0,0.0,0.0,-2.0665,-2.1536,-2.1733,-2.2176,-2.2727,-2.3029,-2.3716,-2.4479,-2.4991,-2.5952,-2.6912,-2.6991,-2.7459,-2.7845,-2.771,-2.8042,-2.8352,-2.8432,-2.881,-2.9058,-2.8764,-2.895,-2.895,-2.8258,-2.824,0.0,-2.71,-2.5835,-2.4824,-2.4425,-2.3467,-2.2615,-2.2139,-2.1694,-2.0651,-1.8629,-1.8372,-1.7833,-1.6437,-1.6367,0.0,0.0,0.0,-1.5754,-1.5534,-1.5587,0.0,0.0,0.0,-1.8475,-2.0084,0.0,0.0,0.0,-2.0037,-2.0261,0.0,0.0,0.0,0.0,0.0,0.0,0.0,0.0,0.0,0.0,0.0,0.0,0.0,0.0,0.0,0.0,3.5996,3.5996,3.5995,3.5991,3.6003,3.5994,3.5991,3.5988,3.5997,3.5997,3.6007,3.6003,3.5942,3.5916,3.591,0.0,0.0,0.0,0.0,3.211,2.4875,2.384,1.5819,0.0909,-0.0673,-0.5687,-1.3411,-1.4227,-1.4824,-1.5267,-1.5683,-1.5956,-1.6306,-1.7482,-1.8162,-1.8432,-1.9013,-1.9005,-1.8902,-2.0558,-2.143,-2.1837,-2.2544,0.0,0.0,-2.4381,-2.528,-2.6176,-2.6616,-2.7414,-2.8158,-2.7795,-2.7978,-2.824,-2.8158,-2.8448,-2.8826,-2.9104,-2.9512,-2.981,-2.9853,-2.9853,-2.9766,-2.956,-2.9182,-2.8858,-2.8559,-2.7049,-2.5849,-2.555,-2.498,-2.4213,-2.3191,-2.282,-2.1685,-1.9204,0.0,0.0,-1.6973,-1.6964,-1.7042,-1.6844,-1.7051,-1.7051,-1.6706,-1.6886,-1.7415,-1.8228,-1.8951,-2.0084,-2.1753,-2.1916,-2.2482,-2.345,-2.1186,-2.1037,0.0,0.0,0.0,0.0,0.0,0.0,0.0,0.0,0.0,0.0,0.0,0.0,0.0,0.0,0.0,3.5993,3.5995,3.5995,3.5995,3.5994,3.5989,3.5926,3.5923,3.5919,3.5919,3.5962,3.5997,3.5994,3.5992,3.5976,3.5976,3.5976,3.5937,3.5872,3.5652,3.2061,2.4875,1.8831,1.104,0.1598,0.0,0.0,-1.3411,-1.4212,-1.5021,-1.5692,-1.6403,-1.6403,-1.6035,-1.7413,-1.9023,-2.0473,-2.0549,-2.0737,-2.1116,-2.2225,-2.2917,-2.3257,-2.3778,-2.4213,-2.4603,-2.5177,-2.5699,-2.6229,-2.6707,-2.7276,0.0,-2.8061,-2.8255,-2.8288,-2.8255,-2.8638,-2.9028,-2.912,-2.9483,-2.9853,-3.0103,-3.0146,-3.0017,-2.956,-2.9425,-2.9198,-2.8606,-2.7555,-2.6672,-2.6347,-2.5713,-2.5107,-2.4641,-2.4137,-2.3361,-2.2213,-2.1682,-2.1066,-2.0246,-2.0193,-2.0182,-2.0182,-1.9433,-1.8961,-1.8895,-1.8685,-1.9159,-2.0451,-2.1003,-2.1655,-2.2482,-2.298,-2.3518,-2.3956,-2.3182,-2.305,0.0,0.0,0.0,0.0,0.0,0.0,0.0,0.0,0.0,0.0,0.0,3.586,3.588,0.0,3.5966,3.5995,3.5996,3.5996,3.5995,3.5995,3.5972,3.5907,3.5903,3.5919,3.5955,3.5949,3.5942,3.5955,3.5955,3.5947,3.594,3.5986,3.5971,3.5956,3.5724,3.3877,3.0297,2.2867,1.4771,0.608,-0.1491,-0.8255,-1.4004,-1.4799,-1.5455,-1.5956,-1.7028,-1.7304,-1.7139,-1.8489,-1.989,-2.1135,-2.1325,-2.1765,-2.2322,-2.3017,-2.3424,-2.3754,-2.4176,-2.4536,-2.5061,-2.5797,-2.6176,-2.6443,-2.724,-2.7745,-2.8091,-2.8304,-2.8543,-2.8732,-2.9012,-2.9074,-2.9212,-2.9705,-2.9793,-2.9897,-3.0258,-3.0274,-3.0103,-2.9722,-2.956,-2.9335,-2.8873,-2.848,-2.7966,-2.7071,-2.6692,-2.6201,-2.5536,-2.4908,-2.4137,-2.311,-2.2457,-2.1803,-2.1187,-2.1123,-2.1123,-2.1123,-2.0451,-2.0041,-2.0041,-2.0278,-2.0737,-2.1428,-2.2175,-2.2871,-2.3378,-2.3708,-2.406,-2.4478,-2.4637,-2.4738,0.0,0.0,0.0,0.0,0.0,0.0,0.0,0.0,3.5678,3.5728,3.5786,3.5849,3.5918,3.5953,3.5996,3.5976,3.5996,3.5996,3.5973,3.5995,3.5974,3.5932,3.5929,3.5932,3.5996,3.593,3.5898,3.5895,3.5876,3.5853,3.5864,3.5907,3.5955,3.5955,3.579,3.5026,3.3608,2.7625,1.9964,1.0701,0.3366,-0.4325,-1.2165,-1.4347,-1.5525,-1.6009,-1.7432,-1.8124,-1.8452,-1.977,-2.0613,-2.1187,-2.1827,-2.2396,-2.2909,-2.321,-2.3603,-2.3962,-2.4323,-2.4751,-2.5328,-2.6244,-2.651,-2.6669,-2.7575,-2.8107,-2.8383,-2.8463,-2.8795,-2.9182,-2.9572,-2.9438,-2.9393,-3.007,-3.0027,-2.9881,-3.03,-3.0316,-3.0189,-2.9853,-2.9677,-2.947,-2.9167,-2.9305,-2.8997,-2.7775,-2.7575,-2.7269,-2.6326,-2.5591,-2.4768,-2.3702,-2.305,-2.2457,-2.1904,-2.1842,-2.1842,-2.1842,-2.153,-2.133,-2.133,-2.183,-2.2151,-2.2151,-2.316,-2.3897,-2.4279,-2.4452,-2.4751,-2.516,-2.5865,-2.6096,3.4092,3.5636,3.5745,3.5717,3.5747,3.5778,0.0,0.0,3.587,3.5875,3.5935,3.5972,3.5994,3.5996,3.5976,3.5911,3.5957,3.5976,3.5916,3.5968,3.5994,3.5989,3.5989,3.5989,3.6009,3.5937,3.5898,3.5897,3.5797,3.5716,3.5716,3.5725,3.576,3.5825,3.5741,3.2615,2.6173,2.5121,2.0443,1.2163,0.4399,-0.0664,-0.3287,-1.0436,-1.4426,-1.5807,-1.7345,-1.8385,-1.9131,-2.042,-2.0996,-2.1187,-2.2334,-2.2848,-2.2909,-2.3078,-2.3623,-2.4429,-2.4854,-2.5342,-2.5879,-2.6481,-2.6587,-2.6616,-2.721,-2.7595,-2.7974,-2.8383,-2.8795,-2.912,-2.9166,-2.9438,-2.9661,-2.9348,-2.9528,-2.9793,-2.9897,-3.0215,-3.0342,-2.9897,-2.9793,-2.9633,-2.9167,-2.9121,-2.8982,-2.8463,-2.8271,-2.7978,-2.7335,-2.6365,-2.5715,-2.5591,-2.5063,-2.4654,-2.4597,-2.454,-2.454,-2.454,-2.4137,-2.3917,-2.3917,-2.3564,-2.3386,-2.3386,-2.4297,-2.4741,-2.4797,-2.5769,-2.6244,-2.6351,-2.7004,-2.6811,3.4374,3.5597,0.0,0.0,3.5758,3.5756,3.5838,3.5876,3.5899,3.5952,3.5957,3.5942,3.5995,3.5971,3.5945,0.0,3.5954,3.5955,3.5968,3.5976,3.5995,3.5996,3.5972,3.5925,3.5891,3.5862,3.5814,3.5729,3.5666,3.567,3.5697,3.5697,3.5721,3.5795,3.5779,3.4313,3.1332,2.6916,2.2801,1.8921,1.1278,0.4194,-0.2229,-0.6018,-1.1314,-1.755,-1.8385,-1.9288,-2.0289,-2.1244,-2.2053,-2.2832,-2.3657,-2.3741,-2.3352,-2.2884,-2.3505,-2.4614,-2.4657,-2.5412,-2.6428,-2.699,-2.7159,-2.7261,-2.8094,-2.814,-2.8088,-2.8826,-2.8826,-2.8779,-2.9348,-2.9438,-2.9483,-2.9837,-2.9661,-2.9528,-3.007,-3.0011,-2.9837,-2.9793,-2.9722,-2.9499,-2.9167,-2.9213,-2.9198,-2.892,-2.8415,-2.7929,-2.7437,-2.6539,-2.5784,-2.5425,-2.5133,-2.5007,-2.5007,-2.4851,-2.4738,-2.4738,-2.4266,-2.415,-2.454,-2.4469,-2.4627,-2.4966,-2.5481,-2.5769,-2.5823,-2.6215,-2.6404,-2.651,-2.721,-2.7261,3.4836,0.0,0.0,3.5718,3.5734,3.5776,3.5879,3.5907,3.5943,3.5979,3.5929,3.5929,3.5995,3.5968,3.5935,3.5968,3.5954,3.5935,3.5974,3.5995,3.5987,3.5968,3.5939,3.5866,3.5758,3.5761,3.5667,3.54,3.5348,3.5262,3.5144,3.5297,3.5433,3.5485,3.5689,3.5812,3.5847,3.0501,2.752,2.6878,1.9461,1.0949,0.1511,-0.4124,-1.0701,-1.7784,-1.8844,-1.9759,-2.0587,-2.1232,-2.2201,-2.3449,-2.3955,-2.4111,-2.3962,-2.322,-2.3728,-2.4741,-2.4827,-2.5658,-2.6782,-2.7312,-2.7515,-2.765,-2.8448,-2.8479,-2.8365,-2.8919,-2.881,-2.8701,-2.9287,-2.9348,-2.9438,-2.9984,-2.9793,-2.9617,-3.0027,-2.9924,-2.9689,-2.9617,-2.9589,-2.947,-2.9167,-2.9259,-2.9335,-2.9121,-2.8511,-2.7978,-2.7725,-2.6893,-2.615,-2.5742,-2.5673,-2.5728,-2.5809,-2.5536,-2.5384,-2.5384,-2.498,-2.491,-2.5356,-2.5412,-2.5686,-2.6187,-2.6375,-2.6549,-2.6707,-2.6759,-2.6916,-2.7159,-2.7715,-2.7997,3.5554,0.0,3.5677,3.5543,3.5703,3.5884,3.5898,3.595,3.5988,3.5923,3.5903,3.5916,3.5995,3.5996,3.5973,3.5908,3.5956,3.5976,3.5914,3.5957,3.5982,3.5899,3.589,3.5827,0.0,3.566,3.5461,3.4875,3.4691,3.4372,3.3807,3.4315,3.4653,3.4729,3.5426,3.5763,3.5714,3.5472,3.5295,3.5068,2.7939,2.0236,1.1727,-0.6286,-1.4622,-1.5056,-1.8055,-1.9341,-1.9407,-1.9911,-2.0887,-2.2078,-2.2639,-2.3605,-2.4627,-2.4513,-2.457,-2.4797,-2.5686,-2.6293,-2.6782,-2.7312,-2.7515,-2.7515,-2.7565,-2.8158,-2.8764,-2.8365,-2.8685,-2.9057,-2.8638,-2.9166,-2.9661,-2.9257,-2.981,-3.0215,-2.9348,-2.9837,-3.0199,-2.9303,-2.9483,-2.9633,-2.9167,-2.9121,-2.9121,-2.9075,-2.8764,-2.8463,-2.8463,-2.7825,-2.735,-2.7335,-2.7335,-2.7473,-2.7799,-2.7745,-2.7675,-2.7675,-2.724,-2.7004,-2.7019,-2.6654,-2.6549,-2.6678,-2.6797,-2.699,-2.7297,-2.7725,-2.8268,-2.8811,-2.8982,-2.9303,3.5496,0.0,3.5508,3.5562,3.5668,3.5772,3.5822,3.5895,3.5935,3.5956,3.5968,3.596,3.5947,3.594,3.5929,3.5903,3.5925,3.5937,3.5891,3.597,3.5957,3.5846,3.5605,0.0,0.0,0.0,0.0,3.4696,3.4247,3.3915,3.3783,3.3883,3.3982,3.4101,3.4301,3.4404,3.4356,3.478,3.4937,3.4746,2.6635,1.8804,1.1074,-0.1218,-0.9391,-1.4064,-1.6294,-1.7726,-1.8644,-2.0083,-2.1436,-2.2698,-2.3716,-2.4147,-2.4302,-2.5301,-2.5494,-2.5259,-2.5997,-2.682,-2.7625,-2.7974,-2.8122,-2.8171,-2.8463,-2.8701,-2.8951,-2.9104,-2.9164,-2.9239,-2.9467,-2.9438,-2.9438,-2.9941,-2.9793,-2.9677,-2.9984,-3.0027,-2.9984,-2.987,-2.981,-2.9722,-2.9425,-2.9213,-2.9029,-2.8716,-2.8574,-2.8415,-2.8158,-2.7879,-2.773,-2.773,-2.773,-2.7745,-2.781,-2.7595,-2.7429,-2.7342,-2.7019,-2.7004,-2.7363,-2.7159,-2.721,-2.7695,-2.7879,-2.8012,-2.811,-2.8638,-2.9012,-2.9241,-2.9483,-2.9661,0.0,3.5254,3.5399,3.5502,3.5631,3.5756,3.5812,3.5862,3.5917,3.5955,3.5951,3.5929,3.5896,3.59,3.5903,3.5908,3.5916,3.5936,3.5947,3.5835,3.5714,3.5624,3.5179,3.4829,0.0,0.0,0.0,3.3999,3.3677,3.314,3.2409,3.3002,3.3131,3.2675,3.3326,3.3697,3.3708,3.4025,3.4339,3.451,2.6665,2.0453,1.5588,0.6431,-0.1752,-0.8695,-1.0461,-1.3671,-1.757,-1.872,-2.0389,-2.2311,-2.3137,-2.3761,-2.4319,-2.537,-2.5823,-2.596,-2.6505,-2.7108,-2.7775,-2.825,-2.8411,-2.8493,-2.8951,-2.9166,-2.9257,-2.9512,-2.9569,-2.9569,-2.9705,-2.9438,-2.9303,-3.007,-2.981,-2.9528,-3.0113,-3.0156,-3.0027,-2.9941,-2.9853,-2.9722,-2.9515,-2.9305,-2.9029,-2.8764,-2.8716,-2.8511,-2.7963,-2.8012,-2.811,-2.811,-2.8076,-2.8091,-2.822,-2.7929,-2.773,-2.763,-2.7429,-2.7429,-2.773,-2.775,-2.7963,-2.835,-2.8622,-2.8748,-2.8811,-2.9166,-2.9467,-2.9673,-2.9881,-3.0097,3.4816,3.5032,3.5295,3.5374,3.5601,3.5794,3.5888,3.5899,3.5891,3.5893,3.5845,3.5812,0.0,0.0,3.5895,3.5903,3.5942,3.5995,3.5996,3.5607,3.5305,0.0,0.0,0.0,0.0,0.0,0.0,3.2585,0.0,3.1828,2.9805,3.1568,3.1945,3.0495,3.2282,3.3358,3.3455,3.3459,3.3885,3.4649,2.8526,2.539,2.4744,1.5845,0.7844,0.0798,-0.0926,-0.6734,-1.4975,-1.5291,-1.7309,-2.0319,-2.0825,-2.2578,-2.467,-2.4784,-2.5646,-2.6814,-2.7018,-2.7063,-2.7225,-2.8088,-2.8348,-2.8429,-2.8904,-2.9393,-2.975,-2.9677,-2.9881,-2.9995,-2.9499,-2.9273,-2.9257,-2.9705,-2.981,-2.981,-2.9853,-3.0156,-3.0284,-2.954,-2.9601,-2.9677,-2.9515,-2.9259,-2.9075,-2.9075,-2.9075,-2.8826,-2.8061,-2.8304,-2.8511,-2.8511,-2.8462,-2.8525,-2.8873,-2.87,-2.8589,-2.862,-2.8506,-2.8409,-2.8293,-2.8572,-2.8794,-2.8794,-2.9076,-2.9293,-2.9446,-2.9446,-2.9746,-3.0238,-3.0366,-3.0775,3.4756,3.485,3.5049,3.5258,3.538,3.5508,3.5757,3.5833,3.5846,3.5891,3.5858,3.5796,0.0,0.0,0.0,3.5839,3.5916,0.0,3.5935,3.5612,0.0,3.516,0.0,3.3549,3.2229,3.1359,0.0,0.0,2.8758,2.8938,2.8403,2.8698,2.8706,2.8304,2.8812,2.951,3.0395,3.1925,3.3093,3.3899,3.2834,2.9476,2.4143,2.2354,1.7573,1.0603,0.87,0.6507,0.3562,-0.4992,-0.9026,-1.0662,-1.8828,-2.2441,-2.3147,-2.4079,-2.5353,-2.661,-2.6858,-2.6873,-2.693,-2.753,-2.773,-2.7845,-2.8414,-2.9152,-2.9793,-2.975,-3.0199,-3.0675,-3.051,-3.007,-2.975,-3.0199,-3.007,-2.9897,-3.0258,-3.0316,-3.013,-2.9629,-2.9332,-2.9136,-2.9213,-2.9167,-2.9075,-2.9075,-2.9075,-2.9029,-2.8826,-2.8873,-2.8936,-2.8936,-2.8826,-2.8795,-2.8826,-2.8684,-2.8742,-2.9169,-2.915,-2.9331,-2.9653,-2.9669,-2.9807,-3.008,-3.0445,-3.0847,-3.132,-3.1749,-3.2122,-3.234,-3.2436,-3.2606,3.2568,3.2775,3.328,3.4753,3.5174,3.5315,3.5715,3.582,3.5846,3.5859,3.5854,0.0,3.5728,0.0,0.0,0.0,0.0,0.0,3.547,3.5145,3.4668,0.0,3.2875,0.0,3.0646,2.9212,2.7798,0.0,2.7463,2.7206,2.5303,2.617,2.6104,2.4732,2.527,2.6466,2.8381,2.9901,3.147,3.3123,3.3951,3.2367,2.8691,2.9149,2.5584,1.8974,0.0,1.5198,1.0521,-0.0285,-0.4572,-0.5539,-1.7139,-2.1294,-2.1004,-2.2823,-2.4313,-2.5664,-2.6445,-2.6699,-2.6762,-2.7765,-2.8,-2.7991,-2.8539,-2.9044,-2.9438,-2.9556,-3.0054,-3.051,-3.0426,-3.0113,-2.9941,-3.0384,-3.0156,-2.9897,-3.03,-3.0274,-3.0087,-2.9661,-2.9364,-2.9152,-2.9121,-2.9075,-2.9075,-2.9075,-2.9075,-2.9075,-2.9013,-2.9013,-2.9013,-2.9013,-2.8889,-2.8748,-2.8732,-2.8867,-2.9095,-2.9381,-2.9689,-2.9925,-3.0083,-3.05,-3.0725,-3.0829,-3.1454,-3.1962,-3.2335,-3.2668,-3.2862,-3.3011,-3.3125,-3.3194,3.0096,3.0527,3.1413,3.4082,3.4951,3.5284,3.5706,3.585,3.5868,3.5816,0.0,3.5851,3.5728,3.5528,3.5343,3.5302,0.0,3.4923,3.468,3.4317,3.3612,3.2402,3.0786,2.9632,2.9414,2.695,2.5625,2.6124,2.71,2.6054,2.2293,2.4218,2.4205,2.1488,2.2711,2.4507,2.6922,2.7987,2.9691,3.2072,3.3133,3.392,3.448,3.4565,3.1591,2.6401,2.6548,0.0,1.4081,0.4362,0.005,-0.1612,-1.3947,-1.8724,-1.8903,-2.1435,-2.3171,-2.4459,-2.5735,-2.643,-2.7001,-2.8405,-2.8689,-2.8621,-2.9042,-2.9155,-2.9265,-2.9512,-2.9935,-3.0261,-3.0129,-3.0129,-3.0288,-3.0549,-3.0346,-3.0054,-3.0205,-3.0146,-2.9957,-2.9515,-2.938,-2.9289,-2.9121,-2.9075,-2.9075,-2.9075,-2.9075,-2.9029,-2.892,-2.8904,-2.8904,-2.8873,-2.87,-2.862,-2.8713,-2.9123,-2.9489,-2.9759,-3.0279,-3.0477,-3.0358,-3.1259,-3.1642,-3.1381,-3.2378,-3.2933,-3.2978,-3.2978,-3.3039,-3.3206,-3.3295,-3.3426,3.1626,3.2209,3.2986,3.371,3.4681,3.5514,3.5802,3.5841,0.0,0.0,3.5806,3.5783,3.5702,3.5708,3.5613,3.5348,0.0,0.0,0.0,0.0,3.2365,0.0,0.0,0.0,0.0,0.0,0.0,0.0,0.0,2.456,2.3618,2.3813,2.3683,2.3012,2.4216,2.5079,2.554,2.7876,2.9312,2.9807,3.1735,3.2693,3.2847,3.339,3.3451,3.3115,3.3043,0.0,3.1991,2.2288,1.4847,0.8334,-0.3868,-1.257,-1.8497,-2.0994,-2.2809,-2.4108,-2.4366,-2.6101,-2.8305,-2.8555,-2.9015,-2.9379,-2.9373,-3.0017,-3.0698,-3.0649,-3.1246,-3.1867,-3.1665,-3.1909,-3.2062,-3.1527,-3.1351,-3.1127,-3.0558,-2.9881,-2.9348,-2.9213,-2.8904,-2.8764,-2.9075,-2.9075,-2.9075,-2.8967,-2.892,-2.8936,-2.8826,-2.8889,-2.8873,-2.8826,-2.8684,-2.8805,-2.9363,-2.9385,-3.0076,-3.164,-3.1415,-3.1566,-3.2268,-3.2498,-3.2641,-3.2835,-3.3496,-3.4072,-3.4518,-3.4518,-3.4565,-3.4722,-3.4722,-3.486,3.1054,3.1557,3.2364,3.3941,3.4869,3.5463,3.572,0.0,0.0,0.0,3.5783,3.5836,3.576,3.5684,0.0,0.0,0.0,0.0,0.0,0.0,0.0,0.0,0.0,0.0,0.0,0.0,0.0,0.0,0.0,2.2591,2.2017,2.1611,2.135,2.13,2.1788,2.277,2.4238,2.5459,2.7176,2.9371,3.0393,3.1462,3.2457,3.2783,3.3399,3.4206,3.4551,0.0,3.5269,2.6323,2.1426,1.8371,0.652,-0.2945,-1.0212,-1.2755,-1.7517,-2.2988,-2.3921,-2.5841,-2.7998,-2.8385,-2.9015,-2.9718,-2.9932,-3.0075,-3.0164,-3.0469,-3.0911,-3.1389,-3.1614,-3.1962,-3.2266,-3.2205,-3.2095,-3.1879,-3.1401,-3.0392,-2.9627,-2.9674,-2.9029,-2.8622,-2.892,-2.9013,-2.8967,-2.8858,-2.8858,-2.8811,-2.8732,-2.8716,-2.87,-2.8684,-2.8914,-2.9157,-2.9481,-3.0094,-3.0913,-3.2017,-3.2185,-3.2369,-3.268,-3.3282,-3.3475,-3.3182,-3.4068,-3.4643,-3.4899,-3.4899,-3.4947,-3.4994,-3.5041,-3.4977,3.0715,3.1166,3.1974,3.4165,3.5054,3.5467,3.5712,3.5792,0.0,3.5678,3.5788,3.5884,3.5821,0.0,3.5585,0.0,3.4254,0.0,0.0,0.0,0.0,0.0,0.0,0.0,0.0,0.0,0.0,0.0,0.0,0.0,2.0762,2.0486,2.0359,2.0359,2.0167,2.1125,2.3436,2.3568,2.5497,2.9118,2.9355,3.0477,3.2277,3.2228,3.2635,3.3411,3.3995,0.0,0.0,2.8279,2.611,2.5839,1.6416,0.6537,-0.2722,-0.5177,-1.2757,-2.2004,-2.3425,-2.5448,-2.7457,-2.8042,-2.9102,-3.0229,-3.0578,-3.0211,-2.9814,-3.0441,-3.0812,-3.1145,-3.1552,-3.2047,-3.251,-3.2764,-3.2586,-3.2275,-3.1996,-3.1071,-3.0337,-3.0353,-2.9656,-2.9074,-2.9077,-2.9093,-2.9014,-2.881,-2.8747,-2.87,-2.8589,-2.8589,-2.8589,-2.8589,-2.9061,-2.9473,-2.9612,-3.072,-3.1604,-3.2165,-3.2682,-3.2911,-3.2803,-3.3646,-3.3799,-3.3198,-3.4202,-3.4756,-3.4756,-3.4835,-3.4851,-3.4739,-3.4851,-3.4578,3.2474,3.3004,3.3604,3.4002,3.4931,3.5781,3.5937,0.0,3.5878,3.5795,3.5839,3.5895,3.5894,3.5937,3.5837,3.5474,0.0,3.4017,0.0,0.0,0.0,0.0,0.0,0.0,0.0,0.0,0.0,0.0,0.0,0.0,2.2396,2.31,2.3484,2.3484,2.3292,2.3339,2.3564,2.4662,2.606,2.7773,2.8801,3.0146,3.1582,3.1414,3.1795,3.2596,3.2513,0.0,0.0,3.5949,3.2684,2.7428,2.4912,1.3119,-0.2726,-0.519,-1.2729,-2.1807,-2.2014,-2.4449,-2.7546,-2.7637,-2.944,-3.1474,-3.1099,-3.1127,-3.1414,-3.1896,-3.2377,-3.2739,-3.2509,-3.33,-3.3925,-3.3465,-3.2793,-3.2196,-3.171,-3.1534,-3.134,-3.0979,-3.0833,-3.0532,-2.9824,-2.9715,-2.9463,-2.8729,-2.8636,-2.8589,-2.846,-2.8396,-2.8396,-2.8396,-2.9012,-2.9673,-3.0289,-3.0891,-3.1697,-3.2861,-3.2864,-3.3002,-3.3287,-3.3423,-3.3371,-3.3182,-3.3866,-3.4151,-3.4151,-3.4643,-3.4643,-3.4151,-3.4201,-3.3901,3.4382,3.4699,3.4991,3.4923,3.5366,3.5813,3.5871,0.0,3.58,3.5703,3.5801,3.5858,3.5681,3.5779,3.5788,3.5507,3.4683,0.0,3.2499,0.0,0.0,0.0,0.0,0.0,0.0,0.0,0.0,0.0,0.0,0.0,2.2017,2.3361,2.4002,2.3585,2.4034,2.4234,2.4118,2.4513,2.5451,2.6732,2.6825,2.8264,3.0811,3.0286,3.0695,3.1795,3.2147,0.0,0.0,3.6385,3.5872,3.3668,3.4527,2.6412,1.3377,0.6066,-0.3286,-1.3244,-1.957,-2.4378,-2.756,-2.7288,-2.9285,-3.189,-3.2461,-3.2089,-3.1709,-3.2571,-3.2656,-3.2617,-3.3156,-3.3984,-3.4577,-3.4185,-3.3842,-3.3485,-3.2962,-3.2276,-3.1706,-3.162,-3.1036,-3.0474,-3.0313,-3.0266,-2.9983,-2.9203,-2.9095,-2.8907,-2.8458,-2.8411,-2.8411,-2.8411,-2.9381,-3.0084,-3.0278,-3.1236,-3.205,-3.2718,-3.3002,-3.3214,-3.3287,-3.3935,-3.4118,-3.3764,-3.4284,-3.4594,-3.4594,-3.4448,-3.43,-3.4101,-3.3713,-3.3266,3.5495,3.5651,3.5744,3.5626,3.5701,3.5799,0.0,0.0,3.5759,3.5603,3.5718,3.5775,3.5541,3.5624,3.5698,3.5551,3.4607,3.3757,3.3306,0.0,0.0,0.0,0.0,0.0,0.0,0.0,0.0,0.0,0.0,0.0,0.0,2.3826,2.4412,2.3238,2.4124,2.4624,2.4738,2.435,2.5037,2.6652,2.605,2.7368,3.0476,2.9927,3.0294,3.1393,3.1863,0.0,0.0,3.5241,3.6575,3.7219,3.9498,3.4058,2.3677,1.3418,0.2956,-0.7583,-1.8124,-2.4378,-2.756,-2.7171,-2.9346,-3.2422,-3.3523,-3.2895,-3.1946,-3.2917,-3.2788,-3.2617,-3.3539,-3.4151,-3.4497,-3.43,-3.425,-3.4151,-3.371,-3.2882,-3.2259,-3.2327,-3.1585,-3.1004,-3.0892,-3.0846,-3.0577,-2.9812,-2.972,-2.955,-2.9058,-2.8947,-2.8947,-2.8947,-2.9925,-3.047,-3.0204,-3.1372,-3.2135,-3.2342,-3.2819,-3.3071,-3.3002,-3.3732,-3.4068,-3.3815,-3.4218,-3.448,-3.4643,-3.4448,-3.425,-3.4101,-3.3475,-3.2841,3.5467,3.57,3.572,3.578,3.5794,3.5796,0.0,0.0,3.5741,3.5535,3.56,3.565,3.5524,3.5562,3.5593,3.5597,3.5299,3.4683,3.3564,0.0,0.0,0.0,0.0,0.0,0.0,0.0,0.0,0.0,0.0,0.0,0.0,2.4954,2.519,2.2882,2.38,2.4567,2.5175,2.4319,2.519,2.7792,2.7018,2.8074,3.068,3.0616,3.0971,0.0,0.0,0.0,0.0,3.3415,3.4655,3.6205,3.8012,3.2701,2.2842,1.3229,0.2979,-0.7586,-1.8161,-2.4378,-2.7546,-2.7366,-2.9817,-3.3058,-3.4,-3.3355,-3.24,-3.3024,-3.2986,-3.2949,-3.3678,-3.3797,-3.3694,-3.371,-3.371,-3.3642,-3.3346,-3.3293,-3.324,-3.3081,-3.2989,-3.2609,-3.1734,-3.1489,-3.1151,-3.0505,-3.0412,-3.0412,-3.0397,-3.0278,-3.0173,-3.0173,-3.0677,-3.0776,-3.025,-3.1182,-3.1799,-3.1799,-3.2191,-3.2398,-3.2398,-3.2453,-3.2695,-3.3182,-3.3182,-3.3527,-3.4101,-3.4659,-3.4594,-3.4101,-3.3475,-3.2571,3.4483,3.497,3.5418,3.5412,3.5449,3.5546,3.5571,3.5463,3.529,3.5172,3.5348,3.543,3.5189,3.5334,3.5425,3.5292,3.5162,3.4886,0.0,0.0,0.0,0.0,0.0,0.0,0.0,0.0,0.0,0.0,0.0,0.0,0.0,2.4913,2.5038,2.4466,2.5671,2.6332,2.6361,2.6094,2.624,2.6923,2.6799,2.7606,2.9159,2.9766,3.036,0.0,0.0,0.0,0.0,3.3234,3.436,3.5477,3.7801,3.7075,3.2684,1.5728,0.7423,0.2074,-1.5777,-2.4636,-2.8034,-2.7648,-3.0162,-3.3439,-3.3797,-3.3351,-3.2788,-3.2895,-3.2933,-3.3002,-3.3214,-3.361,-3.3949,-3.3745,-3.3694,-3.3658,-3.3346,-3.315,-3.2866,-3.2382,-3.2104,-3.1834,-3.155,-3.152,-3.1405,-3.1129,-3.0983,-3.0761,-3.0302,-3.0151,-3.0046,-3.0046,-3.0531,-3.0724,-3.0567,-3.1328,-3.1727,-3.1597,-3.2079,-3.2398,-3.2398,-3.2734,-3.3039,-3.3182,-3.3182,-3.3303,-3.3475,-3.3282,-3.2911,-3.2342,-3.2104,-3.1838,3.3716,3.4468,3.5128,3.5187,3.5225,3.529,3.5403,0.0,3.5085,3.5007,3.512,3.5155,3.4963,3.5015,3.51,3.5073,3.4946,0.0,0.0,0.0,0.0,0.0,0.0,0.0,0.0,0.0,0.0,0.0,0.0,0.0,0.0,2.5887,2.598,2.6112,2.6672,2.7078,2.7195,2.6872,2.6834,2.7137,2.699,2.75,2.8654,2.917,2.9927,0.0,0.0,0.0,0.0,3.2579,3.3362,3.4207,3.6423,3.7908,3.6367,1.6265,0.9193,0.6606,-1.4746,-2.4201,-2.7013,-2.7274,-3.0133,-3.3511,-3.3729,-3.3471,-3.3124,-3.3355,-3.3145,-3.2949,-3.3071,-3.3471,-3.3761,-3.3607,-3.3503,-3.345,-3.3256,-3.285,-3.2398,-3.2003,-3.1492,-3.1102,-3.1102,-3.1233,-3.133,-3.1248,-3.1203,-3.1066,-3.0891,-3.0558,-3.0408,-3.0643,-3.0895,-3.1024,-3.1024,-3.1414,-3.1597,-3.1539,-3.1853,-3.2064,-3.2064,-3.2367,-3.268,-3.2895,-3.2895,-3.2986,-3.3182,-3.2841,-3.2367,-3.1853,-3.1853,-3.1697,0.0,3.407,3.4767,3.5066,3.5059,3.5011,3.5184,3.5133,0.0,3.4926,3.4889,3.4832,3.4773,3.4674,3.4694,3.4964,3.467,0.0,0.0,0.0,0.0,0.0,0.0,0.0,0.0,0.0,0.0,0.0,0.0,0.0,0.0,2.7675,2.786,2.7745,2.7115,2.71,2.7784,2.7019,2.7202,2.8317,2.7665,2.7966,2.9057,2.9055,2.9794,0.0,0.0,0.0,0.0,3.1671,3.2004,3.2728,3.4285,3.59,3.5077,1.6101,0.9354,0.6727,-1.3835,-2.2622,-2.509,-2.6802,-2.9999,-3.3251,-3.3781,-3.3543,-3.3339,-3.4119,-3.3547,-3.2803,-3.3134,-3.324,-3.324,-3.3309,-3.3203,-3.3096,-3.3112,-3.2492,-3.189,-3.1819,-3.1057,-3.0466,-3.0406,-3.0659,-3.0984,-3.097,-3.1043,-3.1233,-3.1868,-3.1263,-3.1087,-3.167,-3.1597,-3.1482,-3.1482,-3.1482,-3.1482,-3.1482,-3.1482,-3.1482,-3.1482,-3.1482,-3.1739,-3.2342,-3.2342,-3.2586,-3.3093,-3.3093,-3.2841,-3.2342,-3.2342,-3.2023,3.2028,0.0,3.3846,3.4381,3.4526,3.4548,0.0,3.4439,0.0,0.0,0.0,3.4508,3.4435,3.4691,3.4926,3.4981,0.0,0.0,0.0,0.0,0.0,0.0,0.0,0.0,0.0,0.0,0.0,0.0,0.0,0.0,0.0,2.8481,2.8962,2.9098,2.9479,2.9319,2.8686,2.9039,2.9326,2.9524,2.994,2.988,2.9432,3.0948,3.1422,0.0,0.0,0.0,3.2144,3.1765,3.2386,3.3657,3.4562,3.6231,3.668,2.4539,1.558,0.7609,-0.5517,-1.6865,-2.5971,-2.9064,-3.1306,-3.2911,-3.3781,-3.3507,-3.3002,-3.3495,-3.2826,-3.2048,-3.2508,-3.2672,-3.2834,-3.3096,-3.3096,-3.3043,-3.2951,-3.2578,-3.1962,-3.0999,-3.0421,-2.9936,-2.9428,-2.9875,-3.0435,-3.0911,-3.1379,-3.1452,-3.1146,-3.1219,-3.1219,-3.0837,-3.1219,-3.1482,-3.1482,-3.1482,-3.1482,-3.1482,-3.1482,-3.1482,-3.1482,-3.1482,-3.1582,-3.1697,-3.1697,-3.1796,-3.1894,-3.1894,-3.1838,-3.1697,-3.1697,-3.164,3.1607,3.2456,3.3276,3.4064,3.4245,3.4245,3.434,3.4197,0.0,0.0,0.0,3.4279,3.4197,3.4279,0.0,0.0,0.0,0.0,0.0,0.0,0.0,0.0,0.0,0.0,0.0,0.0,0.0,0.0,0.0,0.0,0.0,2.8575,2.9039,2.9512,3.0212,3.0352,2.9923,3.0185,3.0285,3.0117,3.0534,3.0352,2.9827,3.1009,3.1425,0.0,0.0,0.0,3.237,3.2126,3.2541,3.346,3.4163,3.5888,3.6745,2.6787,2.0407,1.4513,-0.1021,-1.5308,-2.6973,-2.8588,-3.0789,-3.3002,-3.3781,-3.3193,-3.2422,-3.313,-3.2501,-3.1724,-3.2176,-3.2302,-3.2398,-3.2602,-3.2492,-3.2327,-3.2247,-3.1751,-3.1072,-3.0421,-2.9827,-2.9219,-2.8583,-2.8903,-2.9532,-3.0133,-3.0478,-3.0613,-3.0613,-3.0792,-3.0807,-3.0418,-3.1043,-3.1351,-3.1307,-3.1307,-3.1366,-3.1482,-3.1482,-3.1482,-3.1482,-3.1482,-3.1482,-3.1482,-3.1482,-3.1482,-3.1482,-3.1482,-3.1482,-3.1482,-3.1482,-3.1482,3.1575,3.227,3.2926,3.3895,3.4074,3.4023,3.4173,3.4124,0.0,0.0,0.0,0.0,3.3902,3.3778,0.0,0.0,0.0,0.0,0.0,0.0,0.0,0.0,0.0,0.0,0.0,0.0,0.0,0.0,0.0,0.0,0.0,2.8764,2.9178,2.9766,3.0482,3.1048,3.137,3.1021,3.0801,3.0704,3.0583,3.046,3.0394,3.0683,3.1113,3.1681,0.0,0.0,3.2606,3.2489,3.2634,3.2936,3.3628,3.5225,3.6179,2.786,2.4931,2.2129,0.096,-1.5105,-2.6401,-2.6752,-2.9462,-3.2748,-3.3491,-3.2765,-3.1823,-3.2648,-3.217,-3.1495,-3.2023,-3.2038,-3.1966,-3.2114,-3.1762,-3.1377,-3.1407,-3.0689,-2.995,-2.9827,-2.9219,-2.8546,-2.7842,-2.8157,-2.8597,-2.9044,-2.9296,-2.9546,-3.0054,-3.0176,-3.0176,-3.0115,-3.0598,-3.0911,-3.094,-3.094,-3.1073,-3.1424,-3.1424,-3.1482,-3.1467,-3.1467,-3.1467,-3.1482,-3.1482,-3.1482,-3.1482,-3.1482,-3.1482,-3.1482,-3.1482,-3.1482,3.1781,3.2289,3.2823,3.3718,3.3895,3.3842,3.3868,3.3834,3.3753,0.0,0.0,0.0,0.0,3.3725,0.0,0.0,0.0,0.0,0.0,0.0,0.0,0.0,0.0,0.0,0.0,0.0,0.0,0.0,0.0,0.0,2.9657,3.0542,3.1202,3.1579,3.2246,3.2731,3.3019,3.2385,3.2109,3.2248,3.2074,3.1878,3.1716,3.24,3.2616,3.2535,0.0,3.3063,3.3142,3.2504,3.2624,3.325,3.3592,3.4774,3.629,3.6075,3.09,2.1075,0.0847,-1.1843,-1.9992,-2.5227,-2.8337,-3.0456,-3.2369,-3.2312,-3.1537,-3.1534,-3.1218,-3.1058,-3.1811,-3.1868,-3.1838,-3.2272,-3.1849,-3.1319,-3.1087,-3.0435,-2.9642,-2.9093,-2.8739,-2.8287,-2.7523,-2.7908,-2.8274,-2.8182,-2.9205,-2.9704,-2.9268,-2.9704,-2.9827,-2.9268,-2.9317,-2.9566,-3.0147,-3.0147,-3.0464,-3.1132,-3.1132,-3.119,-3.1351,-3.1351,-3.1409,-3.1482,-3.1482,-3.1482,-3.1482,-3.1482,-3.1482,-3.1482,-3.1482,-3.1482,3.1632,3.2236,3.29,3.3744,3.3815,3.3671,3.3661,3.353,3.3455,0.0,0.0,0.0,0.0,0.0,0.0,0.0,0.0,0.0,0.0,0.0,0.0,0.0,0.0,0.0,0.0,0.0,0.0,0.0,0.0,0.0,3.067,3.1004,3.1539,3.2243,3.2464,3.289,3.3549,3.316,3.2912,3.2816,3.2636,3.2486,3.2385,3.3001,3.3142,3.2988,0.0,3.3522,3.3273,3.2939,3.3099,3.3603,3.3923,3.4961,3.6542,3.8454,3.0168,1.6745,0.8066,-0.5653,-1.975,-2.1854,-2.5056,-2.8312,-3.0089,-2.9906,-2.9307,-3.0586,-3.0984,-3.1043,-3.1073,-3.1379,-3.1667,-3.1407,-3.0955,-3.048,-3.0389,-2.9704,-2.903,-2.8675,-2.8481,-2.8157,-2.7403,-2.7469,-2.7643,-2.7894,-2.839,-2.8839,-2.8903,-2.9156,-2.9219,-2.8903,-2.8903,-2.8953,-2.9192,-2.9192,-2.9718,-3.1014,-3.1087,-3.1132,-3.119,-3.1176,-3.1234,-3.1409,-3.1409,-3.1409,-3.1409,-3.1409,-3.1409,-3.1409,-3.1307,-3.1366,3.1797,3.2465,3.3197,3.385,3.386,3.3671,3.3605,3.3444,0.0,0.0,0.0,0.0,0.0,0.0,0.0,0.0,0.0,0.0,0.0,0.0,0.0,0.0,0.0,0.0,0.0,0.0,0.0,0.0,0.0,0.0,3.1593,3.1502,3.1882,3.2746,3.2674,3.2991,3.3807,3.3698,3.3473,3.3129,3.3019,3.2908,3.283,3.3302,3.3437,3.3321,3.3797,3.3823,3.3504,3.339,3.3478,3.3734,3.4158,3.5288,3.6842,3.8672,2.8799,1.4518,1.4434,0.0324,-1.7832,-1.8524,-2.1424,-2.5086,-2.6985,-2.7118,-2.6986,-2.874,-2.9732,-3.0317,-3.0375,-3.094,-3.1248,-3.0629,-3.0133,-2.9642,-2.9421,-2.8725,-2.8157,-2.8157,-2.8105,-2.7842,-2.7268,-2.6998,-2.7079,-2.7456,-2.7643,-2.7894,-2.8338,-2.8403,-2.8403,-2.8403,-2.8274,-2.8195,-2.8247,-2.8505,-2.9219,-3.0522,-3.0836,-3.1014,-3.1014,-3.1014,-3.1073,-3.1234,-3.1234,-3.1234,-3.1234,-3.1234,-3.1234,-3.1234,-3.1132,-3.119,3.272,3.3346,3.3847,3.3954,3.3998,3.3947,3.3895,3.3726,0.0,3.328,0.0,0.0,0.0,0.0,0.0,0.0,0.0,0.0,0.0,0.0,0.0,0.0,0.0,0.0,0.0,0.0,0.0,0.0,0.0,0.0,3.2417,3.2709,3.31,3.3597,3.3716,3.3902,3.4173,3.4099,3.3895,3.3577,3.3491,3.3357,3.319,3.3634,3.377,3.3597,3.3876,3.4049,3.4105,3.3671,3.3429,3.3421,3.4177,3.5511,3.7065,3.7987,2.9971,1.8228,1.498,0.4293,-0.9105,-1.625,-1.8729,-1.9635,-2.2902,-2.4824,-2.5815,-2.5066,-2.5995,-2.7784,-3.0151,-3.0703,-3.0569,-3.054,-2.9997,-2.9254,-2.8312,-2.7564,-2.7079,-2.7079,-2.7079,-2.7011,-2.6782,-2.6726,-2.6714,-2.6589,-2.7095,-2.7484,-2.7351,-2.7297,-2.7297,-2.7297,-2.6782,-2.6726,-2.7484,-2.8481,-2.9099,-2.9226,-3.0144,-3.0702,-3.0821,-3.0821,-3.0881,-3.1132,-3.1132,-3.1132,-3.1132,-3.1132,-3.1132,-3.1132,-3.1073,-3.1087,3.2794,3.3438,3.3998,3.4099,3.4074,0.0,0.0,3.3569,3.3309,3.3357,3.3068,0.0,0.0,0.0,0.0,0.0,0.0,0.0,0.0,0.0,0.0,0.0,0.0,0.0,0.0,0.0,0.0,0.0,0.0,0.0,0.0,3.3421,3.3661,3.4124,3.4012,3.4062,3.4269,3.4316,3.4269,3.4099,3.3842,3.3797,3.388,3.4147,3.4246,3.4213,3.447,3.4532,3.4489,3.4189,3.4086,3.4162,3.4661,3.5705,3.698,3.7917,3.0365,1.9616,1.9344,0.832,-0.6135,-0.8459,-1.2374,-1.6517,-1.8234,-1.9412,-2.0702,-2.2732,-2.3034,-2.367,-2.7301,-2.8434,-2.8697,-2.9038,-2.8812,-2.8427,-2.8051,-2.7443,-2.6943,-2.6875,-2.6714,-2.6577,-2.644,-2.5861,-2.5499,-2.5594,-2.5697,-2.5951,-2.6408,-2.6402,-2.6564,-2.6947,-2.6427,-2.6188,-2.6496,-2.7284,-2.7736,-2.7736,-2.931,-3.028,-3.0355,-3.0582,-3.0762,-3.0895,-3.0895,-3.0895,-3.0895,-3.0895,-3.0895,-3.0895,-3.0821,-3.0895,3.3302,3.3775,3.4148,3.4245,0.0,0.0,3.3972,3.3634,3.3321,3.3357,3.3099,0.0,0.0,0.0,0.0,0.0,0.0,0.0,0.0,0.0,0.0,0.0,0.0,0.0,0.0,0.0,0.0,0.0,0.0,0.0,0.0,3.3968,3.4093,3.4502,3.4375,3.4353,3.4498,3.4564,3.4607,3.4588,3.4334,3.4274,3.4405,3.4555,3.4639,3.4699,3.4887,3.4906,3.4813,3.4675,3.4718,3.4838,3.4622,3.5069,3.5923,3.6545,2.9298,1.9419,2.137,1.2034,-0.0946,-0.189,-0.5485,-1.005,-1.2618,-1.4356,-1.6075,-1.9034,-1.9649,-2.011,-2.3268,-2.5229,-2.6467,-2.6822,-2.6953,-2.6979,-2.6655,-2.6445,-2.622,-2.6082,-2.6151,-2.6233,-2.6094,-2.5288,-2.4719,-2.4862,-2.4564,-2.4612,-2.5426,-2.5475,-2.5734,-2.6402,-2.6164,-2.591,-2.591,-2.6414,-2.6731,-2.6731,-2.8325,-2.9387,-2.9651,-2.9884,-3.0129,-3.0401,-3.0326,-3.0266,-3.0266,-3.0129,-3.004,-3.0054,-3.0251,-3.0251,3.4367,3.4502,3.4386,3.4386,0.0,0.0,3.4316,3.4049,3.368,3.3202,0.0,3.319,3.319,0.0,0.0,0.0,0.0,0.0,0.0,0.0,0.0,0.0,0.0,0.0,0.0,0.0,0.0,0.0,0.0,0.0,0.0,3.4325,3.4542,3.4812,3.487,3.4889,3.4889,3.4851,3.487,3.4997,3.4935,3.4792,3.46,3.4812,3.4902,3.4921,3.5062,3.5114,3.5114,3.5114,3.522,3.5268,3.3871,3.3529,3.378,3.3595,2.6691,1.7711,2.012,1.5434,0.7572,0.2734,0.1536,0.077,-0.5972,-1.0189,-1.2794,-1.3605,-1.5621,-1.7569,-1.8171,-2.1159,-2.4001,-2.381,-2.4449,-2.4755,-2.3711,-2.412,-2.4707,-2.4707,-2.5312,-2.584,-2.584,-2.5229,-2.4636,-2.4636,-2.3963,-2.3672,-2.4264,-2.4409,-2.4707,-2.5453,-2.5758,-2.591,-2.591,-2.622,-2.6414,-2.6414,-2.7082,-2.7868,-2.8739,-2.8803,-2.9071,-2.9602,-2.9289,-2.9099,-2.9099,-2.8712,-2.8492,-2.8492,-2.9282,-2.9219,3.4624,3.4632,0.0,3.4526,0.0,0.0,0.0,3.4074,0.0,0.0,3.2908,3.297,0.0,0.0,0.0,0.0,0.0,0.0,0.0,0.0,0.0,0.0,0.0,0.0,0.0,0.0,0.0,0.0,0.0,0.0,0.0,3.4715,3.4908,3.5089,3.5107,3.5072,3.4963,3.5095,3.4864,3.4304,3.4465,3.4766,3.5177,3.5258,3.5384,3.5461,3.5496,3.5516,3.553,3.5521,3.5463,3.5368,3.5091,3.4335,3.3509,3.4524,2.9911,2.3244,2.3794,1.9833,1.3892,1.0054,0.6675,0.3191,-0.1572,-0.5339,-0.8291,-0.9984,-1.1398,-1.2903,-1.4979,-1.6395,-1.7926,-2.0671,-2.2115,-2.2783,-2.2424,-2.3018,-2.3661,-2.3661,-2.3745,-2.3745,-2.3588,-2.2776,-2.2253,-2.2649,-2.2188,-2.2103,-2.285,-2.3514,-2.3975,-2.3986,-2.4683,-2.5147,-2.5147,-2.5206,-2.5394,-2.5581,-2.5861,-2.6731,-2.8417,-2.8675,-2.9071,-2.9602,-2.9477,-2.954,-2.9803,-2.9212,-2.8994,-2.9093,-2.9421,-2.9421,3.4831,3.4733,0.0,3.4588,3.4498,3.434,3.434,0.0,0.0,0.0,0.0,0.0,0.0,0.0,0.0,0.0,0.0,0.0,0.0,0.0,0.0,0.0,0.0,0.0,0.0,0.0,0.0,0.0,0.0,0.0,0.0,3.4944,3.5122,3.5273,3.5273,3.5251,3.5189,3.5328,3.4967,3.4195,3.4369,3.4478,3.4574,3.4944,3.5317,3.569,3.5696,3.5688,3.571,3.5695,3.5634,3.5448,3.4737,3.3843,3.2963,3.2808,2.9616,2.5371,2.5567,2.2654,1.8291,1.4996,1.1271,0.7105,0.2188,-0.1057,-0.369,-0.6666,-0.8442,-0.9784,-1.1395,-1.2511,-1.4011,-1.7649,-1.9256,-2.0062,-2.0227,-2.11,-2.191,-2.2081,-2.2392,-2.2627,-2.2478,-2.1735,-2.1221,-2.1451,-2.1298,-2.1201,-2.1573,-2.2542,-2.3231,-2.3327,-2.3863,-2.4334,-2.4562,-2.4574,-2.4634,-2.4826,-2.504,-2.5721,-2.7204,-2.7537,-2.8012,-2.8546,-2.8417,-2.8403,-2.8661,-2.8091,-2.7894,-2.7934,-2.8583,-2.8648,3.5056,3.4831,0.0,3.4604,3.4604,0.0,3.4427,3.4124,3.3842,3.3807,0.0,0.0,0.0,0.0,0.0,0.0,0.0,0.0,0.0,0.0,0.0,0.0,0.0,0.0,0.0,0.0,0.0,0.0,0.0,0.0,0.0,3.507,3.5239,3.5412,3.5422,3.5451,3.5496,3.5454,3.5066,3.4392,3.4311,3.3883,3.3203,3.4105,3.4936,3.571,3.5703,3.5682,3.5678,3.5678,3.5675,3.5454,3.3555,3.2692,3.2198,2.975,2.7353,2.5349,2.5844,2.4196,2.1277,1.8073,1.5173,1.1776,0.5829,0.299,0.0968,-0.3284,-0.5843,-0.7407,-0.7701,-0.9274,-1.1514,-1.4316,-1.598,-1.705,-1.7407,-1.8506,-1.9603,-2.009,-2.1094,-2.1866,-2.1866,-2.1268,-2.0827,-2.0827,-2.074,-2.0663,-2.0343,-2.1257,-2.2167,-2.2872,-2.3021,-2.3327,-2.3886,-2.397,-2.4043,-2.4116,-2.449,-2.4909,-2.5346,-2.5861,-2.6427,-2.6973,-2.662,-2.6414,-2.6483,-2.6094,-2.5898,-2.5968,-2.7082,-2.7217,3.5254,3.5035,0.0,0.0,3.4628,3.4495,3.4427,3.434,3.4173,0.0,0.0,0.0,0.0,0.0,0.0,0.0,0.0,0.0,0.0,0.0,0.0,0.0,0.0,0.0,0.0,0.0,0.0,0.0,0.0,0.0,3.5203,3.5388,3.5509,3.5566,3.5554,3.5572,3.5573,3.5068,3.4369,0.0,3.2851,3.2453,3.2329,3.3884,3.4996,3.5701,3.5695,3.5646,3.5541,3.5541,3.5426,3.5174,3.4615,3.3319,3.165,3.1021,2.9451,2.7453,2.6087,2.5321,2.4176,1.985,1.7009,1.4748,1.1444,0.8162,0.4995,0.22,0.0176,-0.1757,-0.4335,-0.611,-0.7516,-0.8879,-1.1883,-1.4643,-1.5411,-1.6324,-1.7131,-1.7365,-1.7937,-1.8355,-1.8355,-1.855,-1.8656,-1.8656,-1.839,-1.8221,-1.8496,-1.8982,-1.9506,-1.9875,-2.0623,-2.139,-2.2188,-2.2339,-2.2723,-2.3191,-2.3959,-2.4177,-2.3829,-2.5052,-2.6126,-2.6973,-2.6595,-2.665,-2.7284,-2.6321,-2.5894,-2.6102,-2.642,-2.6488,3.5207,0.0,0.0,3.4732,0.0,3.4517,3.4473,3.445,3.4363,0.0,0.0,0.0,0.0,0.0,0.0,0.0,0.0,0.0,0.0,0.0,0.0,0.0,0.0,0.0,0.0,0.0,0.0,0.0,0.0,3.5397,3.5307,3.5477,3.5604,3.5639,3.565,3.5687,3.5747,3.4983,3.4152,3.328,3.2424,3.1952,3.1929,3.3691,3.4911,3.5651,3.5585,3.5514,3.543,3.5283,3.5129,3.4939,3.4285,3.3094,3.1617,3.0752,2.9643,2.8338,2.6992,2.6466,2.5807,2.2261,1.9984,1.7987,1.4689,1.1931,0.9361,0.6306,0.3687,0.1146,-0.1151,-0.3464,-0.5427,-0.6562,-0.9338,-1.194,-1.2535,-1.3626,-1.4552,-1.5051,-1.5808,-1.6406,-1.6667,-1.7188,-1.7456,-1.7294,-1.7448,-1.7529,-1.7294,-1.7577,-1.7954,-1.8443,-1.8973,-1.9681,-2.074,-2.1278,-2.1583,-2.1507,-2.2424,-2.2798,-2.2253,-2.3198,-2.4313,-2.5652,-2.5429,-2.5557,-2.5906,-2.5358,-2.5075,-2.5205,-2.5533,-2.5673,3.5138,0.0,3.4889,3.471,3.4647,0.0,3.4583,3.4539,0.0,0.0,0.0,0.0,0.0,0.0,0.0,0.0,0.0,0.0,0.0,0.0,0.0,0.0,0.0,0.0,0.0,0.0,0.0,0.0,0.0,3.5526,3.5386,3.5531,3.565,3.5729,3.5721,3.5719,3.5673,3.482,3.3943,3.3056,3.2162,3.1709,3.1737,3.3374,3.4573,3.5334,3.5309,3.5307,3.5266,3.4921,3.4756,3.4583,3.3466,3.2576,3.1757,3.0046,2.9244,2.8836,2.7853,2.7377,2.6828,2.4661,2.2769,2.0761,1.72,1.5167,1.3302,0.96,0.6393,0.3619,0.1778,-0.098,-0.3655,-0.4807,-0.6741,-0.8578,-0.9625,-1.0823,-1.1923,-1.2874,-1.3975,-1.4906,-1.5418,-1.6018,-1.6288,-1.6049,-1.6624,-1.6878,-1.6229,-1.6214,-1.6519,-1.7131,-1.7212,-1.7777,-1.9158,-2.0022,-2.0197,-1.9747,-2.074,-2.1191,-2.0797,-2.1191,-2.2038,-2.3423,-2.3813,-2.4043,-2.4116,-2.4116,-2.4127,-2.4116,-2.4527,-2.4731,3.5359,0.0,3.5049,0.0,3.487,3.4831,0.0,0.0,0.0,0.0,0.0,0.0,0.0,0.0,0.0,0.0,0.0,0.0,0.0,0.0,0.0,0.0,0.0,0.0,0.0,0.0,0.0,0.0,3.5673,3.5665,3.5657,3.5678,3.5727,3.5774,3.583,3.5513,3.4782,3.3963,3.3083,3.2157,3.1103,3.0962,3.1648,3.2589,3.3473,3.4323,3.4759,3.4924,3.4851,3.4457,3.4167,3.3869,3.3085,3.2355,3.1668,3.0228,2.9754,2.9637,2.7882,2.7461,2.7551,2.6283,2.4005,2.1665,2.0933,1.847,1.5223,1.1753,0.9895,0.8024,0.3918,0.1783,0.0356,-0.0893,-0.214,-0.4088,-0.7607,-0.8752,-0.9369,-1.0514,-1.1815,-1.2936,-1.3516,-1.3769,-1.3944,-1.4294,-1.3957,-1.3964,-1.4817,-1.4139,-1.3795,-1.4448,-1.4531,-1.5094,-1.6635,-1.7374,-1.8123,-1.8816,-1.9668,-1.9894,-1.9265,-1.9816,-2.0285,-2.044,-2.2435,-2.3604,-2.397,-2.3751,-2.3677,-2.3677,-2.374,-2.3813,3.5283,3.5162,3.5064,0.0,3.4944,3.4997,3.4961,0.0,0.0,0.0,0.0,0.0,0.0,0.0,0.0,0.0,0.0,0.0,0.0,0.0,0.0,0.0,0.0,0.0,0.0,0.0,0.0,0.0,3.5728,3.5757,3.5766,3.5766,3.5791,3.5849,3.5887,3.5466,3.4541,3.3704,3.2556,3.1095,3.0552,3.0465,3.0852,3.2129,3.3181,3.4072,3.4742,3.4981,3.487,3.4319,3.4012,3.3854,3.3123,3.2176,3.1164,3.0459,2.969,2.891,2.7839,2.7598,2.7537,2.6769,2.531,2.3666,2.3007,2.0535,1.7388,1.4943,1.2626,1.011,0.6997,0.4429,0.248,0.1427,0.1071,0.0178,-0.2392,-0.4698,-0.6656,-0.8511,-1.0086,-1.1305,-1.1558,-1.2248,-1.2772,-1.3033,-1.3112,-1.3197,-1.3372,-1.2954,-1.2699,-1.3033,-1.3033,-1.3438,-1.4504,-1.5306,-1.5973,-1.6429,-1.7212,-1.7785,-1.7925,-1.8407,-1.8877,-1.9204,-2.1135,-2.2134,-2.236,-2.2767,-2.2927,-2.2927,-2.2927,-2.2927,0.0,0.0,3.5215,3.5095,3.5111,3.5174,0.0,0.0,0.0,0.0,0.0,0.0,0.0,0.0,0.0,0.0,0.0,0.0,0.0,0.0,0.0,0.0,0.0,0.0,0.0,0.0,0.0,0.0,3.5747,3.5775,3.5803,3.5799,3.5833,3.5906,3.5891,3.5347,3.4179,3.305,3.1773,3.0362,3.0241,3.0171,3.0233,3.1851,3.2939,3.362,3.4561,3.4908,3.4753,3.4128,3.3828,3.3697,3.3019,3.1969,3.0796,3.0475,2.9738,2.8773,2.804,2.7919,2.7947,2.7121,2.6057,2.4909,2.4108,2.1793,1.9076,1.7379,1.4814,1.2064,0.9856,0.7299,0.502,0.382,0.3829,0.3383,0.0892,-0.196,-0.4718,-0.6669,-0.8253,-0.9305,-0.9305,-1.0351,-1.1225,-1.1305,-1.1992,-1.2425,-1.2009,-1.1929,-1.1837,-1.1837,-1.1837,-1.2174,-1.2845,-1.3574,-1.4072,-1.4364,-1.517,-1.5921,-1.646,-1.7049,-1.7538,-1.8023,-1.9502,-2.044,-2.075,-2.1614,-2.209,-2.209,-2.2327,-2.2402,0.0,3.5571,0.0,3.5503,3.5423,0.0,0.0,0.0,0.0,0.0,0.0,0.0,0.0,0.0,0.0,0.0,0.0,0.0,0.0,0.0,0.0,0.0,0.0,0.0,0.0,0.0,0.0,0.0,3.5708,3.5737,3.5803,3.5806,3.5827,3.5906,3.5898,3.5042,3.3284,3.1448,3.0455,3.0306,3.0169,3.0113,3.016,3.1854,3.2514,3.2467,3.3957,3.4467,3.42,3.3742,3.339,3.3068,3.2266,3.1568,3.0886,2.9972,3.0069,3.0402,2.8635,2.8703,2.9338,2.7762,2.5988,2.4409,2.4192,2.2221,1.9856,1.8276,1.6498,1.4532,1.2018,1.0509,0.9078,0.6987,0.638,0.4877,-0.0178,-0.2498,-0.3918,-0.4905,-0.5971,-0.659,-0.659,-0.7386,-0.8177,-0.8611,-0.9666,-1.0636,-1.0982,-1.0809,-1.0722,-1.0722,-1.0722,-1.0977,-1.1735,-1.2169,-1.2687,-1.3353,-1.4273,-1.4782,-1.4782,-1.5733,-1.617,-1.6252,-1.7294,-1.8487,-1.9678,-2.0672,-2.1135,-2.1211,-2.2014,-2.2402,0.0,0.0,0.0,3.5588,3.5611,3.566,0.0,0.0,0.0,0.0,0.0,0.0,0.0,0.0,0.0,0.0,0.0,0.0,0.0,0.0,0.0,0.0,0.0,0.0,0.0,0.0,0.0,0.0,0.0,3.5818,3.5801,3.5841,3.5843,3.5767,3.5773,3.489,3.3035,3.1744,3.0803,3.0169,3.0123,3.0068,3.0079,3.1504,3.2108,3.2123,3.3538,3.4195,3.4208,3.3652,3.3314,3.3027,3.2316,3.1459,3.0542,2.9989,2.9911,2.9947,2.8983,2.9013,2.9268,2.8338,2.7149,2.5931,2.5405,2.352,2.148,2.041,1.8559,1.6406,1.4428,1.3361,1.2026,0.9009,0.7796,0.6477,0.3379,0.0977,-0.1067,-0.2675,-0.3831,-0.4809,-0.562,-0.6416,-0.6943,-0.7115,-0.8002,-0.8794,-0.8882,-0.9501,-0.9946,-0.9946,-0.9946,-1.0028,-1.0371,-1.0463,-1.089,-1.1746,-1.2254,-1.2845,-1.3607,-1.4468,-1.5061,-1.522,-1.6147,-1.7212,-1.8407,-1.9423,-1.9963,-1.9963,-2.076,-2.1316,3.5763,0.0,0.0,0.0,0.0,3.582,0.0,0.0,0.0,0.0,0.0,0.0,0.0,0.0,0.0,0.0,0.0,0.0,0.0,0.0,0.0,0.0,0.0,0.0,0.0,0.0,0.0,0.0,0.0,0.0,3.5792,3.5854,3.5859,3.5763,3.5366,3.4429,3.2909,3.1905,3.0967,3.0064,2.9988,2.9924,2.9895,3.1199,3.1759,3.1786,3.3128,3.3865,3.3986,3.3496,3.3178,3.2916,3.2196,3.1308,3.0352,2.9946,2.9769,2.9589,2.8887,2.8968,2.917,2.8417,2.751,2.6577,2.5975,2.4327,2.2552,2.1769,1.9944,1.7908,1.6569,1.5343,1.3762,1.1107,0.9552,0.8162,0.6404,0.3911,0.1423,-0.0178,-0.1426,-0.2496,-0.339,-0.4186,-0.4896,-0.526,-0.6233,-0.6943,-0.7214,-0.8006,-0.8627,-0.8982,-0.8982,-0.9161,-0.9432,-0.9515,-0.9777,-1.0381,-1.0809,-1.1494,-1.2254,-1.3284,-1.3933,-1.409,-1.5234,-1.6139,-1.6881,-1.8147,-1.8887,-1.9101,-1.982,-2.0552,0.0,0.0,0.0,0.0,0.0,0.0,3.59,0.0,0.0,0.0,0.0,0.0,0.0,0.0,0.0,0.0,0.0,0.0,0.0,0.0,0.0,0.0,0.0,0.0,0.0,0.0,0.0,0.0,3.5794,3.5797,3.5797,3.5858,3.5893,3.5891,3.4743,3.3743,3.2933,3.19,3.0931,3.0064,2.9861,2.9682,2.9626,3.0965,3.15,3.1396,3.2784,3.3419,3.3458,3.3201,3.2916,3.2636,3.1896,3.1111,3.0327,2.9789,2.964,2.9589,2.8439,2.8626,2.9107,2.7973,2.6892,2.6114,2.5894,2.4589,2.3073,2.2027,2.0575,1.9097,1.8238,1.6183,1.4196,1.3269,1.1643,1.0014,0.8544,0.588,0.3477,0.2316,0.1429,0.0626,0.0089,-0.0714,-0.1693,-0.2949,-0.4101,-0.5166,-0.5888,-0.6151,-0.6678,-0.7654,-0.7746,-0.8101,-0.9082,-0.917,-0.9262,-0.9266,-1.0043,-1.0651,-1.0916,-1.1997,-1.2651,-1.2921,-1.4421,-1.5102,-1.5116,-1.6877,-1.8085,-1.869,-1.9281,-2.0045,3.5996,0.0,0.0,0.0,0.0,0.0,3.597,3.5938,0.0,0.0,0.0,0.0,0.0,0.0,0.0,0.0,0.0,0.0,0.0,0.0,0.0,0.0,0.0,0.0,0.0,0.0,0.0,0.0,3.5867,3.5877,3.5879,3.5791,3.5762,3.5764,3.5249,3.4581,3.3782,3.3337,3.2678,3.1792,3.1065,3.0904,3.1233,3.1344,3.1602,3.1992,3.2709,3.2975,3.283,3.2749,3.2603,3.2369,3.1823,3.1033,3.0117,2.9745,2.9848,3.0151,2.9735,2.9666,2.9718,2.9331,2.8195,2.6985,2.6905,2.5767,2.4409,2.3818,2.2006,1.9797,1.8014,1.6468,1.4963,1.3587,1.2498,1.1316,0.9854,0.8444,0.6577,0.3742,0.2945,0.2322,0.0805,0.0268,0.0,-0.0358,-0.1248,-0.2224,-0.3117,-0.4003,-0.4979,-0.5874,-0.6145,-0.6413,-0.6681,-0.6861,-0.7354,-0.8185,-0.8555,-0.9152,-1.0117,-1.1081,-1.1657,-1.1925,-1.279,-1.3459,-1.3933,-1.6094,-1.7328,-1.7517,-1.8617,-1.96,0.0,0.0,0.0,0.0,0.0,0.0,3.5996,3.5956,3.589,0.0,0.0,0.0,0.0,0.0,0.0,0.0,0.0,0.0,0.0,0.0,0.0,0.0,0.0,0.0,0.0,3.5891,3.5893,3.5893,3.5898,3.5909,3.5892,3.576,3.565,3.5621,3.538,3.486,3.4021,3.3832,3.3313,3.2408,3.1751,3.1519,3.1667,3.1671,3.1792,3.2043,3.2621,3.2787,3.2588,3.2488,3.2283,3.1949,3.1452,3.0714,2.9832,2.9512,2.9687,3.0083,2.9856,2.9723,2.9656,2.947,2.8468,2.7403,2.7335,2.6414,2.5346,2.4672,2.2658,2.0343,1.8496,1.7294,1.6124,1.4678,1.36,1.2516,1.0982,1.0202,0.8965,0.6313,0.5606,0.4807,0.3121,0.2676,0.2321,0.1431,0.0714,0.0,-0.0803,-0.1514,-0.2314,-0.3291,-0.3859,-0.442,-0.4779,-0.5461,-0.6162,-0.6786,-0.7444,-0.8229,-0.8979,-0.9992,-1.0693,-1.0885,-1.1791,-1.2648,-1.3454,-1.5153,-1.6368,-1.7063,-1.8316,-1.9199,0.0,0.0,0.0,0.0,0.0,0.0,3.5977,3.5929,3.5877,0.0,0.0,0.0,0.0,0.0,0.0,0.0,0.0,0.0,0.0,0.0,0.0,0.0,0.0,0.0,3.5898,3.5898,3.5898,3.5898,3.5893,3.5896,3.5905,3.5698,3.5557,3.5516,3.5307,3.483,3.4053,3.39,3.3412,3.2562,3.2173,3.1853,3.1561,3.1983,3.2061,3.1867,3.2581,3.277,3.2555,3.2386,3.202,3.1545,3.1027,3.0318,2.9556,2.9323,2.9472,2.9711,2.9431,2.9319,2.9296,2.8917,2.8222,2.7469,2.7335,2.6769,2.5894,2.4708,2.2796,2.0797,1.945,1.8505,1.7521,1.6108,1.4866,1.3613,1.2186,1.1585,1.0895,0.9589,0.8436,0.7376,0.5971,0.5526,0.4636,0.2684,0.2237,0.188,0.1077,0.0987,0.0628,-0.0359,-0.1277,-0.212,-0.2944,-0.4215,-0.5027,-0.5225,-0.6464,-0.7325,-0.7621,-0.8905,-0.9669,-0.9874,-1.1085,-1.2237,-1.3295,-1.4032,-1.5278,-1.6784,-1.787,-1.8419,0.0,0.0,0.0,0.0,0.0,0.0,3.5788,3.5742,3.5749,0.0,0.0,0.0,0.0,0.0,0.0,0.0,0.0,0.0,0.0,0.0,0.0,0.0,0.0,0.0,3.59,3.5892,3.5908,3.5908,3.5899,3.5905,3.5905,3.5717,3.56,3.557,3.5325,3.5124,3.4955,3.4718,3.4488,3.4298,3.3224,3.2878,3.3193,3.2418,3.226,3.2652,3.2844,3.2705,3.2352,3.2318,3.202,3.1528,3.1072,3.0369,2.9649,2.9892,3.0092,3.0228,3.0063,2.9915,2.978,2.9044,2.8222,2.7523,2.7469,2.6905,2.5906,2.3638,2.2027,2.0769,1.9913,1.9353,1.8541,1.6911,1.6003,1.5101,1.3464,1.2966,1.2705,1.1843,0.9488,0.7302,0.6413,0.5622,0.4917,0.4472,0.4383,0.4049,0.3019,0.2843,0.2492,0.1313,0.0849,0.0567,0.0378,-0.0853,-0.2005,-0.3193,-0.427,-0.5477,-0.6642,-0.7763,-0.8474,-0.8765,-0.9792,-1.0788,-1.1653,-1.3052,-1.4309,-1.5432,-1.5609,-1.6177,0.0,0.0,0.0,3.6007,0.0,0.0,0.0,3.5704,3.5696,0.0,0.0,0.0,0.0,0.0,0.0,0.0,0.0,0.0,0.0,0.0,0.0,0.0,0.0,0.0,3.5899,3.5894,3.5903,3.5911,3.5838,3.5763,3.5697,3.5599,3.5476,3.5353,3.5162,3.5032,3.5,3.4691,3.4517,3.4431,3.3654,3.3348,3.3429,3.2864,3.2629,3.2737,3.2737,3.2539,3.2197,3.2197,3.1894,3.1432,3.1162,3.0444,2.9665,3.016,3.038,3.0416,3.0613,3.0669,3.0466,2.958,2.8789,2.8105,2.7656,2.7188,2.6402,2.423,2.3136,2.2264,2.076,2.006,1.9483,1.8284,1.7632,1.6814,1.5108,1.4699,1.4371,1.313,1.1316,0.9596,0.8364,0.7364,0.6523,0.6076,0.5496,0.5002,0.4491,0.4404,0.4139,0.342,0.2782,0.2316,0.222,0.107,-0.0,-0.0692,-0.2376,-0.3677,-0.4409,-0.6116,-0.7325,-0.8021,-0.8418,-0.9114,-1.0203,-1.0979,-1.2237,-1.4082,-1.4082,-1.4657,0.0,0.0,0.0,0.0,0.0,3.5659,0.0,0.0,0.0,0.0,0.0,0.0,0.0,0.0,0.0,0.0,0.0,0.0,0.0,0.0,0.0,0.0,0.0,0.0,0.0,3.5852,3.5859,3.5864,3.5736,3.5599,3.5481,3.5432,3.5326,3.5105,3.4963,3.4851,3.4788,3.445,3.4197,3.4099,3.376,3.3458,3.319,3.3129,3.2912,3.2606,3.2573,3.237,3.2073,3.2037,3.1728,3.1295,3.1078,3.0418,2.9681,3.0258,3.0472,3.0483,3.1036,3.117,3.0999,3.0119,2.9345,2.861,2.7723,2.7268,2.6769,2.5322,2.4612,2.3891,2.1842,2.0991,2.0508,1.965,1.9088,1.8275,1.6667,1.6312,1.5786,1.422,1.3498,1.2533,1.0557,0.9357,0.8485,0.758,0.6665,0.6089,0.5831,0.5831,0.5648,0.519,0.439,0.3839,0.3544,0.2394,0.161,0.1509,-0.0502,-0.1705,-0.1805,-0.4012,-0.5922,-0.7229,-0.7024,-0.7524,-0.8832,-0.8832,-1.0199,-1.2732,-1.2732,-1.3403,0.0,0.0,0.0,0.0,3.616,0.0,0.0,0.0,3.5355,0.0,0.0,0.0,0.0,0.0,0.0,0.0,0.0,0.0,0.0,0.0,0.0,0.0,0.0,0.0,0.0,3.571,3.5721,3.5715,3.5538,3.5419,3.5418,3.5247,3.5138,3.5105,3.4908,3.4809,3.4788,3.434,3.4124,3.4099,3.3522,3.325,3.319,3.2816,3.2621,3.2606,3.242,3.2232,3.2073,3.1785,3.1507,3.1218,3.0526,2.9962,2.9656,3.0198,3.0402,3.0492,3.1009,3.1129,3.0911,3.0072,2.9219,2.8352,2.759,2.6837,2.6126,2.5627,2.4981,2.4131,2.3054,2.2692,2.222,2.0508,1.965,1.8948,1.7764,1.7284,1.6922,1.6152,1.5814,1.4763,1.1645,1.0624,0.9938,0.9031,0.8862,0.837,0.7276,0.7199,0.676,0.5688,0.5411,0.5218,0.5022,0.3924,0.3123,0.2618,0.1509,0.0704,0.0402,-0.1605,-0.3809,-0.5824,-0.5824,-0.6323,-0.7422,-0.7422,-0.8803,-1.1463,-1.1463,-1.195,0.0,0.0,0.0,0.0,0.0,0.0,3.5393,0.0,3.5289,0.0,0.0,0.0,0.0,0.0,0.0,0.0,0.0,0.0,0.0,0.0,0.0,0.0,0.0,0.0,0.0,0.0,0.0,0.0,3.5412,3.5307,3.5232,3.5155,3.5035,3.4927,3.4668,3.4473,3.4386,3.3831,3.3578,3.356,3.322,3.2943,3.2848,3.2687,3.2506,3.2318,3.2232,3.2108,3.191,3.1765,3.1617,3.1406,3.0891,3.0494,3.0218,3.0649,3.0887,3.1067,3.1602,3.1807,3.1622,3.03,2.9268,2.8352,2.7656,2.7175,2.6756,2.5975,2.5475,2.4969,2.3913,2.335,2.2767,2.1983,2.1501,2.0829,1.9774,1.9359,1.8879,1.7945,1.7548,1.6766,1.463,1.3043,1.1812,1.1538,1.0712,0.9865,0.9364,0.8897,0.8441,0.7809,0.7126,0.6634,0.6431,0.5331,0.4632,0.423,0.302,0.1912,0.1107,-0.0302,-0.1808,-0.3513,-0.4019,-0.4824,-0.6027,-0.6027,-0.7018,-0.8901,-0.9706,-1.0592,3.9941,0.0,0.0,0.0,0.0,0.0,0.0,0.0,0.0,0.0,0.0,0.0,0.0,0.0,0.0,0.0,0.0,0.0,0.0,0.0,0.0,0.0,0.0,0.0,0.0,0.0,0.0,0.0,0.0,3.5122,3.5018,3.4982,3.4908,3.4747,3.4473,3.4269,3.4173,3.3662,3.335,3.3309,3.3055,3.2802,3.2606,3.2506,3.2335,3.2126,3.2037,3.1929,3.18,3.1688,3.1585,3.1517,3.109,3.0919,3.0959,3.1139,3.1249,3.149,3.2057,3.2287,3.2048,3.0615,2.9518,2.8661,2.7973,2.7656,2.7323,2.6458,2.6183,2.5894,2.4552,2.3869,2.3486,2.2972,2.2646,2.219,2.1428,2.1021,2.0649,1.9874,1.9326,1.8611,1.7781,1.5722,1.4042,1.3673,1.2682,1.1726,1.1239,1.0667,1.0087,0.9399,0.8612,0.8021,0.7816,0.6728,0.5934,0.534,0.4332,0.3222,0.1912,0.1209,0.0302,-0.1005,-0.161,-0.2615,-0.4219,-0.4219,-0.502,-0.6623,-0.8028,-0.9217,0.0,0.0,0.0,3.9119,0.0,0.0,0.0,0.0,3.6222,0.0,0.0,0.0,0.0,0.0,0.0,0.0,0.0,0.0,0.0,0.0,0.0,0.0,0.0,0.0,0.0,0.0,0.0,0.0,0.0,0.0,3.4809,3.4687,3.4604,3.4623,3.4473,3.4386,3.4386,3.4049,3.378,3.3577,3.3208,3.2848,3.2606,3.2266,3.2108,3.2073,3.1893,3.18,3.1763,3.1385,3.1338,3.1434,3.0771,3.1019,3.1743,3.1495,3.1366,3.149,3.2151,3.2247,3.1868,3.0822,3.0011,2.9317,2.8661,2.8039,2.7469,2.7268,2.7268,2.6837,2.4909,2.4707,2.4641,2.2928,2.2321,2.2217,2.2145,2.199,2.1874,2.1788,2.1146,2.0529,2.052,1.8395,1.6351,1.5222,1.4949,1.4268,1.2506,1.2216,1.1541,0.9801,0.9509,0.9406,0.9197,0.812,0.693,0.5634,0.5338,0.4636,0.3527,0.3224,0.262,0.1512,0.1412,0.0403,-0.1707,-0.1707,-0.2812,-0.4924,-0.6523,-0.7822,0.0,0.0,3.9097,3.9128,0.0,0.0,0.0,0.0,0.0,0.0,0.0,0.0,0.0,0.0,0.0,0.0,0.0,0.0,0.0,0.0,0.0,0.0,0.0,0.0,0.0,0.0,0.0,0.0,0.0,0.0,0.0,3.4623,3.4561,3.4473,3.4136,3.391,3.3868,3.3455,3.3129,3.2943,3.2784,3.2573,3.2284,3.2144,3.1929,3.1562,3.1504,3.1334,3.1173,3.134,3.1381,3.1375,3.1598,3.1826,3.1945,3.1542,3.1659,3.209,3.2321,3.2247,3.1868,3.1116,3.0254,2.9442,2.9205,2.8403,2.7511,2.7417,2.7341,2.7134,2.6358,2.6113,2.5934,2.4975,2.4588,2.4151,2.3453,2.3138,2.293,2.293,2.2318,2.1516,2.0718,1.9894,1.8788,1.7318,1.6183,1.5229,1.4262,1.3216,1.2355,1.1775,1.1082,1.0583,1.048,0.9399,0.8117,0.7033,0.6631,0.5932,0.4736,0.393,0.3225,0.262,0.1916,0.1209,0.0503,0.0503,-0.0603,-0.271,-0.321,-0.4512,4.0427,3.9989,0.0,3.9538,3.9065,0.0,3.8282,0.0,0.0,0.0,0.0,0.0,0.0,0.0,0.0,0.0,0.0,0.0,0.0,0.0,0.0,0.0,0.0,0.0,0.0,0.0,0.0,0.0,0.0,0.0,0.0,0.0,3.4316,3.4221,3.3858,3.3634,3.3605,3.3298,3.3024,3.2719,3.2654,3.2472,3.2108,3.2054,3.1802,3.1466,3.1334,3.1331,3.1402,3.1541,3.1677,3.1827,3.2206,3.2329,3.2148,3.1844,3.2013,3.2398,3.2342,3.2191,3.191,3.1175,3.0315,2.9524,2.9018,2.8228,2.755,2.7682,2.7723,2.7657,2.764,2.7485,2.7164,2.6412,2.6199,2.5954,2.4826,2.4471,2.4251,2.3927,2.3028,2.2129,2.1338,2.0808,2.0002,1.8542,1.7505,1.6648,1.6089,1.4758,1.3715,1.3426,1.2452,1.157,1.1268,1.0382,0.9497,0.8421,0.8018,0.7322,0.6137,0.5331,0.4528,0.3929,0.3225,0.262,0.2217,0.2217,0.1309,-0.0503,-0.0503,-0.1508]}]]